[[{"header":{"parameterUnit":"m.s-1","parameterCategory":1,"la1":30.6,"la2":29.2853,"lo1":-89.7004,"lo2":-87.6739,"dy":0.0162,"dx":0.0183,"nx":112,"ny":82,"refTime":"2023-03-15T12:00:00:Z","depth":0,"parameterNumber":2,"parameterNumberName":"U-component_of_WINDS"},"data":[0.0,0.0,0.0,0.0,0.0,0.0,0.0,0.0,0.0,0.0,0.0,0.0,0.0,0.0,0.0,0.0,0.0,0.0,0.0,0.0,0.0,0.0,0.0,0.0,0.0,0.0,0.0,0.0,0.0,0.0,0.0,0.0,0.0,0.0,0.0,0.0,0.0,0.0,0.0,0.0,0.0,0.0,0.0,0.0,0.0,0.0,0.0,0.0,0.0,0.0,0.0,0.0,0.0,0.0,0.0,0.0,0.0,0.0,0.0,0.0,0.0,0.0,0.0,0.0,0.0,0.0,0.0,0.0,0.0,0.0,0.0,0.0,0.0,0.0,0.0,0.0,0.0,0.0,0.0,0.0,0.0,0.0,0.0,0.0,0.0,0.0,0.0,0.0,0.0,0.0,6.3229,6.617,6.7344,6.7512,6.6561,6.5824,6.4656,6.2883,0.0,0.0,0.0,0.0,0.0,0.0,0.0,0.0,0.0,0.0,0.0,0.0,0.0,0.0,0.0,0.0,0.0,0.0,0.0,0.0,0.0,0.0,0.0,0.0,0.0,0.0,0.0,0.0,0.0,0.0,0.0,0.0,0.0,0.0,0.0,0.0,0.0,0.0,0.0,0.0,0.0,0.0,0.0,0.0,0.0,0.0,0.0,0.0,0.0,0.0,0.0,0.0,0.0,0.0,0.0,0.0,0.0,0.0,0.0,0.0,0.0,0.0,0.0,0.0,0.0,0.0,0.0,0.0,0.0,0.0,0.0,0.0,0.0,0.0,0.0,0.0,0.0,0.0,0.0,0.0,0.0,0.0,0.0,0.0,0.0,0.0,0.0,0.0,0.0,0.0,0.0,0.0,0.0,0.0,0.0,0.0,0.0,0.0,0.0,0.0,0.0,0.0,0.0,0.0,6.2207,6.6739,6.8734,6.9293,6.8318,6.7594,6.618,6.3761,0.0,0.0,0.0,0.0,0.0,0.0,0.0,0.0,0.0,0.0,0.0,0.0,0.0,0.0,0.0,0.0,0.0,0.0,0.0,0.0,0.0,0.0,0.0,0.0,0.0,0.0,0.0,0.0,0.0,0.0,0.0,0.0,0.0,0.0,0.0,0.0,0.0,0.0,0.0,0.0,0.0,0.0,0.0,0.0,0.0,0.0,0.0,0.0,0.0,0.0,0.0,0.0,0.0,0.0,0.0,0.0,0.0,0.0,0.0,0.0,0.0,0.0,0.0,0.0,0.0,0.0,0.0,0.0,0.0,0.0,0.0,0.0,0.0,0.0,0.0,0.0,0.0,0.0,0.0,0.0,0.0,0.0,0.0,0.0,0.0,0.0,0.0,0.0,0.0,0.0,0.0,0.0,0.0,0.0,0.0,0.0,0.0,0.0,0.0,0.0,0.0,0.0,0.0,6.3341,6.528,6.8427,6.9483,6.9805,6.9332,6.7775,6.612,6.4563,6.2507,0.0,0.0,0.0,0.0,0.0,0.0,0.0,0.0,0.0,0.0,0.0,0.0,0.0,0.0,0.0,0.0,0.0,0.0,0.0,0.0,0.0,0.0,0.0,0.0,0.0,0.0,0.0,0.0,0.0,0.0,0.0,0.0,0.0,0.0,0.0,0.0,0.0,0.0,0.0,0.0,0.0,0.0,0.0,0.0,0.0,0.0,0.0,0.0,0.0,0.0,0.0,0.0,0.0,0.0,0.0,0.0,0.0,0.0,0.0,0.0,0.0,0.0,0.0,0.0,0.0,0.0,0.0,0.0,0.0,0.0,0.0,0.0,0.0,0.0,0.0,0.0,0.0,0.0,0.0,0.0,0.0,0.0,0.0,0.0,0.0,0.0,0.0,0.0,0.0,0.0,0.0,0.0,0.0,0.0,0.0,0.0,0.0,0.0,0.0,0.0,0.0,0.0,6.6558,6.8525,6.9754,7.0242,7.0394,7.0204,6.7845,6.6086,6.5313,6.2757,0.0,0.0,0.0,0.0,0.0,0.0,0.0,0.0,0.0,0.0,0.0,0.0,0.0,0.0,0.0,0.0,0.0,0.0,0.0,0.0,0.0,0.0,0.0,0.0,0.0,0.0,0.0,0.0,0.0,0.0,0.0,0.0,0.0,0.0,0.0,0.0,0.0,0.0,0.0,0.0,0.0,0.0,0.0,0.0,0.0,0.0,0.0,0.0,0.0,0.0,0.0,0.0,0.0,0.0,0.0,0.0,0.0,0.0,0.0,0.0,0.0,0.0,0.0,0.0,0.0,0.0,0.0,0.0,0.0,0.0,0.0,0.0,0.0,0.0,0.0,0.0,0.0,0.0,0.0,0.0,0.0,0.0,0.0,0.0,0.0,0.0,0.0,0.0,0.0,0.0,0.0,0.0,0.0,0.0,0.0,0.0,0.0,0.0,0.0,0.0,0.0,0.0,6.6849,6.9754,6.9901,7.1304,7.191,7.1076,6.8754,6.694,6.6068,6.304,0.0,0.0,0.0,0.0,0.0,0.0,0.0,0.0,0.0,0.0,0.0,0.0,0.0,0.0,0.0,0.0,0.0,0.0,0.0,0.0,0.0,0.0,0.0,0.0,0.0,0.0,0.0,0.0,0.0,0.0,0.0,0.0,0.0,0.0,0.0,0.0,0.0,0.0,0.0,0.0,0.0,0.0,0.0,0.0,0.0,0.0,0.0,0.0,0.0,0.0,0.0,0.0,0.0,0.0,0.0,0.0,0.0,0.0,0.0,0.0,0.0,0.0,0.0,0.0,0.0,0.0,0.0,0.0,0.0,0.0,0.0,0.0,0.0,0.0,0.0,0.0,0.0,0.0,0.0,0.0,0.0,0.0,0.0,0.0,0.0,0.0,0.0,0.0,0.0,0.0,0.0,0.0,0.0,0.0,0.0,0.0,0.0,0.0,0.0,0.0,0.0,0.0,6.7887,7.056,0.0,7.2767,7.281,7.1986,7.0086,6.838,6.7011,0.0,0.0,0.0,0.0,0.0,0.0,0.0,0.0,0.0,0.0,0.0,0.0,0.0,0.0,0.0,0.0,0.0,0.0,0.0,0.0,0.0,0.0,0.0,0.0,0.0,0.0,0.0,0.0,0.0,0.0,0.0,0.0,0.0,0.0,0.0,0.0,0.0,0.0,0.0,0.0,0.0,0.0,0.0,0.0,0.0,0.0,0.0,0.0,0.0,0.0,0.0,0.0,0.0,0.0,0.0,0.0,0.0,0.0,0.0,0.0,0.0,0.0,0.0,0.0,0.0,0.0,0.0,0.0,0.0,0.0,0.0,0.0,0.0,0.0,0.0,0.0,0.0,0.0,0.0,0.0,0.0,0.0,0.0,0.0,0.0,0.0,0.0,0.0,0.0,0.0,0.0,0.0,0.0,0.0,0.0,0.0,0.0,0.0,0.0,0.0,0.0,0.0,6.6343,6.9539,7.2077,0.0,7.4316,7.4245,7.2891,7.1223,6.9541,6.7879,0.0,0.0,0.0,0.0,0.0,0.0,0.0,0.0,0.0,0.0,0.0,0.0,0.0,0.0,0.0,0.0,0.0,0.0,0.0,0.0,0.0,0.0,0.0,0.0,0.0,0.0,0.0,0.0,0.0,0.0,0.0,0.0,0.0,0.0,0.0,0.0,0.0,0.0,0.0,0.0,0.0,0.0,0.0,0.0,0.0,0.0,0.0,0.0,0.0,0.0,0.0,0.0,0.0,0.0,0.0,0.0,0.0,0.0,0.0,0.0,0.0,0.0,0.0,0.0,0.0,0.0,0.0,0.0,0.0,0.0,0.0,0.0,0.0,0.0,0.0,0.0,0.0,0.0,0.0,0.0,0.0,0.0,0.0,0.0,0.0,0.0,0.0,0.0,0.0,0.0,0.0,0.0,0.0,0.0,0.0,0.0,0.0,0.0,0.0,0.0,0.0,0.0,6.7385,7.1835,7.4586,7.371,7.5875,7.6368,7.3823,7.209,7.0388,0.0,0.0,0.0,0.0,0.0,0.0,0.0,0.0,0.0,0.0,0.0,0.0,0.0,0.0,0.0,0.0,0.0,0.0,0.0,0.0,0.0,0.0,0.0,0.0,0.0,0.0,0.0,0.0,0.0,0.0,0.0,0.0,0.0,0.0,0.0,0.0,0.0,0.0,0.0,0.0,0.0,0.0,0.0,0.0,0.0,0.0,0.0,0.0,0.0,0.0,0.0,0.0,0.0,0.0,0.0,0.0,0.0,0.0,0.0,0.0,0.0,0.0,0.0,0.0,0.0,0.0,0.0,0.0,0.0,0.0,0.0,0.0,0.0,0.0,0.0,0.0,0.0,0.0,0.0,0.0,0.0,0.0,0.0,0.0,0.0,0.0,0.0,0.0,0.0,0.0,0.0,0.0,0.0,0.0,0.0,0.0,0.0,0.0,0.0,0.0,0.0,0.0,0.0,6.8943,7.2521,7.5003,7.5344,7.6026,7.5685,7.3747,7.3146,7.162,6.875,0.0,0.0,0.0,0.0,0.0,0.0,0.0,0.0,0.0,0.0,0.0,0.0,0.0,0.0,0.0,0.0,0.0,0.0,0.0,0.0,0.0,0.0,0.0,0.0,0.0,0.0,0.0,0.0,0.0,0.0,0.0,0.0,0.0,0.0,0.0,0.0,0.0,0.0,0.0,0.0,0.0,0.0,0.0,0.0,0.0,0.0,0.0,0.0,0.0,0.0,0.0,0.0,0.0,0.0,0.0,0.0,0.0,0.0,0.0,0.0,0.0,0.0,0.0,0.0,0.0,0.0,0.0,0.0,0.0,0.0,0.0,0.0,0.0,0.0,0.0,0.0,0.0,0.0,0.0,0.0,0.0,0.0,0.0,0.0,0.0,0.0,0.0,0.0,0.0,0.0,0.0,0.0,0.0,0.0,0.0,0.0,0.0,0.0,0.0,0.0,0.0,0.0,7.0578,7.3833,7.6064,7.6557,7.7207,7.6784,7.4771,7.4581,7.3164,6.9763,0.0,0.0,0.0,0.0,0.0,0.0,0.0,0.0,0.0,0.0,0.0,0.0,0.0,0.0,0.0,0.0,0.0,0.0,0.0,0.0,0.0,0.0,0.0,0.0,0.0,0.0,0.0,0.0,0.0,0.0,0.0,0.0,0.0,0.0,0.0,0.0,0.0,0.0,0.0,0.0,0.0,0.0,0.0,0.0,0.0,0.0,0.0,0.0,0.0,0.0,0.0,0.0,0.0,0.0,0.0,0.0,0.0,0.0,0.0,0.0,0.0,0.0,0.0,0.0,0.0,0.0,0.0,0.0,0.0,0.0,0.0,0.0,0.0,0.0,0.0,0.0,0.0,0.0,0.0,0.0,0.0,0.0,0.0,0.0,0.0,0.0,0.0,0.0,0.0,0.0,0.0,0.0,0.0,0.0,0.0,0.0,0.0,0.0,0.0,0.0,0.0,0.0,7.2166,7.5354,7.7434,7.751,7.888,7.8798,7.6405,7.6206,7.4762,7.1459,0.0,0.0,0.0,0.0,0.0,0.0,0.0,0.0,0.0,0.0,0.0,0.0,0.0,0.0,0.0,0.0,0.0,0.0,0.0,0.0,0.0,0.0,0.0,0.0,0.0,0.0,0.0,0.0,0.0,0.0,0.0,0.0,0.0,0.0,0.0,0.0,0.0,0.0,0.0,0.0,0.0,0.0,0.0,0.0,0.0,0.0,0.0,0.0,0.0,0.0,0.0,0.0,0.0,0.0,0.0,0.0,0.0,0.0,0.0,0.0,5.8068,0.0,0.0,0.0,0.0,0.0,0.0,0.0,0.0,0.0,0.0,0.0,0.0,0.0,0.0,0.0,0.0,0.0,0.0,0.0,0.0,0.0,0.0,0.0,0.0,0.0,0.0,0.0,0.0,0.0,0.0,0.0,0.0,0.0,0.0,0.0,0.0,0.0,0.0,0.0,0.0,0.0,7.2914,7.5728,7.7623,7.8268,7.8647,7.8382,7.7207,7.7046,7.5809,7.3146,7.2002,0.0,0.0,0.0,0.0,0.0,0.0,0.0,0.0,0.0,0.0,0.0,0.0,0.0,0.0,0.0,0.0,0.0,0.0,0.0,0.0,0.0,0.0,0.0,0.0,0.0,0.0,0.0,0.0,0.0,0.0,0.0,0.0,0.0,0.0,0.0,0.0,0.0,0.0,0.0,0.0,0.0,0.0,0.0,0.0,0.0,0.0,0.0,0.0,0.0,0.0,0.0,0.0,0.0,0.0,0.0,0.0,0.0,0.0,0.0,0.0,5.91,0.0,0.0,0.0,0.0,0.0,0.0,0.0,0.0,0.0,0.0,0.0,0.0,0.0,0.0,0.0,0.0,0.0,0.0,0.0,0.0,0.0,0.0,0.0,0.0,0.0,0.0,0.0,0.0,0.0,0.0,0.0,0.0,0.0,0.0,0.0,0.0,0.0,0.0,0.0,0.0,7.3737,7.5938,7.7689,7.8894,7.9046,7.87,7.7868,7.7731,7.6602,7.4153,7.3441,0.0,0.0,0.0,0.0,0.0,0.0,0.0,0.0,0.0,0.0,0.0,0.0,0.0,0.0,0.0,0.0,0.0,0.0,0.0,0.0,0.0,0.0,0.0,0.0,0.0,0.0,0.0,0.0,0.0,0.0,0.0,0.0,0.0,0.0,0.0,0.0,0.0,0.0,0.0,0.0,0.0,0.0,0.0,0.0,0.0,0.0,0.0,0.0,0.0,0.0,0.0,0.0,0.0,6.3203,6.3637,6.3637,6.3637,6.412,6.4837,6.2727,6.1966,6.2168,0.0,0.0,0.0,0.0,0.0,0.0,0.0,0.0,0.0,0.0,0.0,0.0,0.0,0.0,0.0,0.0,0.0,0.0,0.0,0.0,0.0,0.0,0.0,0.0,0.0,6.9868,6.9144,0.0,0.0,0.0,0.0,0.0,0.0,0.0,0.0,0.0,0.0,0.0,0.0,7.4562,7.6235,7.7808,7.9349,7.95,7.9198,7.847,7.8415,7.746,7.5273,7.4949,7.3775,0.0,0.0,0.0,0.0,0.0,0.0,0.0,0.0,0.0,0.0,0.0,0.0,0.0,0.0,0.0,0.0,0.0,0.0,0.0,0.0,0.0,0.0,0.0,0.0,0.0,0.0,0.0,0.0,0.0,0.0,0.0,0.0,5.5469,5.6376,0.0,0.0,0.0,0.0,0.0,0.0,0.0,0.0,0.0,0.0,0.0,0.0,0.0,6.2316,6.2316,6.3967,6.4811,6.4818,6.6336,6.7033,6.7033,6.7033,6.751,6.8194,6.7193,0.0,6.384,6.4511,0.0,0.0,0.0,0.0,0.0,0.0,0.0,0.0,0.0,0.0,0.0,0.0,0.0,0.0,0.0,0.0,0.0,0.0,0.0,0.0,0.0,0.0,7.2132,7.2357,7.2395,7.2507,0.0,7.0727,6.8704,6.8629,0.0,0.0,0.0,0.0,0.0,0.0,0.0,0.0,7.5334,7.7053,7.8438,7.9387,7.95,7.9462,7.9349,7.9212,7.8733,7.769,7.6864,7.5631,7.3863,7.2481,0.0,0.0,0.0,0.0,0.0,0.0,0.0,0.0,0.0,0.0,0.0,0.0,0.0,0.0,0.0,0.0,0.0,0.0,0.0,0.0,0.0,0.0,0.0,0.0,0.0,0.0,0.0,0.0,0.0,5.5873,5.7085,5.7446,5.755,5.7771,0.0,0.0,0.0,0.0,0.0,0.0,0.0,0.0,0.0,6.3686,6.445,6.5118,6.5558,6.6726,6.7313,6.735,6.8501,6.9052,6.9052,6.9522,6.9919,7.0286,7.0844,7.0227,6.8722,6.7276,6.6241,6.5571,0.0,0.0,0.0,0.0,6.6451,6.7283,6.7603,6.7926,0.0,0.0,0.0,0.0,0.0,0.0,0.0,0.0,0.0,0.0,0.0,0.0,0.0,7.4424,7.471,7.484,7.5252,7.4273,7.2947,0.0,7.0964,7.0288,6.9026,0.0,0.0,0.0,0.0,7.4216,7.6708,7.8,7.9055,7.9895,8.0008,7.982,7.9325,7.9233,7.8826,7.8049,7.7619,7.685,7.5689,7.4079,7.2618,0.0,0.0,0.0,0.0,0.0,0.0,0.0,0.0,0.0,0.0,0.0,0.0,0.0,0.0,0.0,0.0,0.0,0.0,0.0,0.0,0.0,0.0,0.0,0.0,0.0,0.0,0.0,0.0,5.7226,5.8694,5.8883,5.9642,6.0108,0.0,0.0,0.0,0.0,0.0,0.0,6.3565,6.485,6.581,6.6386,6.7192,6.8026,6.888,6.946,6.9884,7.0139,7.0869,7.1243,7.1358,7.1852,7.2145,7.2298,7.3487,7.367,7.2892,7.03,6.9096,6.8942,6.8942,6.8942,6.8926,6.8864,6.9379,7.0123,7.0066,7.0618,7.1251,7.079,0.0,6.9773,6.923,0.0,0.0,0.0,0.0,7.1691,7.3123,7.3945,7.4723,7.5964,7.631,7.6489,7.6784,7.6599,7.5888,0.0,7.3267,7.2428,7.1081,0.0,0.0,0.0,0.0,7.5722,7.7797,7.8916,7.9764,8.0413,8.0488,8.022,7.957,7.9308,7.8972,7.8448,7.8129,7.7592,7.6745,7.5373,7.4074,7.2869,0.0,0.0,0.0,0.0,0.0,0.0,0.0,0.0,0.0,0.0,0.0,0.0,0.0,0.0,0.0,0.0,0.0,0.0,0.0,0.0,0.0,0.0,0.0,0.0,0.0,0.0,0.0,0.0,0.0,6.1343,6.2138,0.0,0.0,0.0,0.0,6.3598,6.4557,6.5317,6.5802,6.8184,6.947,6.9398,7.015,7.1062,7.2065,7.2124,7.2578,7.345,7.3943,7.4353,7.4639,7.4366,7.4434,7.472,7.4793,7.483,7.472,7.378,7.2943,7.2275,7.2275,7.2275,7.2165,7.1402,7.1666,7.2334,7.2326,7.2378,7.2642,7.4125,7.4248,7.3836,7.4057,7.3624,0.0,0.0,7.4231,7.4504,7.5422,7.6233,7.6851,7.6925,7.6969,7.7274,7.8337,7.7117,7.5894,0.0,7.6,7.5701,7.4873,0.0,7.4399,7.4724,7.5973,7.7206,7.8081,7.9605,8.0638,8.0675,8.0675,8.0675,8.0601,7.9851,7.9493,7.9778,7.8766,7.7742,7.6727,7.6193,7.4904,7.2761,7.1719,0.0,0.0,0.0,0.0,0.0,0.0,0.0,0.0,0.0,0.0,0.0,0.0,0.0,0.0,0.0,0.0,0.0,0.0,0.0,0.0,0.0,0.0,0.0,0.0,0.0,0.0,0.0,0.0,6.3827,6.4224,0.0,6.5111,6.5063,6.5354,6.6256,6.7009,6.7746,6.846,7.0417,7.1348,7.0961,7.2492,7.3369,7.3447,7.3455,7.3756,7.4329,7.4168,7.4384,7.4925,7.5349,7.5851,7.6342,7.6589,7.7068,7.7619,7.6941,7.5628,7.403,7.403,7.403,7.403,7.3729,7.3802,7.403,7.403,7.403,7.414,7.472,7.4757,7.4646,7.4748,7.469,7.4651,7.4917,7.509,7.5388,7.6211,7.6515,7.6749,7.7266,7.7457,7.7779,7.8671,7.8496,7.8265,7.8693,7.7236,7.566,7.4815,7.5473,7.6145,7.629,7.7598,7.9021,8.0402,8.1171,8.1572,8.1494,8.1543,8.1341,8.0751,7.9882,7.9442,7.9554,7.8696,7.7815,7.6935,7.6323,7.5405,7.4095,7.2671,7.1077,0.0,0.0,0.0,0.0,0.0,0.0,0.0,0.0,0.0,0.0,0.0,0.0,0.0,0.0,0.0,0.0,0.0,0.0,0.0,0.0,0.0,0.0,0.0,0.0,0.0,6.2683,6.4561,6.5962,6.6836,6.7423,6.7687,6.8058,6.837,6.8677,6.9658,7.0274,7.0264,7.2289,7.322,7.2694,7.3978,7.4817,7.5138,7.4876,7.5176,7.6012,7.554,7.5614,7.6175,7.6615,7.7114,7.7628,7.7964,7.8465,7.9064,7.8743,7.7751,7.6449,7.6246,7.6159,7.6122,7.5821,7.5711,7.5747,7.6049,7.6159,7.6159,7.6159,7.5931,7.5711,7.5711,7.5816,7.5978,7.5978,7.6272,7.672,7.7274,7.7496,7.7677,7.8237,7.8394,7.8647,7.9268,7.9697,7.9986,8.0177,7.8624,7.7107,7.6593,7.7332,7.8044,7.815,7.9236,8.0489,8.1843,8.2304,8.2623,8.2805,8.2896,8.2586,8.1688,8.0829,8.0282,8.0088,7.8978,7.8058,7.7445,7.658,7.5699,7.4742,7.3105,7.1715,7.0562,0.0,0.0,0.0,0.0,0.0,0.0,0.0,0.0,0.0,0.0,0.0,0.0,0.0,0.0,0.0,0.0,0.0,0.0,0.0,0.0,0.0,0.0,0.0,6.4181,6.5595,6.691,6.776,6.9956,7.108,7.0309,7.1509,7.188,7.0778,7.2427,7.2797,7.1156,7.378,7.5116,7.4638,7.4674,7.5516,7.7204,7.6447,7.6894,7.8605,7.8243,7.8261,7.8605,7.827,7.8306,7.865,7.8831,7.8908,7.897,7.9156,7.9356,7.9515,7.8885,7.8626,7.8552,7.7693,7.7399,7.7509,7.8332,7.8633,7.8633,7.8633,7.8067,7.7399,7.7399,7.7399,7.7391,7.7391,7.8031,7.8662,7.8662,7.9258,7.9853,7.9816,7.9816,7.9895,8.0152,8.0638,8.0879,8.0418,8.0331,8.0384,8.0452,8.0265,8.0195,8.0511,8.0996,0.0,8.2174,8.2957,8.3756,8.4535,8.4609,8.4278,8.3499,8.27,8.1956,8.1423,7.965,7.8461,7.82,7.7067,7.5864,7.4663,7.3069,7.1906,7.1188,0.0,0.0,0.0,0.0,0.0,0.0,0.0,0.0,0.0,0.0,0.0,0.0,0.0,0.0,0.0,0.0,0.0,0.0,0.0,0.0,0.0,6.4436,6.6058,6.6495,6.7941,6.9692,7.1662,7.2504,7.2913,7.2992,7.3294,7.3313,7.3007,7.3358,7.3372,7.2917,7.4827,7.5747,7.5263,7.6606,7.7433,7.7621,7.7406,7.7676,7.8438,7.7926,7.8008,7.8596,7.8537,7.8824,7.9296,7.9062,7.9486,8.0234,7.9886,8.0158,8.0773,7.9686,7.933,7.9441,7.9184,7.9111,7.9147,7.9404,7.9478,7.9478,7.9478,7.9294,7.9111,7.9111,7.9111,7.9213,7.9829,8.0159,8.0351,8.0351,8.0938,8.124,8.0073,8.0249,8.0705,8.0748,8.137,8.199,8.2439,8.297,8.2663,8.0372,8.0898,8.1638,8.1726,8.2831,0.0,8.392,8.4231,8.444,8.4581,8.4672,8.4624,8.4278,8.2994,8.1896,8.1176,7.9517,7.8299,7.7576,7.7363,7.6855,7.5909,7.4457,7.3569,0.0,0.0,0.0,0.0,0.0,0.0,0.0,0.0,0.0,0.0,0.0,0.0,0.0,0.0,0.0,0.0,0.0,0.0,0.0,0.0,0.0,0.0,6.642,6.8052,6.9411,7.0565,7.188,7.3494,7.4084,7.4431,7.451,7.4693,7.4741,7.4674,7.4957,7.5009,7.4776,7.6198,7.6803,7.6363,7.7432,7.8087,7.8178,7.8178,7.8469,7.905,7.8991,7.9245,7.9646,8.0004,8.0343,0.0,8.0541,8.0868,8.149,8.1217,8.15,0.0,0.0,0.0,0.0,0.0,8.022,8.0763,8.0432,8.0285,8.0285,8.0285,8.0065,7.9845,8.0212,8.0285,8.0469,8.1269,8.1738,8.1995,8.1995,8.2582,8.2957,8.2048,8.215,8.2517,8.2517,8.3141,8.3728,8.3866,0.0,0.0,8.2194,8.2619,8.3284,8.3284,8.4084,8.4794,8.5058,8.517,8.5306,8.5572,8.5685,8.5554,8.5131,8.3948,0.0,0.0,0.0,7.9213,7.8361,7.8184,0.0,0.0,0.0,7.5728,0.0,0.0,0.0,0.0,7.2273,7.2006,0.0,0.0,0.0,0.0,0.0,0.0,0.0,0.0,0.0,0.0,0.0,0.0,0.0,0.0,0.0,0.0,6.8562,7.0061,7.2348,7.3225,7.3743,7.4094,7.5108,7.5665,7.5295,7.584,7.6109,7.5933,7.6713,7.7056,7.6689,0.0,0.0,0.0,0.0,7.8339,7.8945,7.9053,7.9445,8.0175,8.0863,8.122,8.1255,8.1898,8.2183,8.2229,8.2372,8.247,8.2499,8.2684,8.2886,8.2943,8.1592,8.1076,8.1027,8.0507,8.124,8.237,8.1636,0.0,0.0,8.1407,8.0865,8.0359,8.1158,8.1334,8.1452,8.2341,8.3104,8.3683,8.3683,8.427,8.4829,8.4637,8.4682,8.4719,8.4609,8.5233,8.5608,8.4866,8.538,8.5755,8.5123,8.4946,8.4899,8.4899,8.5009,8.5245,8.5846,8.5939,8.6224,8.6913,0.0,0.0,8.6012,8.5196,8.438,8.3609,8.2031,8.0828,8.011,7.9412,7.8978,7.889,7.8306,7.8035,7.8035,7.7908,7.7983,7.8136,7.5152,7.4182,0.0,0.0,0.0,0.0,0.0,0.0,0.0,0.0,0.0,0.0,0.0,0.0,0.0,0.0,0.0,6.8936,7.0899,7.263,7.3573,7.5152,7.6051,7.564,7.6359,7.677,7.6401,7.7029,7.7359,7.7175,7.7336,7.7666,7.8241,7.9074,7.9503,7.9435,8.0649,8.1077,8.0659,8.122,8.1612,8.1755,0.0,0.0,8.2005,8.2148,8.2183,8.2183,8.2223,8.2332,8.249,8.2529,8.2761,8.3114,8.3309,8.3364,8.3407,8.3603,8.3875,8.4095,8.3948,8.3911,8.3911,8.3911,8.3353,8.2839,8.3654,8.3463,0.0,8.4691,8.5205,8.5343,8.5343,8.593,8.6215,8.4894,8.5086,8.5388,8.4756,8.5233,8.5755,8.5608,8.6224,8.6913,8.7435,8.6442,8.5614,8.5614,8.6156,8.6617,8.6738,8.6766,8.6839,8.6986,8.6986,8.6949,8.6766,8.604,8.5233,8.4417,8.2847,8.1901,8.1754,8.1007,8.0558,8.0534,7.979,7.9425,7.9425,7.9394,7.9409,7.9398,7.7592,7.6913,0.0,0.0,0.0,0.0,0.0,0.0,0.0,0.0,0.0,0.0,0.0,6.7077,6.7781,0.0,6.9975,7.0989,7.2171,7.3351,7.444,7.5451,7.6078,7.6177,7.7074,7.7649,7.7705,7.8016,7.8541,7.9267,7.8936,7.9221,8.0409,8.047,8.0675,8.1031,8.1791,8.2005,8.1648,8.2005,8.2183,8.2183,8.2611,8.28,8.279,8.3218,8.3386,8.3386,8.3386,8.3707,8.4155,8.4155,8.4026,8.3895,8.4416,8.4227,8.3737,8.3934,8.4127,8.4292,8.4292,8.4412,8.4609,8.4609,8.4344,8.416,8.4976,8.4903,8.4866,8.6077,8.6407,8.6407,8.6407,8.6693,8.6803,8.5995,8.6407,8.6893,8.6481,8.7023,8.761,8.761,8.794,8.8344,8.8748,8.8124,8.761,8.761,8.761,8.7757,8.8152,8.8189,8.8189,8.8189,8.8189,8.8189,8.8189,8.7096,8.5894,8.4682,8.3838,8.3214,8.2802,8.2802,8.2618,8.2215,8.2186,8.2194,8.2194,8.2194,8.2194,8.2194,8.1459,8.0289,0.0,0.0,0.0,0.0,0.0,0.0,0.0,6.6301,6.665,6.776,6.812,6.8725,7.0341,7.1032,7.1705,7.2851,7.3298,7.4011,7.5439,7.5796,7.6188,7.6973,7.7896,7.8641,7.9127,7.9302,7.9909,8.122,8.071,8.096,8.2362,8.1862,8.1826,8.2397,8.2576,8.2576,8.2433,8.2754,8.2897,8.2897,8.3692,8.4085,8.4085,8.4742,8.5063,8.5063,8.5063,8.542,8.6002,8.6002,8.5634,8.5069,8.5416,8.4954,8.4062,8.3933,8.4119,8.4425,8.4607,8.4891,8.5284,8.543,8.5382,8.5416,8.6086,8.6269,8.6416,8.706,8.7353,8.7463,8.7463,8.7463,8.7463,8.7463,8.7977,8.8418,8.8418,8.8931,8.94,8.94,8.94,8.9436,8.962,8.951,8.94,8.94,8.8858,8.8674,8.9326,8.94,8.94,8.94,8.94,8.94,8.94,8.8189,8.6839,8.538,8.5159,8.4711,8.3903,8.4352,8.4307,8.3646,8.427,8.4609,8.4609,8.4609,8.4609,8.4609,8.4609,8.3214,6.4693,6.4263,6.4133,6.5453,6.6036,6.688,0.0,6.9625,6.9477,7.0026,7.0717,7.1065,7.0611,7.2245,7.3699,7.386,7.5046,7.6304,7.7116,7.7875,7.8624,7.939,7.9607,8.0019,8.0766,8.1434,8.1898,8.2076,8.2005,8.2326,8.3228,8.3192,8.3192,8.3264,8.3967,8.3993,8.3264,8.4681,8.5395,8.5395,8.6144,8.6501,8.6501,8.6608,8.6633,8.6633,8.6633,8.668,8.6787,8.6787,8.6715,8.6644,8.6696,8.6631,8.6444,8.5767,8.5678,8.5955,8.6673,8.7186,8.7657,8.8361,8.8212,8.7802,8.7912,8.7912,8.7949,8.8023,8.8564,8.9143,8.9143,8.9143,8.9143,8.9143,8.9216,8.9253,8.9253,8.9326,8.94,8.94,8.94,8.962,9.0326,8.9877,8.94,8.94,8.9326,8.929,8.94,8.94,8.94,8.94,8.94,8.94,8.94,8.9216,8.8748,8.7839,8.7133,8.6362,8.5572,8.4939,8.4572,8.4454,8.4535,8.4609,8.4609,8.4609,8.4609,8.4609,8.4609,8.4425,6.6058,6.6252,6.6587,6.765,6.8497,6.9408,7.0885,7.1171,7.1278,7.1725,7.2129,7.237,7.2504,7.3708,7.4859,7.5322,7.6331,7.7294,7.8089,7.891,7.9864,8.1103,8.1648,8.1898,8.1755,8.2443,8.3075,8.3565,8.3147,8.3264,8.4075,8.3646,8.3835,8.4753,8.5109,8.5359,8.5431,8.6109,8.643,8.643,8.6751,8.6894,8.6894,8.6894,8.7143,8.7607,8.7607,8.7607,8.7607,8.7607,8.7607,8.7536,8.7072,8.7179,8.7507,8.6727,8.6639,8.6961,8.7286,8.7703,8.8119,8.8456,8.8403,8.8251,8.85,8.8563,8.8609,8.8833,8.9143,8.94,8.94,8.94,8.94,8.94,8.9767,9.0106,9.0106,9.0473,9.0803,9.0803,9.0803,9.0913,9.1253,9.1033,9.0803,9.0803,9.04,9.0289,9.073,9.0803,9.0803,9.0803,9.0803,9.062,9.0143,9.0106,8.9776,8.8968,8.8592,8.8051,8.7215,8.6885,8.6701,8.6701,8.6701,8.6921,8.7381,8.7381,8.7381,8.7381,8.7381,8.7381,6.7132,6.7703,6.8346,6.9364,7.0415,7.1392,7.2145,7.2311,7.2459,7.3029,7.3119,7.3369,7.4172,7.5001,7.5796,7.659,7.7508,7.8436,7.9267,8.0042,8.1041,8.2362,8.305,8.3137,8.2521,8.3223,8.4075,8.4885,8.4396,8.4396,8.5206,8.4681,8.4895,8.6073,8.6109,8.6358,8.6894,8.7108,8.7215,8.7251,8.7679,8.7893,8.7893,8.8096,8.85,8.9081,8.9081,8.9081,8.9081,8.9081,8.9081,8.8999,8.8428,8.8535,8.8999,8.8428,8.8019,8.7767,8.7982,8.8375,8.8735,8.8771,8.881,8.8882,8.8927,8.9216,8.9466,8.9496,8.9751,9.0088,9.0291,9.0163,9.0025,9.0273,9.0612,9.0841,9.0841,9.1363,9.1803,9.1803,9.1803,9.1803,9.1803,9.1803,9.1803,9.1803,9.151,9.14,9.1767,9.1803,9.1803,9.1803,9.1803,9.1546,9.0987,9.0913,9.0583,8.9767,8.973,8.9363,8.8564,8.8528,8.8528,8.8528,8.8528,8.8821,8.94,8.94,8.94,8.94,8.94,8.94,6.806,6.8096,6.8488,7.0086,7.1094,7.2066,7.361,7.3333,7.2985,7.3788,7.3958,7.4207,7.5001,7.5831,7.6626,7.733,7.8793,8.0113,8.0899,8.1648,8.2433,8.3264,8.3371,8.3315,8.309,8.3977,8.4885,8.5716,8.5752,8.6037,8.6787,8.6822,8.6822,8.6858,8.6858,8.6894,8.6894,8.7679,8.8046,8.8082,8.9641,9.0391,9.0427,9.1129,9.145,9.1486,9.1486,9.1486,9.1486,9.1486,9.1486,9.1486,9.145,9.145,9.1486,9.145,9.0129,8.8471,8.927,8.9815,9.015,9.0233,9.0375,9.0364,8.9594,9.0187,9.0913,8.9947,9.0655,9.1868,9.2516,9.2066,9.1664,9.2506,9.2066,9.1481,9.1481,9.1638,9.1803,9.1803,9.1803,9.1803,9.1803,9.1803,9.1803,9.1803,9.2501,9.2721,9.1913,9.1803,9.1803,9.1803,9.1803,9.1803,9.1767,9.1767,9.1436,9.062,9.0546,9.0216,8.94,8.9363,8.9363,8.9363,8.9363,8.9363,8.94,8.94,8.94,8.94,8.94,8.94,6.9693,7.0451,7.1478,7.2539,7.3431,7.4154,7.468,7.4573,7.4618,7.5439,7.5581,7.5822,7.6581,7.7366,7.8196,7.8972,8.0006,8.097,8.1719,8.2504,8.3061,8.3193,8.3681,8.4131,8.4386,8.4399,8.465,8.5273,8.5334,8.5753,8.6649,8.6696,8.6945,8.7489,8.8128,8.8663,8.9009,8.9946,9.0427,9.0427,9.0962,9.1247,9.1236,9.1486,9.189,9.2354,9.1818,9.189,9.2354,9.1818,9.1925,9.2354,9.1818,9.1925,9.2389,9.2389,9.1934,9.1286,9.1036,9.1027,9.1122,9.1158,9.1212,9.1258,9.1303,9.1609,9.1919,9.1843,9.2407,9.3029,9.3117,9.3233,9.336,9.3331,9.3338,9.3325,9.311,9.3279,9.3464,9.3464,9.3464,9.3464,9.3464,9.3464,9.3464,9.3464,9.3235,9.3198,9.3428,9.3464,9.3235,9.2721,9.2527,9.2453,9.2407,9.1782,9.1515,9.1761,9.1296,9.0894,9.0601,9.0209,9.0182,9.0601,9.0337,9.041,9.0795,9.0932,9.0996,9.0996,9.0996,9.0996,7.1587,7.2318,7.3278,7.4437,7.505,7.5485,7.5844,7.5889,7.6095,7.6678,7.659,7.6697,7.7732,7.8125,7.8731,8.0113,8.122,8.2183,8.2968,8.3692,8.416,8.4324,8.4489,8.4812,8.5317,8.5072,8.5173,8.5887,8.5911,8.6437,8.7643,8.7725,8.808,8.8872,8.9514,9.0092,9.0523,9.1178,9.18,9.2461,9.2461,9.2746,9.327,9.327,9.3567,9.4031,9.3495,9.3567,9.3995,9.3484,9.3591,9.3995,9.3495,9.3603,9.4031,9.4031,9.4031,9.3852,9.2496,9.2032,9.1997,9.17,9.1593,9.166,9.1957,9.2163,9.2334,9.2546,9.2935,9.3352,9.3467,9.3584,9.3676,9.368,9.3753,9.3815,9.3711,9.3808,9.396,9.4036,9.3921,9.3788,9.3788,9.3788,9.3975,9.4525,9.4027,9.3723,9.4104,9.4093,9.3891,9.3444,9.3201,9.3134,9.3249,9.2527,9.2329,9.2908,9.2375,9.2072,9.2072,9.1685,9.1549,9.1644,9.1454,9.1409,9.1508,9.2005,9.2097,9.1812,9.2134,9.2097,7.3587,7.3732,7.401,7.5627,7.5976,7.6148,7.7005,7.7221,7.7288,7.7452,7.6928,7.6892,7.8374,7.8079,7.8355,8.072,8.2423,8.3723,8.4543,8.5115,8.5714,8.6545,8.5783,8.5413,8.5981,8.6076,8.6483,8.7484,8.7459,8.8108,8.9664,8.9735,9.0101,9.0855,9.0973,9.1124,9.1388,9.1471,9.239,9.4102,9.4102,9.4887,9.6303,9.6303,9.6303,9.6303,9.6303,9.6303,9.6303,9.6303,9.6303,9.6303,9.6303,9.6303,9.6303,9.6303,9.6303,9.5982,9.3745,9.2971,9.2817,9.1997,9.1736,9.1771,9.1747,9.202,9.236,9.2143,9.2527,9.3122,9.3687,9.3269,9.2929,9.3655,9.3473,9.3158,9.3351,9.3401,9.3471,9.366,9.3345,9.307,9.3143,9.3153,9.3605,9.5097,9.4893,9.4491,9.4085,9.384,9.3791,9.395,9.3803,9.3842,9.4289,9.3864,9.3662,9.3921,9.3691,9.3574,9.3554,9.3574,9.3219,9.2444,9.2656,9.2358,9.1609,9.2647,9.2712,9.1959,9.2794,9.2721,7.4995,7.6038,7.6869,7.6695,7.7643,7.8331,7.723,7.756,7.7935,7.7378,7.7139,7.7151,7.7704,7.849,7.95,8.0879,8.2613,8.4116,8.5056,8.5667,8.623,8.683,8.6657,8.6945,8.81,8.8217,8.8557,8.9425,8.8428,8.8509,9.0223,9.0305,9.0376,9.0587,9.1906,9.2578,9.2494,9.3769,9.4776,9.5427,9.5427,9.5747,9.6303,9.6303,9.6303,9.6303,9.6303,9.6303,9.6303,9.6303,9.6303,9.6303,9.6303,9.6303,9.6303,9.6303,9.6303,9.6196,9.5625,9.5422,9.5173,9.3828,9.3781,9.4173,9.3578,9.349,9.3569,9.3513,9.3834,9.4219,9.4159,9.4388,9.4578,9.4479,9.4596,9.4679,9.4589,9.4668,9.4804,9.4866,9.4917,9.5384,9.6572,9.639,9.6237,9.6628,9.6441,9.6165,9.5813,9.5529,9.531,9.5094,9.4731,9.4623,9.4932,9.3988,9.366,9.4303,9.3743,9.3306,9.3171,9.3446,9.3356,9.2844,9.3194,9.328,9.308,9.3502,9.3682,9.3685,9.3896,9.3868,7.6914,7.7702,7.8402,7.8695,7.8993,7.8928,7.8104,7.8116,7.8086,7.7478,7.7338,7.7376,7.749,7.8656,8.0007,8.1265,8.3122,8.4846,8.611,8.6739,8.7315,8.7967,8.7957,8.8287,8.9435,8.9528,8.9844,9.0616,8.9575,8.9494,9.0785,9.1172,9.1524,9.1829,9.3184,9.3914,9.389,9.5067,9.5923,9.6434,9.6554,9.6863,9.7349,9.7742,9.7873,9.7873,0.0,9.7873,9.7837,9.7492,9.7349,9.7349,9.7349,9.7349,9.7349,9.7349,9.7349,9.7314,9.6957,9.7064,9.71,9.5541,9.5315,9.553,9.4744,9.4542,9.4542,9.4542,9.4736,9.4977,9.5116,9.5459,9.5693,9.5461,9.5674,9.5902,9.5869,9.5603,9.5242,9.482,9.4835,9.5311,9.6408,9.6144,9.5908,9.6203,9.5961,9.5774,9.5788,9.5746,9.5713,9.5605,9.5283,9.5253,9.5687,9.4813,9.4522,9.5287,9.4716,9.4299,9.4203,9.4401,9.4225,9.3551,9.3831,9.3819,9.3475,9.402,9.4175,9.3998,9.4487,9.4498,7.8804,7.8871,7.9153,8.0764,8.0102,7.9152,7.9301,7.8847,7.8217,7.7609,7.7471,7.7445,7.7366,7.8584,8.0109,8.1653,8.3691,8.562,8.7271,8.7952,8.8649,8.9553,8.946,8.9598,9.0441,9.0511,9.0792,9.1541,9.1003,9.0932,9.1577,9.2267,9.3039,9.3869,9.4584,9.5166,9.5603,9.5906,9.6538,9.745,9.7586,9.8074,9.893,9.9561,9.9894,9.9965,9.9823,0.0,9.9835,9.9039,9.8682,9.8682,9.8682,9.8682,9.8682,9.8682,9.8682,9.861,9.7897,9.8111,9.8432,9.6814,9.6374,9.6315,9.5554,9.534,9.534,9.534,9.534,9.5494,9.6124,9.6303,9.6303,9.6303,9.6466,9.6674,9.6758,9.5999,9.5079,9.4302,9.4076,9.4224,9.4853,9.4572,9.4455,9.5015,9.4775,9.4618,9.4915,9.5151,9.5394,9.5664,9.5508,9.5669,9.6286,9.5906,9.5897,9.6462,9.6271,9.6094,9.6073,9.6063,9.5633,9.4752,9.4752,9.4481,9.393,9.4604,9.4651,9.4153,9.497,9.4967,7.9234,7.9635,7.9814,8.0713,8.1344,8.1447,8.0206,7.9983,7.9478,7.7631,7.7252,7.7122,7.666,7.8228,8.0109,8.1653,8.3497,8.5532,8.773,8.8521,8.9389,9.0794,9.0934,9.1225,9.2021,9.2091,9.2407,9.3132,9.3097,9.3062,9.3202,9.3343,9.4045,9.5449,9.5624,9.6365,9.7764,9.7161,9.7714,9.932,9.8758,9.9003,9.9926,9.969,9.9896,10.0407,9.9358,0.0,9.9835,9.9039,9.8682,9.8682,9.8682,9.8682,9.8682,9.8682,9.8682,9.8682,9.8539,9.8575,9.8432,9.6814,9.6743,9.7135,9.635,9.6089,9.6089,9.6089,9.6089,9.6124,9.6267,9.6303,9.6303,9.6303,9.6338,9.6206,9.5645,9.4848,9.4421,9.4899,9.4583,9.4681,9.6097,9.5923,9.5604,9.5726,9.5671,9.5397,9.4827,9.4809,9.5033,9.5633,9.5508,9.5571,9.603,9.6553,9.6944,9.7055,9.7824,9.8179,9.8005,9.7974,9.7751,9.7434,9.6622,9.6597,9.7273,9.6125,9.6012,9.6901,9.6401,9.6179,8.0049,8.0681,8.1183,8.1899,8.188,8.1355,8.0344,7.9306,7.8218,7.6863,7.6996,7.7146,7.6536,7.8478,8.0495,8.1535,8.3047,8.5044,8.7653,8.8592,8.9739,9.1682,9.2144,9.2492,9.3014,9.3323,9.3508,9.3611,9.3974,9.4233,9.4233,9.4992,9.594,9.7112,9.7533,9.8095,9.8867,9.8625,9.8943,9.9778,9.9589,9.9718,10.0199,10.0514,10.0901,10.1197,10.0688,0.0,10.0989,9.9812,9.9312,9.9276,9.886,9.8682,9.8682,9.8682,9.8682,9.8682,9.8682,9.8682,9.8575,9.779,9.7825,9.7968,9.7171,9.6921,9.6921,9.6921,9.6921,9.7028,9.7421,9.7242,9.7028,9.7457,9.7528,9.7349,9.6564,9.61,9.5827,9.5768,9.5551,9.5595,9.6358,9.6271,9.6089,9.6089,9.6089,9.5982,9.5588,9.5516,9.5454,9.5216,9.5076,9.5374,9.6261,9.6551,9.6998,9.7786,9.8198,9.8183,9.7689,9.8032,9.798,9.7496,9.7301,9.7508,9.8093,9.7215,9.7122,9.7694,9.7407,9.7388,8.0705,8.1488,8.2271,8.3033,8.2179,8.1005,8.0443,7.8695,7.704,7.6614,7.7046,7.7356,7.6926,7.8804,8.0739,8.1613,8.2807,8.4692,8.7784,8.8803,9.0125,9.2442,9.305,9.3433,9.3809,9.4241,9.4379,9.409,9.483,9.5228,9.5053,9.6515,9.7638,9.8283,9.9008,9.9486,9.9661,9.9688,9.9863,10.018,10.0283,10.0421,10.0479,10.1283,10.1695,10.1898,10.1693,0.0,0.0,10.0417,9.9907,9.9835,9.9396,9.911,9.8967,9.8967,9.886,9.8682,9.8682,9.8682,9.8682,9.8682,9.8682,9.8575,9.7968,9.7742,9.7742,9.7742,9.7742,9.7897,9.8539,9.8218,9.7932,9.8539,9.8575,9.8254,9.7635,9.7349,9.7064,9.641,9.6303,9.6303,9.6303,9.6303,9.6303,9.6303,9.6303,9.6303,9.6303,9.6303,9.599,9.5123,9.4924,9.5313,9.635,9.6513,9.7083,9.8422,9.8599,9.8375,9.7756,9.8286,9.8333,9.7751,9.7939,9.8233,9.8613,9.8052,9.793,9.8118,9.816,9.8271,8.0705,8.1488,8.2271,8.3033,8.2577,8.1834,8.1229,7.9498,7.8031,7.8161,7.783,7.764,7.8135,7.9027,8.0359,8.2261,8.317,8.4912,8.8649,8.9694,9.092,9.3237,9.3528,9.3844,9.4632,9.4712,9.5015,9.5624,9.6432,9.6572,9.5848,9.7322,9.8213,9.8283,9.9008,9.9732,10.0504,9.9793,10.0087,10.1506,10.0887,10.09,10.1595,10.1193,10.1395,10.1999,10.038,0.0,0.0,10.0082,9.9907,9.9942,10.0597,10.0418,9.9776,9.9776,9.9312,9.8682,9.8682,9.8682,9.8682,9.8682,9.8682,9.8694,9.861,9.8575,9.8575,9.8575,9.8575,9.861,9.8682,9.8646,9.861,9.8682,9.8146,9.7599,9.7528,9.6921,9.6374,9.6303,9.6303,9.6303,9.6303,9.6303,9.6303,9.6303,9.6303,9.6303,9.6303,9.6303,9.6255,9.6159,9.5723,9.5578,9.5942,9.6986,9.8006,9.881,9.9923,10.05,10.039,10.0298,10.0298,10.039,9.9429,9.9346,10.031,9.8596,9.8248,9.9167,9.861,9.8509,8.0705,8.1793,8.2822,8.3127,8.2285,8.1288,8.1058,7.9521,7.8118,7.8207,7.8109,7.8128,7.8371,7.8944,7.9909,8.1521,8.2015,8.3272,8.6552,8.8053,8.9856,9.2618,9.3626,9.4464,9.5379,9.5742,9.6347,9.7274,9.7434,9.7653,9.8011,9.8621,9.9196,9.9666,10.039,10.089,10.129,10.089,10.1114,10.1711,10.1395,10.1395,10.1689,10.1184,10.14,10.2012,10.1097,0.0,0.0,10.1283,10.0992,10.1004,10.0987,10.0501,9.9907,9.9907,9.9384,9.8682,9.8682,9.8682,9.8682,9.8682,9.8682,9.8682,9.8682,9.8682,9.8682,9.8682,9.8682,9.8682,9.8682,9.8682,9.8575,9.8111,9.8111,9.8218,9.8218,9.7968,9.7754,9.7754,9.7754,9.7754,9.7754,9.7754,9.7754,9.7754,9.7754,9.7754,9.7754,9.7754,9.7575,9.7064,9.6396,9.6284,9.7037,9.7565,9.8294,9.9368,9.9929,10.0104,9.9726,10.0112,10.0195,10.0104,9.9979,10.0208,10.0907,9.9983,9.981,10.0212,9.9943,10.0011,8.0731,8.1918,8.2928,8.3127,8.2039,8.0905,8.0905,7.9434,7.8159,7.8301,7.8378,7.8419,7.854,7.9054,7.9846,8.1031,8.1757,8.3044,8.5604,8.7269,8.9212,9.1917,9.3297,9.4422,9.5453,9.6284,9.7161,9.8091,9.805,9.8504,9.9696,9.9745,9.9991,10.0579,10.1303,10.1711,10.1711,10.1711,10.1711,10.1711,10.1711,10.1711,10.1689,10.1399,10.1479,10.1998,10.15,0.0,0.0,10.1821,10.171,10.1713,10.1622,10.1103,10.0403,10.031,9.974,9.9039,9.8789,9.8682,9.8682,9.8682,9.8682,9.8682,9.8682,9.8682,9.8682,9.8682,9.8682,9.8682,9.8682,9.8682,9.8539,9.8004,9.8289,9.8682,9.8682,9.8682,9.8682,9.8682,9.8682,9.8682,9.8682,9.8682,9.8682,9.8682,9.8682,9.8658,9.8574,9.8634,9.8444,9.7813,9.7302,9.7206,9.7727,9.7844,9.8388,9.9523,9.965,9.9545,9.9236,9.979,9.9999,9.9854,10.0287,10.0685,10.1111,10.0918,10.0797,10.0797,10.0907,10.1101,8.0778,8.1661,8.2271,8.3033,8.2039,8.0905,8.0905,7.9434,7.8261,7.8791,7.8624,7.8508,7.8821,7.955,8.0361,8.1148,8.3011,8.4961,8.6735,8.8158,8.9652,9.1391,9.2567,9.361,9.4629,9.6025,9.7145,9.776,9.8243,9.9105,10.0504,10.0579,10.0614,10.0614,10.1303,10.1711,10.1711,10.1711,10.1711,10.1711,10.1711,10.1711,10.1711,10.1711,10.1711,10.1703,10.1197,0.0,0.0,10.1312,10.1393,10.149,10.2601,10.249,10.1685,10.12,10.0513,9.9764,9.8967,9.8682,9.8682,9.8682,9.8682,9.8682,9.8682,9.8682,9.8682,9.8682,9.8682,9.8682,9.8682,9.8682,9.8682,9.8682,9.8682,9.8682,9.8682,9.8682,9.8682,9.8682,9.8682,9.8682,9.8682,9.8682,9.8682,9.8682,9.8682,9.8586,9.8319,9.8561,9.8586,9.8319,9.8526,9.8361,9.7575,9.7752,9.825,9.9049,9.9283,9.9536,9.9797,9.9809,9.9985,10.0481,10.0492,10.06,10.0797,10.0797,10.0797,10.0797,10.1111,10.1291,7.9519,8.0852,8.2026,8.1723,8.0881,8.0154,8.0154,7.9366,7.868,7.8855,7.8816,7.8761,7.8876,7.9003,7.9673,8.1547,8.2396,8.3769,8.6425,8.7747,8.9226,9.135,9.4051,9.5681,9.5471,9.6987,9.8163,9.8604,9.9235,10.0091,10.1311,10.1408,10.1408,10.1408,10.1619,10.1711,10.1711,10.1711,10.1711,10.1711,10.1711,10.1711,10.1711,10.1198,10.1198,10.1689,10.0984,0.0,0.0,10.2011,10.2207,10.2188,10.2401,10.2007,10.1187,10.0489,9.974,9.9039,9.8789,9.8682,9.8682,9.8682,9.8682,9.8682,9.8682,9.8682,9.8682,9.8682,9.8682,9.8682,9.8682,9.8682,9.8682,9.8682,9.8682,9.8682,9.8682,9.8682,9.8682,9.8682,9.8682,9.8682,9.8682,9.8682,9.8622,9.8441,9.844,9.8319,9.8062,9.8099,9.8197,9.827,9.8391,9.8406,9.8349,9.8396,9.8622,9.9073,9.9283,9.9536,9.9786,9.999,10.0212,10.0518,10.0492,10.0685,10.1111,10.1111,10.111,10.1301,10.1409,10.1397,7.8775,8.0105,8.1291,8.0972,8.0365,7.9814,7.9814,7.9314,7.8895,7.8813,7.8864,7.8895,7.8813,7.8924,7.9638,8.1348,8.2131,8.3489,8.6298,8.7736,8.9435,9.2009,9.4384,9.5874,9.6049,9.7495,9.8715,9.9359,9.9881,10.0605,10.16,10.1602,10.1602,10.1711,10.1711,10.1711,10.1711,10.1711,10.1711,10.1711,10.1711,10.1711,10.1711,10.1198,10.1303,10.1711,10.1206,0.0,0.0,10.21,10.2295,10.2193,10.1892,10.1482,10.1001,10.0092,9.9513,9.911,9.8789,9.8682,9.8682,9.8682,9.8682,9.8682,9.8682,9.8682,9.8682,9.8682,9.8682,9.8682,9.8682,9.8682,9.8682,9.8682,9.8682,9.8682,9.8682,9.8682,9.8682,9.8682,9.8682,9.8682,9.8682,9.8598,9.8477,9.8343,9.8197,9.8037,9.7788,9.7838,9.7963,9.8111,9.8257,9.8428,9.867,9.8682,9.8789,9.8944,9.9061,9.9306,9.9639,9.9797,10.0105,10.0387,10.0485,10.0595,10.0918,10.1095,10.1291,10.1504,10.1504,10.1504,0.0,7.9329,8.0123,8.0569,8.02,7.9708,7.9708,7.9268,0.0,7.8626,7.8751,7.8834,7.8697,7.9287,8.0084,8.0916,8.232,8.411,8.6544,8.8264,9.0343,9.3157,9.3837,9.4692,9.6266,9.7554,9.8759,9.9908,10.0203,10.069,10.1602,10.1398,10.1419,10.1719,10.1684,10.1697,10.1711,10.1711,10.1711,10.1711,10.1711,10.1711,10.1711,10.1711,10.1711,0.0,0.0,0.0,0.0,10.1703,10.1703,10.1708,10.1201,10.1195,10.1193,9.9948,9.9639,9.9775,9.8943,9.867,9.8682,9.8682,9.8682,9.8682,9.8682,9.8682,9.8682,9.8682,9.8682,9.8682,9.8682,9.8682,9.8682,9.8682,9.8682,9.8682,9.8682,9.8682,9.8682,9.8682,9.8682,9.8682,9.8658,9.8453,9.8306,9.8269,9.8048,9.7786,9.7499,9.7688,9.7851,9.7886,9.8122,9.8368,9.8634,9.8682,9.8682,9.8682,9.8706,9.892,9.9375,9.9374,9.9627,10.0113,10.0413,10.0507,10.0492,10.0986,10.1297,10.15,10.15,10.151,7.5941,0.0,7.9086,7.8622,7.8699,7.8865,0.0,7.8767,7.8647,7.8595,7.8626,7.8823,7.9403,7.9673,8.0435,8.2355,8.3478,8.5128,8.8054,9.053,9.2368,9.325,9.4269,9.5059,9.5399,9.7173,9.8515,9.9079,9.985,10.0507,10.1011,10.1004,10.1102,10.1405,10.1419,10.1494,10.1711,10.1711,10.1711,10.1711,10.1711,10.1711,10.1711,10.1711,10.1711,0.0,0.0,0.0,10.1689,10.1905,10.1998,10.2003,10.1504,10.1293,10.1216,9.9734,9.9355,9.9459,9.8653,9.8513,9.8682,9.8682,9.8682,9.8682,9.8682,9.8682,9.8682,9.8682,9.8682,9.8682,9.8682,9.8682,9.8682,9.8682,9.8682,9.8682,9.8682,9.8682,9.8682,9.8682,9.8682,9.8622,9.8417,9.8319,9.8148,9.7738,9.7625,9.7521,9.724,9.7253,9.7381,9.7549,9.7826,9.8099,9.8356,9.8562,9.8682,9.8682,9.8896,9.905,9.9167,9.9318,9.9479,9.9582,9.9999,10.0308,10.0492,10.0817,10.0902,10.1002,10.1002,10.1095,7.4759,7.6534,7.8276,7.7751,7.8105,7.8585,7.8585,7.8585,7.8585,7.8585,7.8585,7.883,7.9638,7.9814,8.0551,8.2822,8.3864,8.5774,8.9635,9.1606,9.292,9.3708,9.4777,9.5582,9.5794,9.7511,9.8798,9.9268,9.9671,10.0186,10.0788,10.0703,10.09,10.1501,10.1515,10.1597,10.1711,10.1711,10.1711,10.1711,10.1711,10.1711,10.1711,10.1711,10.1711,0.0,0.0,0.0,10.1689,10.1886,10.1905,10.1896,10.1303,10.1117,10.1093,9.9856,9.9597,9.9741,9.9328,9.9123,9.9012,9.8789,9.8682,9.8753,9.9146,9.9241,9.9169,9.8789,9.8682,9.8682,9.8682,9.8682,9.8682,9.8682,9.8682,9.8682,9.8526,9.8501,9.8465,9.8356,9.8332,9.8283,9.8159,9.8,9.7967,9.8018,9.7618,9.742,9.7616,9.7638,9.7601,9.7496,9.8056,9.839,9.8294,9.8417,9.8562,9.8682,9.8849,9.8967,9.9073,9.9214,9.9306,9.941,9.9637,9.9896,10.0212,10.0406,10.0713,10.121,10.1281,10.1616,7.4389,7.5975,7.751,7.7312,7.7928,7.8585,7.8585,7.8585,7.8585,7.8585,7.869,7.9041,7.9803,8.0165,8.1032,8.3208,8.4534,8.6814,9.1052,9.208,9.288,9.4232,9.5126,9.5894,9.6496,9.7817,9.8909,9.9636,9.9416,9.968,10.0598,10.0414,10.0697,10.1581,10.1608,10.1705,10.1711,10.1711,10.1711,10.1711,10.1711,10.1711,10.1711,10.1711,10.1711,10.1711,0.0,0.0,10.1711,10.1711,10.1711,10.1606,10.0995,10.0791,10.0911,10.0219,9.9987,10.01,10.0186,9.9926,9.9525,9.9083,9.8942,9.9109,9.9738,9.9952,9.9846,9.9144,9.8907,9.886,9.8717,9.8658,9.8622,9.8622,9.8598,9.8501,9.827,9.8222,9.816,9.795,9.7913,9.7888,9.7861,9.7731,9.7861,9.8374,9.7781,9.7498,9.8038,9.8213,9.8129,9.7679,9.8559,9.9023,9.8561,9.8446,9.8533,9.8764,9.8669,9.8777,9.9015,9.9026,9.9144,9.9352,9.9364,9.949,9.9741,9.9896,10.0494,10.1382,10.1604,10.2197,7.4807,7.5755,7.6559,7.668,7.769,7.8585,7.8585,7.8585,7.8585,7.8585,7.9146,7.9838,8.06,8.1793,8.3208,8.4894,8.7582,9.0032,9.1618,9.2578,9.3446,9.43,9.4684,9.5157,9.5872,9.6715,9.7612,9.8637,9.8675,9.9031,9.9984,9.9984,10.0386,10.1315,10.1392,10.1501,10.1711,10.1711,10.1711,10.1711,10.1711,10.1711,10.1711,10.1711,10.1711,10.1711,0.0,10.1711,10.1711,10.1711,10.1711,10.1711,10.1606,10.1211,10.0592,10.0492,10.0207,9.9904,10.0122,10.0189,10.0098,9.9995,10.0088,10.0309,10.019,10.0301,10.0403,10.0106,9.9848,9.9562,9.8896,9.8513,9.8344,9.8344,9.8185,9.8025,9.7975,9.795,9.7961,9.7913,9.7913,9.7826,9.7587,9.8111,9.8242,9.7483,9.777,9.7919,9.7344,9.7897,9.8274,9.8208,9.9088,9.9644,9.9589,9.9206,9.899,9.904,9.8612,9.8465,9.8765,9.8777,9.8896,9.9132,9.9144,9.9261,9.9443,9.9477,9.9584,9.9773,10.0492,10.0979,7.4396,7.5379,7.6418,7.6921,7.7839,7.8585,7.8585,7.8585,7.8725,7.9146,7.9533,8.0184,8.1477,8.2529,8.402,8.6545,8.8726,9.058,9.1884,9.2884,9.3758,9.4457,9.534,9.6007,9.636,9.7056,9.7692,9.8184,9.8233,9.855,9.9308,9.9352,9.9704,10.0499,10.0906,10.1095,10.1184,10.1513,10.1711,10.1711,10.1711,10.1711,10.1711,10.1711,10.1711,10.1711,0.0,10.1711,10.1711,10.1711,10.1711,10.1711,10.1711,10.15,10.1219,10.1198,10.0984,10.0779,10.0702,10.0617,10.0607,10.029,10.0288,10.0387,10.0781,10.0891,10.1015,10.0888,10.0496,9.9975,9.9619,9.9119,9.8748,9.8748,9.8306,9.7863,9.7713,9.7675,9.7625,9.7521,9.7813,9.7951,9.7388,9.8277,9.8765,9.7862,9.8411,9.8762,9.8398,9.8656,9.8902,9.8902,9.9432,9.9813,9.9813,9.9364,9.8978,9.8702,9.8435,9.8404,9.8682,9.8682,9.8777,9.8884,9.8884,9.8944,9.9026,9.9585,10.0086,10.0517,10.1017,10.1793,7.4221,7.5274,7.6468,7.723,7.8012,7.869,7.9076,7.9006,7.9146,8.013,8.0481,8.1053,8.2588,8.3679,8.5228,8.79,8.9532,9.0844,9.2083,9.303,9.3857,9.462,9.5838,9.6699,9.6868,9.7563,9.7987,9.7987,9.7987,9.8261,9.8877,9.8922,9.9205,9.9869,10.0294,10.0689,10.0816,10.1288,10.161,10.1711,10.1711,10.1711,10.1711,10.1711,10.1711,10.1711,10.1711,10.1711,10.1711,10.1711,10.1711,10.1711,10.1711,10.1711,10.1711,10.15,10.1619,10.1598,10.1285,10.1188,10.1109,10.0684,10.0589,10.0685,10.1318,10.1485,10.1608,10.1494,10.1009,10.0492,10.0315,9.9595,9.9003,9.9003,9.8506,9.7945,9.7717,9.782,9.7884,9.7664,9.813,9.8318,9.7533,9.8643,9.931,9.8178,9.8797,9.9345,9.9148,9.9148,9.9288,9.964,9.9859,9.9991,9.9991,9.9721,9.9292,9.8689,9.86,9.8618,9.8706,9.8682,9.8789,9.8967,9.8967,9.9074,9.9253,9.9826,10.0482,10.1281,10.1306,10.2191,7.4827,7.567,7.6468,7.723,7.8012,7.8971,8.0424,8.0189,8.013,8.165,8.2471,8.3221,8.41,8.6218,8.8061,8.865,9.0612,9.2117,9.2348,9.3093,9.3857,9.462,9.5398,9.6157,9.6834,9.7563,9.7987,9.7987,9.7987,9.8261,9.8877,9.8922,9.9205,9.9869,9.9927,10.0214,10.0816,10.0809,10.108,10.1711,10.1711,10.1711,10.1711,10.1711,10.1711,10.1711,10.1711,10.1711,10.1711,10.1711,10.1711,10.1711,10.1711,10.1711,10.1606,10.089,10.1101,10.1711,10.1703,10.1598,10.1598,10.1589,10.1777,10.1902,10.1705,10.1896,10.2008,10.1692,10.1589,10.1394,10.0412,9.949,9.8746,9.8746,9.8495,9.8265,9.8252,9.8801,9.9267,9.9253,9.9275,9.9078,9.8354,9.9499,9.9767,9.752,9.8433,9.9148,9.8459,9.8389,9.8915,10.0403,10.0495,10.0495,10.0495,10.0678,10.0509,9.9724,9.9514,9.92,9.8706,9.8682,9.9039,9.9812,9.98,10.0204,10.0799,10.0216,10.0288,10.1002,10.0312,10.0908,7.4326,7.565,7.7054,7.7325,7.8739,8.0049,8.0189,8.0726,8.1675,8.3208,8.3477,8.3856,8.5244,8.6557,8.787,8.9259,9.0683,9.18,9.2334,9.3876,9.5075,9.5364,9.6447,9.7292,9.7563,9.7834,9.7987,9.7987,9.7987,9.8111,9.8322,9.8337,9.8459,9.8701,9.9071,9.9382,9.9616,9.9993,10.0392,10.0584,10.0997,10.0886,10.0598,10.0997,10.1115,10.1191,10.1513,10.1711,10.1711,10.1711,10.1711,10.1711,10.1711,10.1711,10.1689,10.1395,10.15,10.1711,10.1711,10.1711,10.1711,10.1711,10.1792,10.1811,10.1703,10.1792,10.1811,10.1703,10.1711,10.1611,10.1179,10.011,9.9257,9.975,9.8687,9.7709,9.8178,9.8529,9.874,9.874,9.9499,9.9907,9.9113,9.9885,10.0096,9.8749,9.9029,9.931,9.9008,9.8972,9.9407,10.0509,10.0587,10.0514,10.0088,10.0206,9.9997,9.9387,9.9447,9.9398,9.92,9.8883,9.8825,9.9146,9.9633,10.0014,10.0299,10.0989,10.1489,10.1691,10.1489,10.1917,7.4361,7.5825,7.7465,7.7721,7.9371,8.0916,8.0891,8.1874,8.3269,8.4888,8.5181,8.5452,8.6484,8.7314,8.8232,8.9457,9.0782,9.1798,9.2339,9.3977,9.5278,9.5736,9.6683,9.7495,9.7953,9.7987,9.7987,9.7987,9.7987,9.7987,9.7987,9.7987,9.7987,9.7987,9.8398,9.8757,9.9056,9.9396,9.9651,9.9738,10.0105,10.01,9.9912,10.0314,10.059,10.0703,10.1087,10.1315,10.1315,10.1398,10.1384,10.1315,10.1398,10.139,10.1418,10.1608,10.1711,10.1711,10.1711,10.1711,10.1711,10.1711,10.1711,10.1711,10.1711,10.1711,10.1711,10.1711,10.1711,10.1711,10.1711,10.0587,9.9591,10.0399,9.917,9.8047,9.8845,9.9196,9.9372,9.9372,10.0201,10.0693,9.992,10.039,10.0495,9.9253,9.9464,9.9675,9.9429,9.9381,9.971,10.0495,10.0798,10.0689,10.0079,10.0312,10.0279,9.973,9.9789,9.974,9.9502,9.8916,9.874,9.9074,9.9847,10.0418,10.0585,10.1703,10.231,10.2608,10.2108,10.2381,7.5073,7.6222,7.7581,7.8374,7.9768,8.1326,8.2846,8.3818,8.4899,8.6655,8.7807,8.8343,8.7801,8.889,8.9703,8.9218,9.0966,9.2406,9.2406,9.3098,9.4161,9.5635,9.5804,9.6379,9.7852,9.7987,9.7987,9.7987,9.7987,9.7987,9.7987,9.7987,9.7987,9.7987,9.7987,9.8462,9.9387,9.9056,9.9056,9.9387,9.9056,9.9234,9.9869,9.9883,10.0008,10.0308,10.0308,10.0308,10.0302,10.0703,10.0612,10.0302,10.0703,10.0802,10.0886,10.1494,10.1697,10.1697,10.1697,10.1711,10.1711,10.1711,10.1711,10.1711,10.1711,10.1711,10.1711,10.1711,10.1711,10.1711,10.1711,10.0587,9.9591,10.0399,9.9977,9.9604,10.039,10.1198,10.1711,10.1711,10.1711,10.1514,10.0706,10.1198,10.0903,9.867,9.9631,10.0285,9.9499,9.9416,9.9732,10.0504,10.129,10.1395,10.0693,10.1509,10.1787,10.0999,10.0691,10.0284,9.9538,9.8733,9.8832,9.9907,10.0585,10.1405,10.2203,10.2203,10.2595,10.3405,10.181,10.1917,7.4466,7.5825,7.7465,7.7686,8.0143,8.2688,8.3343,8.4519,8.5827,8.7207,8.8146,8.8567,8.8008,8.8692,8.9621,9.0487,9.183,9.2885,9.3209,9.4082,9.494,9.5699,9.5804,9.6379,9.7852,9.7529,9.7428,9.7953,9.7987,9.7987,9.7987,9.7987,9.7987,9.7987,9.7987,9.8249,9.8746,9.8428,9.8428,9.8746,9.8413,9.8352,9.8565,9.8997,9.9249,9.9347,10.0002,10.0308,10.0288,10.0408,10.0394,10.0308,10.0214,10.0192,10.0186,10.0406,10.0697,10.1095,10.1095,10.1287,10.1711,10.1711,10.1711,10.1711,10.1711,10.1711,10.1711,10.1711,10.1711,10.1711,10.1711,10.1009,10.0399,10.1219,10.0412,9.964,10.0399,10.0812,10.0917,10.089,10.1311,10.1606,10.1395,10.1101,10.0903,10.0693,10.0215,9.985,10.0179,10.0188,10.0504,10.129,10.0623,9.9977,9.9767,9.9543,9.9561,9.9864,9.9993,10.0414,10.1101,10.0007,9.9834,10.0704,10.1405,10.1989,10.2203,10.2786,10.3179,10.3393,10.2881,10.2881,7.4958,7.6141,7.7669,7.8707,8.0693,8.2855,8.4411,8.5703,8.7012,8.8307,8.8776,8.8892,8.8871,8.9478,9.027,9.115,9.2358,9.3162,9.3127,9.3917,9.4707,9.5278,9.5601,9.6244,9.7461,9.7443,9.7529,9.7969,9.7987,9.7987,9.7987,9.7987,9.7987,9.7987,9.7987,9.8218,9.869,9.8371,9.8371,9.869,9.8356,9.8126,9.8003,9.8383,9.8641,9.8757,9.9504,9.9869,9.997,9.9854,9.9796,9.9796,9.9723,9.9621,9.9548,9.9796,10.0114,10.0379,10.0379,10.0717,10.099,10.099,10.099,10.099,10.099,10.1191,10.1308,10.1308,10.1486,10.1711,10.1711,10.1395,10.1101,10.1606,10.0798,10.0083,10.0903,10.1009,10.1009,10.0995,10.1395,10.1719,10.1597,10.1292,10.099,10.1106,10.0402,10.0201,10.0903,10.1009,10.1206,10.1689,10.0903,10.0201,9.9907,9.9745,9.9763,9.9996,10.0215,10.0907,10.2203,10.0885,10.0415,10.1013,10.181,10.2203,10.2203,10.3,10.3393,10.3393,10.3393,10.3393,7.6061,7.6817,7.8038,8.0618,8.1423,8.2475,8.584,8.713,8.8038,8.9506,8.9448,8.9323,9.0053,9.0797,9.1305,9.1372,9.2653,9.3378,9.2609,9.3161,9.392,9.462,9.5296,9.6007,9.6834,9.7495,9.7935,9.7987,9.7987,9.7987,9.7987,9.7987,9.7987,9.7987,9.7987,9.8295,9.895,9.8644,9.8644,9.895,9.8644,9.8325,9.7987,9.7987,9.8187,9.8523,9.881,9.9159,9.947,9.9114,9.898,9.9024,9.9179,9.9071,9.8892,9.9504,9.9753,9.9811,9.9811,9.984,9.9898,9.9898,9.9898,9.9898,9.9898,10.03,10.0816,10.0816,10.1212,10.1697,10.1608,10.1719,10.1697,10.1608,10.1095,10.089,10.1619,10.1711,10.1711,10.1711,10.1711,10.1595,10.1405,10.1507,10.1295,10.042,10.0505,10.089,10.1606,10.1697,10.1719,10.1719,10.16,10.1284,10.0604,10.1192,10.1397,10.0981,10.1008,10.1587,10.2898,10.1505,10.0908,10.1191,10.1905,10.231,10.231,10.2988,10.3393,10.3393,10.3393,10.3393,7.5946,7.6733,7.8021,8.0396,8.2337,8.432,8.686,8.7259,8.7491,8.8962,8.917,8.9323,9.0053,9.0797,9.1474,9.2068,9.3166,9.3782,9.3412,9.369,9.4121,9.4635,9.4842,9.5466,9.6766,9.7037,9.7375,9.7969,9.7987,9.7987,9.7987,9.7987,9.7987,9.7987,9.7987,9.8203,9.8599,9.8538,9.8538,9.8599,9.8538,9.8325,9.7987,9.7987,9.8187,9.8508,9.8569,9.8965,9.9455,9.884,9.875,9.895,9.8478,9.8264,9.8199,9.8371,9.8716,9.913,9.913,9.944,9.9898,9.9898,9.9898,9.9898,9.9898,10.03,10.0816,10.0816,10.1212,10.1602,10.1087,10.1287,10.1602,10.1087,10.1195,10.15,10.1689,10.1711,10.1711,10.1711,10.1711,10.1697,10.1595,10.148,10.1308,10.1078,10.1311,10.15,10.1711,10.1507,10.1405,10.1405,10.0811,10.0391,10.0216,10.0594,10.0812,10.0703,10.1408,10.1981,10.229,10.1786,10.2012,10.2893,10.3107,10.3095,10.3095,10.3286,10.3393,10.3393,10.3393,10.3393,7.6262,7.6967,7.8114,8.0761,8.2934,8.4948,8.6886,8.7111,8.7313,8.8781,8.939,8.9748,9.0121,9.1087,9.1933,9.2339,9.3195,9.3762,9.3615,9.3718,9.4033,9.4635,9.5026,9.5669,9.68,9.7206,9.7597,9.7969,9.7987,9.7987,9.7987,9.7987,9.7987,9.7987,9.7987,9.8157,9.8508,9.8644,9.8644,9.8508,9.8659,9.8478,9.7987,9.7987,9.8095,9.8279,9.8432,9.8705,9.899,9.881,9.8735,9.872,9.8371,9.8141,9.7987,9.7987,9.8184,9.8474,9.8474,9.8701,9.8986,9.8986,9.8986,9.8986,9.8986,9.9416,9.9878,9.9878,10.0288,10.0802,10.0491,10.0598,10.0802,10.0394,10.1081,10.1711,10.1711,10.1711,10.1705,10.1486,10.1616,10.1581,10.1294,10.1288,10.1309,10.1309,10.1486,10.1705,10.1486,10.1494,10.1494,10.1494,10.1095,10.0898,10.0898,10.0985,10.1101,10.1101,10.1685,10.2105,10.2105,10.2207,10.2484,10.3191,10.3204,10.3204,10.3204,10.3112,10.3112,10.3191,10.3583,10.3611,7.6405,7.7337,7.8569,8.1368,8.3248,8.4864,8.6521,8.6893,8.7313,8.8781,8.9579,9.0073,9.0343,9.1392,9.2305,9.2575,9.3165,9.3586,9.3586,9.3721,9.3958,9.4451,9.5263,9.5988,9.6462,9.7292,9.78,9.78,9.7935,9.7987,9.7987,9.7987,9.7987,9.7987,9.7987,9.8126,9.8417,9.8769,9.8765,9.8508,9.8765,9.8569,9.7987,9.7987,9.7987,9.8018,9.8295,9.8447,9.8523,9.8754,9.869,9.8493,9.8447,9.8279,9.808,9.8018,9.8034,9.808,9.8018,9.7987,9.7987,9.7987,9.7987,9.7987,9.7987,9.8428,9.8922,9.8922,9.9367,9.9869,9.9767,9.9811,9.9869,9.9753,10.0598,10.1404,10.1499,10.1513,10.1507,10.1315,10.1515,10.1494,10.0983,10.1199,10.1315,10.1205,10.1494,10.1602,10.1315,10.1494,10.1595,10.1595,10.1595,10.1595,10.1595,10.1684,10.1711,10.1711,10.1905,10.199,10.199,10.2303,10.2591,10.2911,10.2911,10.2985,10.2987,10.2704,10.2691,10.2911,10.3708,10.3778,7.5481,7.7489,7.9968,8.186,8.2988,8.4234,8.6386,8.6893,8.7313,8.8781,8.9187,8.9627,9.0899,9.1305,9.188,9.3214,9.3518,9.3586,9.3586,9.4146,9.4349,9.3823,9.4958,9.5601,9.506,9.6244,9.7037,9.7037,9.7631,9.7987,9.7987,9.7987,9.7987,9.7987,9.7987,9.8018,9.8064,9.8401,9.8538,9.8508,9.8553,9.8371,9.7987,9.7987,9.7987,9.7987,9.8049,9.8233,9.8493,9.8233,9.8279,9.8478,9.8172,9.8218,9.8401,9.8111,9.8187,9.8401,9.8095,9.7987,9.7987,9.7987,9.7987,9.7987,9.7987,9.8428,9.8922,9.8922,9.9367,9.9767,9.919,9.9455,9.9753,9.9175,9.9587,10.0286,10.0795,10.0893,10.0997,10.1317,10.1302,10.1302,10.1184,10.1501,10.148,10.0907,10.1308,10.1602,10.1315,10.1302,10.1413,10.1413,10.1413,10.1413,10.1413,10.161,10.1711,10.1711,10.1703,10.1814,10.1814,10.2012,10.229,10.2578,10.271,10.2791,10.2987,10.2704,10.2587,10.271,10.2979,10.3107,7.6229,7.8495,8.0789,8.2097,8.2949,8.4099,8.6386,8.6893,8.7313,8.8781,8.9086,8.9424,9.0493,9.1372,9.2136,9.2827,9.3315,9.3586,9.3586,9.389,9.4112,9.4214,9.4789,9.5229,9.5296,9.6293,9.6902,9.6902,9.7563,9.7987,9.7987,9.7987,9.7987,9.7987,9.7987,9.7987,9.7987,9.834,9.8508,9.8508,9.831,9.8141,9.7987,9.7987,9.7987,9.7987,9.7987,9.808,9.8218,9.8064,9.808,9.8203,9.8049,9.808,9.8203,9.8049,9.8095,9.8203,9.8049,9.7987,9.7987,9.7987,9.7987,9.7987,9.7987,9.8203,9.8398,9.8398,9.861,9.8761,9.8474,9.861,9.8746,9.8474,9.861,9.9105,10.0085,10.059,10.0907,10.139,10.1384,10.128,10.1494,10.1581,10.161,10.1101,10.1302,10.1411,10.1288,10.1309,10.1378,10.1507,10.1521,10.1521,10.1521,10.1595,10.1711,10.1711,10.1789,10.1886,10.1711,10.1993,10.2206,10.229,10.2496,10.271,10.2791,10.2518,10.229,10.2303,10.31,10.3195,7.6587,7.8508,8.0141,8.1521,8.2543,8.3828,8.6095,8.6771,8.7313,8.8781,8.9086,8.939,9.0324,9.1464,9.2252,9.2252,9.3079,9.3636,9.3466,9.3698,9.4011,9.4383,9.4571,9.4857,9.521,9.609,9.6631,9.6631,9.7495,9.7987,9.7987,9.7987,9.7987,9.7987,9.7987,9.8034,9.8126,9.8462,9.8538,9.8371,9.8203,9.8126,9.8126,9.8126,9.8126,9.8126,9.8034,9.7987,9.7987,9.7987,9.7987,9.7987,9.7987,9.8049,9.8111,9.8034,9.8049,9.8111,9.8018,9.7987,9.7987,9.7987,9.7987,9.7987,9.7987,9.7987,9.7987,9.7987,9.7987,9.7987,9.7987,9.7987,9.8055,9.824,9.8138,9.8356,9.9621,10.0379,10.1116,10.1897,10.1795,10.1707,10.2183,10.2097,10.1883,10.1595,10.1483,10.1294,10.1213,10.1288,10.1488,10.1589,10.1705,10.1711,10.1711,10.1711,10.1711,10.1711,10.1913,10.1905,10.1689,10.1878,10.199,10.2105,10.2316,10.2505,10.2505,10.218,10.1998,10.1998,10.2904,10.3106,7.5594,7.641,7.7241,7.9678,8.1393,8.3037,8.533,8.6399,8.7313,8.8781,8.9086,8.9526,9.0981,9.1548,9.1815,9.1815,9.3024,9.3738,9.3044,9.3917,9.4417,9.3755,9.4282,9.4451,9.3789,9.5007,9.5838,9.5838,9.7191,9.7987,9.7987,9.7987,9.7987,9.7987,9.7987,9.8141,9.8478,9.8829,9.8629,9.8018,9.8325,9.8478,9.8478,9.8478,9.8478,9.8462,9.8141,9.7987,9.7987,9.7987,9.7987,9.7987,9.7987,9.8187,9.8432,9.8111,9.8203,9.8432,9.8111,9.7987,9.7987,9.7987,9.7987,9.7987,9.7987,9.7987,9.7987,9.7987,9.7987,9.7987,9.7987,9.7987,9.8172,9.8882,9.851,9.8356,9.9621,10.0598,10.1588,10.2591,10.2587,10.2686,10.3706,10.3291,10.269,10.2386,10.1998,10.1494,10.0914,10.1308,10.1589,10.1315,10.1499,10.1711,10.1711,10.1711,10.1711,10.1711,10.1689,10.1689,10.1711,10.1689,10.1789,10.2105,10.2118,10.2083,10.2083,10.1886,10.1703,10.1703,10.1985,10.259,7.4605,7.5761,7.7336,7.9065,8.0615,8.2272,8.4539,8.5621,8.6602,8.8105,8.8409,8.8714,8.9695,9.0355,9.1239,9.2711,9.2953,9.3055,9.3307,9.3712,9.389,9.362,9.3823,9.389,9.362,9.4939,9.5804,9.5804,9.7157,9.7987,9.7987,9.7987,9.7987,9.7987,9.7987,9.8157,9.8508,9.8401,9.834,9.8325,9.8218,9.8295,9.8508,9.8508,9.8508,9.8493,9.8371,9.8203,9.7987,9.7987,9.7987,9.7987,9.7987,9.8064,9.8157,9.8034,9.808,9.8157,9.8034,9.7987,9.7987,9.7987,9.7987,9.7987,9.7987,9.7987,9.7987,9.7987,9.7987,9.7987,9.7987,9.7987,9.8206,9.8916,9.9242,9.9466,9.9933,10.0898,10.2002,10.2902,10.3211,10.3518,10.3909,10.3796,10.3579,10.3385,10.2602,10.1883,10.1792,10.1318,10.1004,10.1282,10.1191,10.1302,10.1684,10.1499,10.1507,10.1697,10.1711,10.1711,10.1711,10.1711,10.1716,10.1789,10.1789,10.1918,10.2105,10.1998,10.19,10.1711,10.2007,10.2188,7.389,7.5282,7.7138,7.841,7.9837,8.1507,8.3714,8.4843,8.5824,8.7313,8.782,8.824,8.8951,8.9492,9.0352,9.1942,9.2431,9.2682,9.2968,9.3355,9.3586,9.3586,9.3586,9.3586,9.3586,9.4721,9.5432,9.5432,9.6582,9.7258,9.7258,9.7258,9.736,9.7631,9.7975,9.8218,9.834,9.8218,9.8218,9.8325,9.8111,9.8172,9.8508,9.8508,9.8508,9.8508,9.8508,9.831,9.7987,9.7987,9.7987,9.7987,9.7987,9.7987,9.7987,9.7987,9.7987,9.7987,9.7987,9.7987,9.7987,9.7987,9.7987,9.7987,9.7987,9.7987,9.7987,9.7987,9.7987,9.807,9.8307,9.8747,9.9119,9.9119,9.9834,10.0498,10.0211,10.0894,10.1902,10.2587,10.3192,10.3714,10.4387,10.3806,10.3609,10.4295,10.3085,10.2288,10.27,10.1799,10.1198,10.1603,10.1088,10.099,10.1486,10.1384,10.1497,10.1899,10.1994,10.2097,10.2097,10.2097,10.1992,10.1711,10.1711,10.1805,10.2007,10.2007,10.19,10.1711,10.1913,10.19,0.0,0.0,0.0,7.7643,7.9071,8.075,8.2915,8.3984,8.4952,8.6521,8.7414,8.8158,8.8951,8.9086,8.917,8.9434,9.1373,9.2591,9.1897,9.2827,9.3586,9.3586,9.3586,9.3586,9.3586,9.4282,9.4706,9.4706,9.5398,9.5804,9.5804,9.5804,9.6191,9.6902,9.7952,9.834,9.8018,9.8325,9.8325,9.8003,9.8003,9.8172,9.8508,9.8508,9.8508,9.8508,9.8508,9.831,9.7987,9.7987,9.7987,9.7987,9.7987,9.7987,9.7987,9.7987,9.7987,9.7987,9.7987,9.7987,9.7987,9.7987,9.7987,9.7987,9.7987,9.8021,9.8021,9.8021,9.8055,9.824,9.895,10.0202,10.0996,9.9525,10.0319,10.1199,10.0389,10.0615,10.1204,10.1992,10.2396,10.3202,10.5107,10.3495,10.2804,10.4899,10.3596,10.27,10.3512,10.2889,10.24,10.24,10.1388,10.0914,10.1282,10.1295,10.161,10.2393,10.2691,10.2905,10.2891,10.2891,10.2505,10.1795,10.1697,10.1711,10.1711,10.1711,10.1711,10.1711,10.1711,10.1711,7.2903,0.0,0.0,0.0,0.0,0.0,8.0851,8.1663,8.2949,8.5567,8.579,8.625,8.8646,8.8646,8.8491,8.9116,9.018,9.1264,9.2097,9.2532,9.2962,9.3518,9.3586,9.3586,9.3586,9.4282,9.4706,9.4706,9.5872,9.636,9.5838,9.6326,9.6935,9.7664,9.7994,9.8218,9.8371,9.8218,9.8218,9.8371,9.8111,9.8172,9.8508,9.8508,9.8508,9.8508,9.8508,9.831,9.7987,9.7987,9.7987,9.7987,9.7987,9.7987,9.7987,9.7987,9.7987,9.7987,9.7987,9.7987,9.7987,9.7987,9.7987,9.7987,9.7987,9.8375,9.8781,9.8781,9.9171,9.9645,9.9848,10.0186,10.0608,10.0709,10.1097,10.1284,10.1081,10.1179,10.1604,10.2817,10.3092,10.3378,10.4485,10.4203,10.4011,10.4909,10.4095,10.3603,10.3993,10.2687,10.1795,10.2091,10.0908,10.0685,10.2009,10.1883,10.2302,10.3504,10.3095,10.3102,10.3691,10.3186,10.2799,10.2589,10.2589,10.2308,10.1711,10.1711,10.1711,10.1711,10.1711,10.1992,0.0,0.0,0.0,7.7096,0.0,0.0,8.075,8.1202,8.2048,8.4742,8.5168,8.5655,8.7394,8.7617,8.7786,8.8511,8.9004,8.9816,9.129,9.2,9.2575,9.303,9.3417,9.3586,9.3586,9.3977,9.4248,9.4248,9.5041,9.5481,9.5364,9.6056,9.68,9.7529,9.7834,9.8095,9.8295,9.8095,9.8095,9.8295,9.8095,9.8095,9.8295,9.8295,9.8295,9.8295,9.8295,9.8172,9.7987,9.7987,9.7987,9.7987,9.7987,9.7987,9.7987,9.7987,9.7987,9.7987,9.7987,9.7987,9.7987,9.7987,9.8206,9.8409,9.8104,9.851,9.9085,9.9085,9.9863,10.0709,10.0709,10.0896,10.1201,10.1402,10.1589,10.1808,10.1519,10.1402,10.1615,10.2384,10.2597,10.3013,10.3803,10.349,10.3401,10.4509,10.3911,10.3704,10.441,10.3199,10.2407,10.2889,10.1691,10.1405,10.2594,10.2495,10.3006,10.4205,10.3994,10.4112,10.4498,10.4098,10.3621,10.2891,10.2905,10.2518,10.1711,10.1978,10.2202,10.2202,10.19,10.2005,0.0,0.0,0.0,0.0,7.8551,0.0,8.1359,8.1596,8.1879,8.395,8.4911,8.5466,8.5635,8.6196,8.6893,8.7617,8.7888,8.8497,8.987,9.129,9.2155,9.2155,9.2861,9.3383,9.3451,9.3484,9.3484,9.3586,9.3586,9.3958,9.4774,9.5364,9.6007,9.6732,9.7495,9.7867,9.7867,9.7969,9.7987,9.7987,9.7987,9.7987,9.7987,9.7987,9.7987,9.7987,9.7987,9.7987,9.7987,9.7987,9.7987,9.7987,9.7987,9.7987,9.7987,9.7987,9.8055,9.8104,9.8021,9.8104,9.8224,9.8172,9.8612,9.9085,9.8341,9.8645,9.9221,9.9338,10.0285,10.13,10.1503,10.1893,10.2181,10.1722,10.1995,10.2283,10.1706,10.1503,10.1503,10.1503,10.1608,10.2112,10.3108,10.2215,10.2021,10.3986,10.3486,10.3291,10.4599,10.3916,10.3511,10.4086,10.2909,10.2421,10.3096,10.3203,10.3708,10.4798,10.5117,10.5187,10.5292,10.5187,10.4604,10.3186,10.308,10.2694,10.2097,10.2505,10.2799,10.268,10.1978,10.1711,0.0,0.0,0.0,0.0,0.0,0.0,7.9003,8.012,8.1575,8.2631,8.2936,8.3409,8.4627,8.4965,8.5303,8.6108,8.7225,8.8294,8.9187,9.0087,9.0614,9.0614,9.1305,9.1981,9.2575,9.2643,9.2895,9.3552,9.3586,9.4195,9.5499,9.5161,9.5263,9.5988,9.6732,9.7105,9.7105,9.7698,9.7987,9.7987,9.7987,9.7987,9.7987,9.7987,9.7987,9.7987,9.7987,9.7987,9.7987,9.7987,9.7987,9.7987,9.7987,9.7987,9.7987,9.7987,9.8375,9.8815,9.8206,9.8765,9.9678,9.9085,9.939,9.9848,9.9119,9.939,10.0084,10.0793,10.0709,10.0693,10.1995,10.2011,10.169,10.2198,10.2401,10.2502,10.2299,10.2299,10.2299,10.2299,10.1806,10.17,10.251,10.2408,10.25,10.3218,10.3283,10.3495,10.3982,10.3398,10.2882,10.3102,10.2117,10.1997,10.3491,10.3717,10.4281,10.5909,10.551,10.5503,10.6085,10.5503,10.5095,10.4814,10.4098,10.3993,10.4485,10.2799,10.1908,10.1908,10.1781,10.1711,0.0,0.0,0.0,7.8991,0.0,0.0,0.0,8.0492,8.1156,8.2644,8.2665,8.2733,8.3849,8.3748,8.3883,8.5012,8.5811,8.6569,8.736,8.8714,8.9512,8.914,9.0087,9.0899,9.1256,9.1628,9.2184,9.2928,9.2996,9.3673,9.5161,9.5263,9.5601,9.6326,9.6699,9.7071,9.7428,9.7428,9.7631,9.7987,9.7987,9.7987,9.7987,9.7987,9.7987,9.7987,9.7987,9.7987,9.7987,9.7987,9.7987,9.7987,9.7987,9.7987,9.8037,9.8409,9.8544,9.8544,9.8544,9.8781,9.9103,9.9085,9.9356,9.9593,9.9221,9.9627,10.0287,10.0709,10.1115,10.1505,10.2283,10.2181,10.1978,10.2384,10.2486,10.2486,10.2486,10.2486,10.2486,10.2486,10.2198,10.2112,10.2384,10.2486,10.26,10.2693,10.2903,10.3107,10.3404,10.3094,10.3001,10.3087,10.269,10.2806,10.3804,10.3815,10.4407,10.5796,10.5216,10.5282,10.6303,10.5711,10.5311,10.5187,10.4393,10.4218,10.459,10.3396,10.3094,10.3396,10.301,10.2799,0.0,0.0,0.0,0.0,0.0,8.0095,0.0,0.0,0.0,8.2543,8.2509,8.234,8.278,8.2475,8.253,8.3578,8.4106,8.4525,8.489,8.6717,8.7902,8.7617,8.8767,8.9681,8.9951,9.0662,9.1406,9.2136,9.2203,9.2778,9.4165,9.4958,9.5717,9.6462,9.6496,9.6819,9.7548,9.7138,9.7138,9.7597,9.7852,9.7935,9.78,9.7935,9.7987,9.7987,9.7987,9.7987,9.7987,9.7987,9.7987,9.7987,9.7987,9.8104,9.8273,9.8882,9.8916,9.8713,9.8984,9.8916,9.8713,9.8984,9.9085,9.9119,9.9254,9.9611,10.01,10.0305,10.1302,10.2283,10.2502,10.2486,10.2486,10.2486,10.2486,10.2486,10.2486,10.2486,10.2486,10.2486,10.2486,10.2486,10.2486,10.2486,10.2486,10.2486,10.2486,10.2599,10.2905,10.2903,10.3015,10.3284,10.3315,10.3404,10.379,10.3786,10.4219,10.5104,10.4807,10.5095,10.6118,10.5802,10.5482,10.5383,10.4801,10.4414,10.4414,10.4414,10.459,10.499,10.4323,10.4007,0.0,0.0,0.0,0.0,8.0703,0.0,0.0,0.0,8.1866,8.0784,0.0,8.1236,8.0682,0.0,0.0,8.0784,8.234,8.3186,8.1981,8.3165,8.462,8.5905,8.6771,8.7786,8.9086,8.9884,9.0628,9.1372,9.1406,9.1778,9.2609,9.3402,9.4195,9.4924,9.4943,9.5296,9.6041,9.6631,9.6597,9.6074,9.7394,9.7664,9.7037,9.7698,9.7987,9.7987,9.7987,9.7987,9.7987,9.7987,9.7987,9.7987,9.7987,9.8409,9.8984,9.9067,9.9913,10.0777,9.9541,9.9947,10.0793,9.9525,9.9085,9.9221,9.9881,9.9678,9.9491,10.0894,10.1402,10.1706,10.2283,10.2486,10.2486,10.2486,10.2486,10.2486,10.2486,10.2486,10.2486,10.2486,10.2486,10.2486,10.2486,10.2486,10.2486,10.2486,10.2486,10.2502,10.2584,10.26,10.26,10.2599,10.2599,10.2803,10.3383,10.3495,10.379,10.4512,10.5021,10.5395,10.5491,10.5989,10.619,10.6191,10.6085,10.6001,10.6001,10.6001,10.5397,10.4098,10.3993,10.4007,0.0,0.0,0.0,0.0,0.0,0.0,0.0,0.0,8.1088,0.0,0.0,0.0,0.0,0.0,0.0,0.0,8.0987,8.1359,8.0763,8.1575,8.2793,8.4281,8.4742,8.5689,8.7617,8.8091,8.897,9.0527,9.027,9.0729,9.229,9.3165,9.3943,9.4673,9.4706,9.506,9.5804,9.5669,9.592,9.6462,9.7071,9.7428,9.7529,9.7867,9.7987,9.7987,9.7987,9.7987,9.7987,9.7987,9.7987,9.7987,9.7987,9.8442,9.9153,9.9593,10.0118,10.0592,9.9965,9.9897,9.9981,9.9288,9.939,9.978,10.0118,10.0287,10.059,10.1199,10.169,10.2096,10.2384,10.2486,10.2486,10.2486,10.2486,10.2486,10.2486,10.2486,10.2486,10.2486,10.2486,10.2486,10.2486,10.2486,10.2486,10.2486,10.2486,10.2486,10.2486,10.2486,10.2486,10.2486,10.2486,10.2615,10.2919,10.2901,10.3103,10.3805,10.4412,10.4807,10.4807,10.5398,10.5891,10.6282,10.6282,10.6282,10.6282,10.6282,10.598,10.5313,10.5313,10.5313,8.1676,0.0,0.0,0.0,0.0,0.0,0.0,0.0,0.0,0.0,0.0,0.0,0.0,0.0,0.0,0.0,0.0,8.0006,7.9363,7.9951,8.1033,8.2691,8.3253,8.4302,8.6399,8.623,8.6974,8.9396,8.8903,8.9545,9.1967,9.2827,9.3706,9.4673,9.4503,9.4755,9.5499,9.5161,9.5432,9.6293,9.6699,9.7172,9.7698,9.7698,9.78,9.7987,9.7987,9.7987,9.7987,9.7987,9.7987,9.8021,9.824,9.8612,9.9153,9.9678,10.0001,10.0186,9.9983,9.9424,9.8815,9.9018,9.9457,9.9983,10.0389,10.0912,10.1386,10.1589,10.2096,10.2486,10.2486,10.2486,10.2486,10.2486,10.2486,10.2486,10.2486,10.2486,10.2486,10.2486,10.2486,10.2486,10.2486,10.2486,10.2486,10.2486,10.2486,10.2486,10.2486,10.2486,10.2486,10.2486,10.2486,10.2486,10.2486,10.2486,10.2807,10.3385,10.3882,10.4185,10.4401,10.4902,10.5296,10.5796,10.6004,10.6089,10.6089,10.6211,10.6282,10.6282,10.6282,10.6282,0.0,0.0,0.0,8.1879,0.0,0.0,0.0,0.0,8.1067,0.0,0.0,0.0,0.0,0.0,0.0,0.0,0.0,0.0,0.0,7.765,7.8902,8.1101,8.2624,8.4112,8.5669,8.4484,8.4843,8.7854,8.738,8.8246,9.1169,9.2034,9.3117,9.4639,9.4011,9.3977,9.4706,9.5432,9.5432,9.4774,9.6225,9.6902,9.6935,9.6935,9.7341,9.7987,9.7987,9.7987,9.7987,9.7987,9.7987,9.8055,9.8781,9.9085,9.9085,9.9119,9.9593,10.0118,9.939,9.8645,9.8172,9.8848,9.9119,9.939,10.0894,10.1402,10.1487,10.2299,10.2502,10.2486,10.2486,10.2486,10.2486,10.2486,10.2486,10.2486,10.2486,10.2486,10.2486,10.2486,10.2486,10.2486,10.2486,10.2486,10.2486,10.2486,10.2486,10.2486,10.2486,10.2486,10.2486,10.2486,10.2486,10.2486,10.2486,10.2486,10.2807,10.3385,10.3414,10.3709,10.4386,10.4382,10.4397,10.4512,10.5109,10.5418,10.5418,10.6012,10.6282,10.6282,10.6282,10.6282,0.0,0.0,8.6318,8.4052,0.0,0.0,0.0,0.0,0.0,0.0,0.0,0.0,0.0,0.0,0.0,0.0,0.0,0.0,0.0,7.7536,7.8462,7.9701,8.2002,8.3524,8.3558,8.395,8.5067,8.713,8.7028,8.7975,9.0459,9.1271,9.2136,9.3151,9.3436,9.3721,9.3977,9.4687,9.4958,9.4706,9.5702,9.6428,9.6902,9.6902,9.7292,9.7987,9.7987,9.7987,9.7987,9.7987,9.7987,9.8055,9.8815,9.8815,9.8544,10.0082,10.0793,10.0878,10.01,9.9356,9.8848,9.9577,10.0202,10.0793,10.1792,10.2096,10.2198,10.2384,10.2486,10.2486,10.2486,10.2486,10.2486,10.2486,10.2486,10.2486,10.2486,10.2486,10.2486,10.2486,10.2486,10.2486,10.2486,10.2486,10.2486,10.2486,10.2486,10.2486,10.2486,10.2486,10.2486,10.2486,10.2486,10.2486,10.2486,10.2486,10.2599,10.2805,10.2805,10.3089,10.3694,10.3709,10.389,10.4401,10.4613,10.4683,10.4683,10.5404,10.5695,10.5709,10.6097,10.6282,8.6108,8.6891,0.0,8.5208,8.4662,0.0,8.1273,0.0,0.0,0.0,0.0,0.0,0.0,0.0,0.0,0.0,0.0,0.0,0.0,7.7536,7.8191,7.8653,8.0851,8.2441,8.278,8.2699,8.3714,8.6298,8.5993,8.6907,8.9647,9.0763,9.1643,9.2358,9.3165,9.3721,9.3977,9.4721,9.5229,9.5466,9.5702,9.6311,9.7274,9.6766,9.7056,9.7987,9.7987,9.7987,9.7987,9.7987,9.7987,9.8089,9.9119,9.9051,9.8612,10.0303,10.0996,10.0894,10.01,9.966,9.9559,10.0001,10.0693,10.1487,10.2299,10.2486,10.2504,10.2594,10.2477,10.2309,10.2499,10.2297,10.2078,10.2292,10.229,10.2306,10.2504,10.2486,10.2486,10.2486,10.2486,10.2486,10.2486,10.2486,10.2486,10.2486,10.2486,10.2486,10.2486,10.2486,10.2486,10.2486,10.2486,10.2486,10.2486,10.2486,10.2486,10.2486,10.2486,10.2695,10.3089,10.3089,10.331,10.3697,10.3894,10.4017,10.4017,10.4703,10.5016,10.5115,10.5393,10.5602]},{"header":{"parameterUnit":"m.s-1","parameterCategory":1,"la1":30.6,"la2":29.2853,"lo1":-89.7004,"lo2":-87.6739,"dy":0.0162,"dx":0.0183,"nx":112,"ny":82,"refTime":"2023-03-15T12:00:00:Z","depth":0,"parameterNumber":3,"parameterNumberName":"V-component_of_WINDS"},"data":[0.0,0.0,0.0,0.0,0.0,0.0,0.0,0.0,0.0,0.0,0.0,0.0,0.0,0.0,0.0,0.0,0.0,0.0,0.0,0.0,0.0,0.0,0.0,0.0,0.0,0.0,0.0,0.0,0.0,0.0,0.0,0.0,0.0,0.0,0.0,0.0,0.0,0.0,0.0,0.0,0.0,0.0,0.0,0.0,0.0,0.0,0.0,0.0,0.0,0.0,0.0,0.0,0.0,0.0,0.0,0.0,0.0,0.0,0.0,0.0,0.0,0.0,0.0,0.0,0.0,0.0,0.0,0.0,0.0,0.0,0.0,0.0,0.0,0.0,0.0,0.0,0.0,0.0,0.0,0.0,0.0,0.0,0.0,0.0,0.0,0.0,0.0,0.0,0.0,0.0,1.5235,1.6039,1.6168,1.6306,1.6576,1.5974,1.5317,1.4662,0.0,0.0,0.0,0.0,0.0,0.0,0.0,0.0,0.0,0.0,0.0,0.0,0.0,0.0,0.0,0.0,0.0,0.0,0.0,0.0,0.0,0.0,0.0,0.0,0.0,0.0,0.0,0.0,0.0,0.0,0.0,0.0,0.0,0.0,0.0,0.0,0.0,0.0,0.0,0.0,0.0,0.0,0.0,0.0,0.0,0.0,0.0,0.0,0.0,0.0,0.0,0.0,0.0,0.0,0.0,0.0,0.0,0.0,0.0,0.0,0.0,0.0,0.0,0.0,0.0,0.0,0.0,0.0,0.0,0.0,0.0,0.0,0.0,0.0,0.0,0.0,0.0,0.0,0.0,0.0,0.0,0.0,0.0,0.0,0.0,0.0,0.0,0.0,0.0,0.0,0.0,0.0,0.0,0.0,0.0,0.0,0.0,0.0,0.0,0.0,0.0,0.0,0.0,0.0,1.4809,1.6505,1.6402,1.6416,1.6954,1.613,1.5488,1.5197,0.0,0.0,0.0,0.0,0.0,0.0,0.0,0.0,0.0,0.0,0.0,0.0,0.0,0.0,0.0,0.0,0.0,0.0,0.0,0.0,0.0,0.0,0.0,0.0,0.0,0.0,0.0,0.0,0.0,0.0,0.0,0.0,0.0,0.0,0.0,0.0,0.0,0.0,0.0,0.0,0.0,0.0,0.0,0.0,0.0,0.0,0.0,0.0,0.0,0.0,0.0,0.0,0.0,0.0,0.0,0.0,0.0,0.0,0.0,0.0,0.0,0.0,0.0,0.0,0.0,0.0,0.0,0.0,0.0,0.0,0.0,0.0,0.0,0.0,0.0,0.0,0.0,0.0,0.0,0.0,0.0,0.0,0.0,0.0,0.0,0.0,0.0,0.0,0.0,0.0,0.0,0.0,0.0,0.0,0.0,0.0,0.0,0.0,0.0,0.0,0.0,0.0,0.0,1.4933,1.5729,1.7001,1.6962,1.696,1.7246,1.6545,1.5912,1.5537,1.4898,0.0,0.0,0.0,0.0,0.0,0.0,0.0,0.0,0.0,0.0,0.0,0.0,0.0,0.0,0.0,0.0,0.0,0.0,0.0,0.0,0.0,0.0,0.0,0.0,0.0,0.0,0.0,0.0,0.0,0.0,0.0,0.0,0.0,0.0,0.0,0.0,0.0,0.0,0.0,0.0,0.0,0.0,0.0,0.0,0.0,0.0,0.0,0.0,0.0,0.0,0.0,0.0,0.0,0.0,0.0,0.0,0.0,0.0,0.0,0.0,0.0,0.0,0.0,0.0,0.0,0.0,0.0,0.0,0.0,0.0,0.0,0.0,0.0,0.0,0.0,0.0,0.0,0.0,0.0,0.0,0.0,0.0,0.0,0.0,0.0,0.0,0.0,0.0,0.0,0.0,0.0,0.0,0.0,0.0,0.0,0.0,0.0,0.0,0.0,0.0,0.0,0.0,1.6094,1.6768,1.7331,1.7473,1.751,1.7463,1.6916,1.6381,1.5925,1.5193,0.0,0.0,0.0,0.0,0.0,0.0,0.0,0.0,0.0,0.0,0.0,0.0,0.0,0.0,0.0,0.0,0.0,0.0,0.0,0.0,0.0,0.0,0.0,0.0,0.0,0.0,0.0,0.0,0.0,0.0,0.0,0.0,0.0,0.0,0.0,0.0,0.0,0.0,0.0,0.0,0.0,0.0,0.0,0.0,0.0,0.0,0.0,0.0,0.0,0.0,0.0,0.0,0.0,0.0,0.0,0.0,0.0,0.0,0.0,0.0,0.0,0.0,0.0,0.0,0.0,0.0,0.0,0.0,0.0,0.0,0.0,0.0,0.0,0.0,0.0,0.0,0.0,0.0,0.0,0.0,0.0,0.0,0.0,0.0,0.0,0.0,0.0,0.0,0.0,0.0,0.0,0.0,0.0,0.0,0.0,0.0,0.0,0.0,0.0,0.0,0.0,0.0,1.6223,1.7331,1.7388,1.7737,1.7888,1.768,1.7142,1.6671,1.6453,1.5353,0.0,0.0,0.0,0.0,0.0,0.0,0.0,0.0,0.0,0.0,0.0,0.0,0.0,0.0,0.0,0.0,0.0,0.0,0.0,0.0,0.0,0.0,0.0,0.0,0.0,0.0,0.0,0.0,0.0,0.0,0.0,0.0,0.0,0.0,0.0,0.0,0.0,0.0,0.0,0.0,0.0,0.0,0.0,0.0,0.0,0.0,0.0,0.0,0.0,0.0,0.0,0.0,0.0,0.0,0.0,0.0,0.0,0.0,0.0,0.0,0.0,0.0,0.0,0.0,0.0,0.0,0.0,0.0,0.0,0.0,0.0,0.0,0.0,0.0,0.0,0.0,0.0,0.0,0.0,0.0,0.0,0.0,0.0,0.0,0.0,0.0,0.0,0.0,0.0,0.0,0.0,0.0,0.0,0.0,0.0,0.0,0.0,0.0,0.0,0.0,0.0,0.0,1.6416,1.7327,0.0,1.8164,1.8154,1.7906,1.7454,1.7029,1.6708,0.0,0.0,0.0,0.0,0.0,0.0,0.0,0.0,0.0,0.0,0.0,0.0,0.0,0.0,0.0,0.0,0.0,0.0,0.0,0.0,0.0,0.0,0.0,0.0,0.0,0.0,0.0,0.0,0.0,0.0,0.0,0.0,0.0,0.0,0.0,0.0,0.0,0.0,0.0,0.0,0.0,0.0,0.0,0.0,0.0,0.0,0.0,0.0,0.0,0.0,0.0,0.0,0.0,0.0,0.0,0.0,0.0,0.0,0.0,0.0,0.0,0.0,0.0,0.0,0.0,0.0,0.0,0.0,0.0,0.0,0.0,0.0,0.0,0.0,0.0,0.0,0.0,0.0,0.0,0.0,0.0,0.0,0.0,0.0,0.0,0.0,0.0,0.0,0.0,0.0,0.0,0.0,0.0,0.0,0.0,0.0,0.0,0.0,0.0,0.0,0.0,0.0,1.5985,1.6896,1.77,0.0,1.8572,1.8533,1.8153,1.7737,1.7379,1.7101,0.0,0.0,0.0,0.0,0.0,0.0,0.0,0.0,0.0,0.0,0.0,0.0,0.0,0.0,0.0,0.0,0.0,0.0,0.0,0.0,0.0,0.0,0.0,0.0,0.0,0.0,0.0,0.0,0.0,0.0,0.0,0.0,0.0,0.0,0.0,0.0,0.0,0.0,0.0,0.0,0.0,0.0,0.0,0.0,0.0,0.0,0.0,0.0,0.0,0.0,0.0,0.0,0.0,0.0,0.0,0.0,0.0,0.0,0.0,0.0,0.0,0.0,0.0,0.0,0.0,0.0,0.0,0.0,0.0,0.0,0.0,0.0,0.0,0.0,0.0,0.0,0.0,0.0,0.0,0.0,0.0,0.0,0.0,0.0,0.0,0.0,0.0,0.0,0.0,0.0,0.0,0.0,0.0,0.0,0.0,0.0,0.0,0.0,0.0,0.0,0.0,0.0,1.6333,1.7703,1.8618,1.8421,1.894,1.9063,1.8449,1.7974,1.7693,0.0,0.0,0.0,0.0,0.0,0.0,0.0,0.0,0.0,0.0,0.0,0.0,0.0,0.0,0.0,0.0,0.0,0.0,0.0,0.0,0.0,0.0,0.0,0.0,0.0,0.0,0.0,0.0,0.0,0.0,0.0,0.0,0.0,0.0,0.0,0.0,0.0,0.0,0.0,0.0,0.0,0.0,0.0,0.0,0.0,0.0,0.0,0.0,0.0,0.0,0.0,0.0,0.0,0.0,0.0,0.0,0.0,0.0,0.0,0.0,0.0,0.0,0.0,0.0,0.0,0.0,0.0,0.0,0.0,0.0,0.0,0.0,0.0,0.0,0.0,0.0,0.0,0.0,0.0,0.0,0.0,0.0,0.0,0.0,0.0,0.0,0.0,0.0,0.0,0.0,0.0,0.0,0.0,0.0,0.0,0.0,0.0,0.0,0.0,0.0,0.0,0.0,0.0,1.703,1.8019,1.8722,1.8807,1.8978,1.8892,1.843,1.8259,1.7919,1.7321,0.0,0.0,0.0,0.0,0.0,0.0,0.0,0.0,0.0,0.0,0.0,0.0,0.0,0.0,0.0,0.0,0.0,0.0,0.0,0.0,0.0,0.0,0.0,0.0,0.0,0.0,0.0,0.0,0.0,0.0,0.0,0.0,0.0,0.0,0.0,0.0,0.0,0.0,0.0,0.0,0.0,0.0,0.0,0.0,0.0,0.0,0.0,0.0,0.0,0.0,0.0,0.0,0.0,0.0,0.0,0.0,0.0,0.0,0.0,0.0,0.0,0.0,0.0,0.0,0.0,0.0,0.0,0.0,0.0,0.0,0.0,0.0,0.0,0.0,0.0,0.0,0.0,0.0,0.0,0.0,0.0,0.0,0.0,0.0,0.0,0.0,0.0,0.0,0.0,0.0,0.0,0.0,0.0,0.0,0.0,0.0,0.0,0.0,0.0,0.0,0.0,0.0,1.7577,1.8409,1.8987,1.911,1.925,1.9167,1.8686,1.8638,1.8348,1.7616,0.0,0.0,0.0,0.0,0.0,0.0,0.0,0.0,0.0,0.0,0.0,0.0,0.0,0.0,0.0,0.0,0.0,0.0,0.0,0.0,0.0,0.0,0.0,0.0,0.0,0.0,0.0,0.0,0.0,0.0,0.0,0.0,0.0,0.0,0.0,0.0,0.0,0.0,0.0,0.0,0.0,0.0,0.0,0.0,0.0,0.0,0.0,0.0,0.0,0.0,0.0,0.0,0.0,0.0,0.0,0.0,0.0,0.0,0.0,0.0,0.0,0.0,0.0,0.0,0.0,0.0,0.0,0.0,0.0,0.0,0.0,0.0,0.0,0.0,0.0,0.0,0.0,0.0,0.0,0.0,0.0,0.0,0.0,0.0,0.0,0.0,0.0,0.0,0.0,0.0,0.0,0.0,0.0,0.0,0.0,0.0,0.0,0.0,0.0,0.0,0.0,0.0,1.7993,1.8766,1.9306,1.9325,1.9644,1.9647,1.9072,1.9066,1.8879,1.8397,0.0,0.0,0.0,0.0,0.0,0.0,0.0,0.0,0.0,0.0,0.0,0.0,0.0,0.0,0.0,0.0,0.0,0.0,0.0,0.0,0.0,0.0,0.0,0.0,0.0,0.0,0.0,0.0,0.0,0.0,0.0,0.0,0.0,0.0,0.0,0.0,0.0,0.0,0.0,0.0,0.0,0.0,0.0,0.0,0.0,0.0,0.0,0.0,0.0,0.0,0.0,0.0,0.0,0.0,0.0,0.0,0.0,0.0,0.0,0.0,1.9729,0.0,0.0,0.0,0.0,0.0,0.0,0.0,0.0,0.0,0.0,0.0,0.0,0.0,0.0,0.0,0.0,0.0,0.0,0.0,0.0,0.0,0.0,0.0,0.0,0.0,0.0,0.0,0.0,0.0,0.0,0.0,0.0,0.0,0.0,0.0,0.0,0.0,0.0,0.0,0.0,0.0,1.8222,1.8881,1.9354,1.9514,1.9609,1.9543,1.925,1.9567,1.9517,1.8895,1.9251,0.0,0.0,0.0,0.0,0.0,0.0,0.0,0.0,0.0,0.0,0.0,0.0,0.0,0.0,0.0,0.0,0.0,0.0,0.0,0.0,0.0,0.0,0.0,0.0,0.0,0.0,0.0,0.0,0.0,0.0,0.0,0.0,0.0,0.0,0.0,0.0,0.0,0.0,0.0,0.0,0.0,0.0,0.0,0.0,0.0,0.0,0.0,0.0,0.0,0.0,0.0,0.0,0.0,0.0,0.0,0.0,0.0,0.0,0.0,0.0,2.0332,0.0,0.0,0.0,0.0,0.0,0.0,0.0,0.0,0.0,0.0,0.0,0.0,0.0,0.0,0.0,0.0,0.0,0.0,0.0,0.0,0.0,0.0,0.0,0.0,0.0,0.0,0.0,0.0,0.0,0.0,0.0,0.0,0.0,0.0,0.0,0.0,0.0,0.0,0.0,0.0,1.8791,1.9484,2.0047,2.038,2.042,2.0353,2.0138,2.0352,2.019,1.9523,1.9764,0.0,0.0,0.0,0.0,0.0,0.0,0.0,0.0,0.0,0.0,0.0,0.0,0.0,0.0,0.0,0.0,0.0,0.0,0.0,0.0,0.0,0.0,0.0,0.0,0.0,0.0,0.0,0.0,0.0,0.0,0.0,0.0,0.0,0.0,0.0,0.0,0.0,0.0,0.0,0.0,0.0,0.0,0.0,0.0,0.0,0.0,0.0,0.0,0.0,0.0,0.0,0.0,0.0,2.3023,2.3201,2.3201,2.3201,2.3358,2.3559,2.2502,2.2077,2.2091,0.0,0.0,0.0,0.0,0.0,0.0,0.0,0.0,0.0,0.0,0.0,0.0,0.0,0.0,0.0,0.0,0.0,0.0,0.0,0.0,0.0,0.0,0.0,0.0,0.0,2.0076,1.9766,0.0,0.0,0.0,0.0,0.0,0.0,0.0,0.0,0.0,0.0,0.0,0.0,1.95,2.0204,2.0826,2.1262,2.1302,2.1221,2.1072,2.1126,2.0914,2.0323,2.0324,2.0178,0.0,0.0,0.0,0.0,0.0,0.0,0.0,0.0,0.0,0.0,0.0,0.0,0.0,0.0,0.0,0.0,0.0,0.0,0.0,0.0,0.0,0.0,0.0,0.0,0.0,0.0,0.0,0.0,0.0,0.0,0.0,0.0,2.0172,2.0537,0.0,0.0,0.0,0.0,0.0,0.0,0.0,0.0,0.0,0.0,0.0,0.0,0.0,2.2719,2.2719,2.3322,2.3629,2.3612,2.4124,2.4377,2.4377,2.4377,2.4551,2.4842,2.4394,0.0,2.3098,2.2963,0.0,0.0,0.0,0.0,0.0,0.0,0.0,0.0,0.0,0.0,0.0,0.0,0.0,0.0,0.0,0.0,0.0,0.0,0.0,0.0,0.0,0.0,2.0684,2.0748,2.0759,2.0791,0.0,2.0197,1.9599,1.9578,0.0,0.0,0.0,0.0,0.0,0.0,0.0,0.0,2.0098,2.0624,2.104,2.1272,2.1302,2.1292,2.1262,2.1619,2.1742,2.1409,2.161,2.1375,2.0592,2.0165,0.0,0.0,0.0,0.0,0.0,0.0,0.0,0.0,0.0,0.0,0.0,0.0,0.0,0.0,0.0,0.0,0.0,0.0,0.0,0.0,0.0,0.0,0.0,0.0,0.0,0.0,0.0,0.0,0.0,2.0319,2.0759,2.0909,2.0964,2.1045,0.0,0.0,0.0,0.0,0.0,0.0,0.0,0.0,0.0,2.318,2.3478,2.3701,2.3861,2.4307,2.4521,2.4534,2.4911,2.5112,2.5112,2.5304,2.547,2.5604,2.5785,2.5539,2.4991,2.4279,2.3926,2.3825,0.0,0.0,0.0,0.0,2.2861,2.2962,2.3113,2.2769,0.0,0.0,0.0,0.0,0.0,0.0,0.0,0.0,0.0,0.0,0.0,0.0,0.0,2.2576,2.2441,2.228,2.2402,2.1715,2.096,0.0,2.0223,1.9885,1.9467,0.0,0.0,0.0,0.0,2.0342,2.1003,2.1608,2.204,2.2227,2.2259,2.2206,2.2092,2.2276,2.2278,2.2012,2.2097,2.1946,2.1458,2.098,2.0545,0.0,0.0,0.0,0.0,0.0,0.0,0.0,0.0,0.0,0.0,0.0,0.0,0.0,0.0,0.0,0.0,0.0,0.0,0.0,0.0,0.0,0.0,0.0,0.0,0.0,0.0,0.0,0.0,2.0828,2.1363,2.1414,2.1726,2.1933,0.0,0.0,0.0,0.0,0.0,0.0,2.351,2.3864,2.4197,2.4553,2.4851,2.5075,2.5241,2.5475,2.5565,2.555,2.6057,2.6173,2.5972,2.6441,2.6549,2.6359,2.6747,2.6814,2.6553,2.5565,2.5106,2.5072,2.5072,2.5072,2.5002,2.4365,2.4313,2.4552,2.4597,2.4316,2.4035,2.4656,0.0,2.3156,2.2808,0.0,0.0,0.0,0.0,2.1897,2.2291,2.3071,2.3852,2.4202,2.4015,2.3705,2.3544,2.3077,2.2456,0.0,2.1399,2.1068,2.0382,0.0,0.0,0.0,0.0,2.2049,2.2607,2.3236,2.3674,2.382,2.3842,2.3786,2.3641,2.3563,2.3322,2.2889,2.3004,2.2754,2.2029,2.1991,2.17,2.1089,0.0,0.0,0.0,0.0,0.0,0.0,0.0,0.0,0.0,0.0,0.0,0.0,0.0,0.0,0.0,0.0,0.0,0.0,0.0,0.0,0.0,0.0,0.0,0.0,0.0,0.0,0.0,0.0,0.0,2.2308,2.2636,0.0,0.0,0.0,0.0,2.3758,2.3756,2.4178,2.5218,2.5769,2.6233,2.664,2.6972,2.7101,2.6989,2.6944,2.6843,2.6734,2.7876,2.8008,2.7236,2.8082,2.8015,2.7242,2.7269,2.7282,2.7242,2.6854,2.6527,2.6306,2.6306,2.6306,2.6266,2.5966,2.604,2.626,2.628,2.6254,2.6327,2.6934,2.6361,2.5289,2.451,2.4077,0.0,0.0,2.4231,2.4275,2.4483,2.477,2.5017,2.5041,2.5032,2.4852,2.4207,2.4315,2.4294,0.0,2.3168,2.3076,2.2846,0.0,2.3838,2.2934,2.4045,2.5062,2.5276,2.5769,2.6128,2.614,2.614,2.614,2.6116,2.5897,2.535,2.4438,2.4929,2.4279,2.2092,2.3204,2.3146,2.1596,2.167,0.0,0.0,0.0,0.0,0.0,0.0,0.0,0.0,0.0,0.0,0.0,0.0,0.0,0.0,0.0,0.0,0.0,0.0,0.0,0.0,0.0,0.0,0.0,0.0,0.0,0.0,0.0,0.0,2.3251,2.3415,0.0,2.3719,2.3963,2.4191,2.4341,2.4783,2.5266,2.5809,2.6153,2.6787,2.7796,2.7736,2.7957,2.8516,2.8496,2.8151,2.7514,2.8819,2.8693,2.7363,2.9231,2.9449,2.8377,2.9161,2.9439,2.931,2.8671,2.783,2.6968,2.6968,2.6968,2.6968,2.6881,2.6907,2.6968,2.6968,2.6968,2.7008,2.7242,2.7025,2.664,2.6355,2.5809,2.5318,2.5385,2.5239,2.5087,2.5338,2.5904,2.6427,2.6605,2.6411,2.619,2.6109,2.5766,2.5595,2.6044,2.5096,2.4128,2.3948,2.4454,2.4787,2.4466,2.512,2.5795,2.6221,2.613,2.616,2.6528,2.6249,2.6111,2.6286,2.6052,2.5764,2.5417,2.5404,2.4956,2.3981,2.3973,2.3639,2.2852,2.2565,2.19,0.0,0.0,0.0,0.0,0.0,0.0,0.0,0.0,0.0,0.0,0.0,0.0,0.0,0.0,0.0,0.0,0.0,0.0,0.0,0.0,0.0,0.0,0.0,0.0,0.0,2.2853,2.3518,2.4008,2.4347,2.4561,2.4636,2.5213,2.5605,2.5677,2.6066,2.6646,2.7434,2.7501,2.8129,2.9462,2.9304,2.9518,3.0191,3.0109,2.9779,2.925,3.0448,3.0263,2.8931,3.0809,3.1034,2.9944,3.0588,3.0809,3.0672,2.9981,2.907,2.8085,2.7846,2.7743,2.773,2.7643,2.7603,2.7617,2.7703,2.7743,2.7743,2.7743,2.7684,2.7603,2.7603,2.7197,2.6742,2.6742,2.6612,2.6511,2.6702,2.7253,2.7793,2.7969,2.7761,2.7513,2.7391,2.7223,2.7225,2.7632,2.6618,2.5613,2.5303,2.5804,2.6137,2.5817,2.6392,2.7078,2.7707,2.7563,2.7595,2.8033,2.7762,2.7583,2.768,2.7413,2.7081,2.6676,2.6546,2.6094,2.521,2.509,2.4642,2.379,2.3269,2.2483,2.1447,0.0,0.0,0.0,0.0,0.0,0.0,0.0,0.0,0.0,0.0,0.0,0.0,0.0,0.0,0.0,0.0,0.0,0.0,0.0,0.0,0.0,0.0,0.0,2.3419,2.3875,2.4374,2.4663,2.5483,2.5937,2.5656,2.658,2.7368,2.7835,2.7689,2.8355,3.0112,2.9903,3.0349,3.1706,3.1721,3.1836,3.2053,3.1739,3.1679,3.1933,3.281,3.2767,3.1933,3.2846,3.2761,3.1926,3.1475,3.1282,3.1232,3.0757,3.0239,2.9705,2.8931,2.8617,2.8591,2.8326,2.8219,2.8259,2.8511,2.8596,2.8596,2.8596,2.8438,2.8219,2.8219,2.8219,2.824,2.824,2.8425,2.8631,2.8631,2.8823,2.9015,2.9001,2.9001,2.8784,2.7941,2.8679,2.9163,2.8009,2.7783,2.7629,2.7065,2.7735,2.8055,2.7134,2.8013,0.0,2.9833,3.0194,3.0511,3.0768,3.0795,3.0675,3.0417,3.01,2.94,2.821,2.8426,2.7688,2.5668,2.6583,2.6238,2.4417,2.3763,2.3169,2.2595,0.0,0.0,0.0,0.0,0.0,0.0,0.0,0.0,0.0,0.0,0.0,0.0,0.0,0.0,0.0,0.0,0.0,0.0,0.0,0.0,0.0,2.5707,2.5855,2.482,2.5191,2.5862,2.6615,2.6928,2.7397,2.8179,2.8802,2.9179,2.9312,2.9592,2.9971,3.046,3.0541,3.1182,3.253,3.2369,3.2619,3.3374,3.3281,3.2947,3.234,3.3555,3.3364,3.1954,3.3717,3.384,3.2719,3.328,3.328,3.2799,3.2099,3.1626,3.1233,2.9917,2.9193,2.889,2.8796,2.877,2.8783,2.8876,2.8903,2.8903,2.8903,2.8836,2.877,2.877,2.877,2.8831,2.908,2.92,2.9245,2.9245,2.9459,2.9544,2.9095,2.9183,2.93,2.9066,2.9415,2.9766,2.9675,2.9815,2.9628,2.8609,2.8996,2.9361,2.9116,2.9739,0.0,3.0518,3.0346,3.0343,3.0759,3.0505,3.0409,3.0675,3.0207,2.9681,2.9145,2.8795,2.8257,2.7495,2.7396,2.7074,2.6346,2.5162,2.4616,0.0,0.0,0.0,0.0,0.0,0.0,0.0,0.0,0.0,0.0,0.0,0.0,0.0,0.0,0.0,0.0,0.0,0.0,0.0,0.0,0.0,0.0,2.7364,2.7603,2.7254,2.7088,2.7368,2.8396,2.8276,2.8571,2.9656,3.0249,3.0649,3.0812,3.1048,3.143,3.1981,3.1928,3.2404,3.3526,3.3418,3.3675,3.4348,3.4348,3.417,3.3809,3.4731,3.4637,3.3705,3.5046,3.5247,0.0,3.489,3.4822,3.4459,3.3797,3.3317,0.0,0.0,0.0,0.0,0.0,2.9148,2.937,2.925,2.9197,2.9197,2.9197,2.9117,2.9037,2.917,2.9197,2.9263,2.9579,2.9775,2.9869,2.9869,3.0083,3.0194,2.9838,2.99,3.0034,3.0034,3.0261,3.0474,3.0551,0.0,0.0,2.9891,2.9867,2.9979,2.9979,3.0293,3.0627,3.0932,3.0737,3.0707,3.1119,3.0922,3.0823,3.0959,3.0555,0.0,0.0,0.0,2.8831,2.8545,2.7999,0.0,0.0,0.0,2.5914,0.0,0.0,0.0,0.0,2.3048,2.2984,0.0,0.0,0.0,0.0,0.0,0.0,0.0,0.0,0.0,0.0,0.0,0.0,0.0,0.0,0.0,0.0,2.8926,2.9289,3.0199,2.9399,2.9048,2.9959,2.9633,2.971,3.0636,3.1366,3.1939,3.2354,3.2316,3.2808,3.4044,0.0,0.0,0.0,0.0,3.4853,3.5123,3.5171,3.5345,3.5722,3.6002,3.6161,3.6177,3.6463,3.659,3.6584,3.6164,3.5939,3.5872,3.5444,3.497,3.4224,3.1499,3.0439,3.0345,2.9501,2.9544,2.998,2.9713,0.0,0.0,2.9655,2.9432,2.9223,2.9539,2.9628,2.9646,2.9944,3.0247,3.0484,3.0484,3.0698,3.0875,3.0832,3.0822,3.0835,3.0795,3.1022,3.1132,3.0889,3.1076,3.1186,3.0982,3.0551,3.0221,3.0221,3.026,3.0528,3.1166,3.1253,3.1383,3.166,0.0,0.0,3.1279,3.1009,3.0738,3.0457,2.9882,2.9419,2.9108,2.8512,2.8332,2.8689,2.7657,2.7132,2.7132,2.7493,2.7281,2.6476,2.5054,2.4506,0.0,0.0,0.0,0.0,0.0,0.0,0.0,0.0,0.0,0.0,0.0,0.0,0.0,0.0,0.0,2.984,3.0713,3.1533,3.2301,3.2094,3.1672,3.1235,3.1337,3.1775,3.2652,3.3169,3.3587,3.4008,3.4029,3.425,3.4784,3.5025,3.5215,3.5367,3.5907,3.6098,3.5885,3.6161,3.6336,3.64,0.0,0.0,3.6511,3.6574,3.659,3.659,3.6501,3.6254,3.5894,3.5804,3.5263,3.4321,3.258,3.1896,3.1782,3.0817,3.0528,3.0608,3.0555,3.0541,3.0541,3.0541,3.0364,3.0176,3.0448,3.0404,0.0,3.0799,3.0986,3.1062,3.1062,3.1276,3.1406,3.0925,3.0969,3.1052,3.0849,3.1022,3.1186,3.1132,3.1383,3.166,3.1824,3.1355,3.1002,3.1002,3.1225,3.1446,3.157,3.1607,3.1634,3.1687,3.1687,3.1674,3.1607,3.1316,3.1022,3.0751,3.0154,2.9784,2.9731,2.9384,2.9246,2.9312,2.8844,2.859,2.859,2.8676,2.8633,2.8434,2.7334,2.6671,0.0,0.0,0.0,0.0,0.0,0.0,0.0,0.0,0.0,0.0,0.0,2.8624,2.9165,0.0,3.029,3.119,3.1803,3.2418,3.3143,3.3174,3.3006,3.2777,3.2666,3.301,3.4065,3.4328,3.4687,3.5266,3.5145,3.5272,3.5774,3.5828,3.5945,3.6104,3.6416,3.6511,3.6352,3.6511,3.659,3.659,3.6781,3.6838,3.686,3.7051,3.7153,3.7153,3.7153,3.7105,3.7057,3.7057,3.6672,3.599,3.4751,3.3763,3.2985,3.2482,3.1978,3.1542,3.1542,3.122,3.0795,3.0795,3.0725,3.0658,3.0929,3.0902,3.0889,3.133,3.145,3.145,3.145,3.158,3.162,3.1326,3.145,3.16,3.1476,3.1701,3.1915,3.1915,3.2035,3.2182,3.2329,3.2102,3.1915,3.1915,3.1915,3.1968,3.2139,3.2152,3.2152,3.2152,3.2152,3.2152,3.2152,3.1727,3.1263,3.0822,3.0515,3.0287,3.0163,3.0163,3.0096,2.9949,2.9913,2.9891,2.9891,2.9891,2.9891,2.9891,2.9397,2.8728,0.0,0.0,0.0,0.0,0.0,0.0,0.0,2.7548,2.7522,2.8915,2.9266,2.9638,3.0722,3.1093,3.1504,3.2388,3.2634,3.2952,3.3587,3.3746,3.3921,3.4271,3.3921,3.4067,3.51,3.5282,3.5552,3.6161,3.5961,3.6072,3.667,3.6447,3.6431,3.6686,3.6765,3.6765,3.6702,3.6845,3.6908,3.6908,3.7235,3.7409,3.7409,3.7757,3.79,3.79,3.79,3.8059,3.829,3.829,3.8155,3.7792,3.7001,3.5897,3.4686,3.4178,3.3401,3.2619,3.269,3.2056,3.1225,3.1279,3.1182,3.1089,3.1306,3.1373,3.1426,3.1714,3.1821,3.1861,3.1861,3.1861,3.1861,3.1861,3.2048,3.2209,3.2209,3.2396,3.2594,3.2594,3.2594,3.2607,3.2674,3.2634,3.2594,3.2594,3.2369,3.2302,3.2567,3.2594,3.2594,3.2594,3.2594,3.2594,3.2594,3.2152,3.1634,3.1076,3.0996,3.0858,3.0564,3.0702,3.0711,3.0471,3.0698,3.0795,3.0795,3.0795,3.0795,3.0795,3.0795,3.0287,2.7544,2.7257,2.7264,2.8248,2.8179,2.8389,0.0,3.0116,2.967,3.0858,3.1324,3.1501,3.1369,3.2118,3.2789,3.2909,3.3413,3.3948,3.4334,3.4647,3.498,3.5373,3.5365,3.5496,3.5933,3.6257,3.6463,3.6543,3.6511,3.6654,3.7028,3.7013,3.7013,3.7044,3.7385,3.7424,3.7044,3.7702,3.802,3.802,3.8354,3.8513,3.8513,3.856,3.86,3.86,3.86,3.8592,3.864,3.864,3.8608,3.8576,3.8458,3.8316,3.7868,3.5471,3.4236,3.375,3.4059,3.3495,3.2692,3.2927,3.2543,3.1957,3.1998,3.1998,3.2011,3.2038,3.2262,3.25,3.25,3.25,3.25,3.25,3.2527,3.2541,3.2541,3.2567,3.2594,3.2594,3.2594,3.2674,3.2904,3.2768,3.2594,3.2594,3.2567,3.2554,3.2594,3.2594,3.2594,3.2594,3.2594,3.2594,3.2594,3.2527,3.2329,3.1971,3.1741,3.146,3.1119,3.0915,3.0782,3.0765,3.0768,3.0795,3.0795,3.0795,3.0795,3.0795,3.0795,3.0728,2.8916,2.8958,2.9169,2.9855,2.9673,2.973,3.1329,3.0969,3.0623,3.1747,3.209,3.2221,3.2304,3.2865,3.3354,3.356,3.3985,3.4414,3.4742,3.5107,3.5558,3.6136,3.6352,3.6463,3.64,3.6679,3.6988,3.7233,3.7019,3.7044,3.7432,3.7242,3.7298,3.7734,3.7893,3.8004,3.8036,3.8338,3.8481,3.8481,3.8624,3.8688,3.8688,3.8688,3.8799,3.9005,3.9005,3.9005,3.9005,3.9005,3.9005,3.8974,3.8767,3.8815,3.8846,3.7513,3.6525,3.5854,3.5988,3.5379,3.4545,3.4649,3.4461,3.4098,3.3447,3.3278,3.3157,3.2552,3.25,3.2594,3.2594,3.2594,3.2594,3.2594,3.2728,3.2824,3.2824,3.2957,3.3078,3.3078,3.3078,3.3118,3.3213,3.3133,3.3078,3.3078,3.2931,3.2891,3.3051,3.3078,3.3078,3.3078,3.3078,3.3011,3.2837,3.2824,3.2703,3.2409,3.23,3.2075,3.1744,3.1623,3.1557,3.1557,3.1557,3.1637,3.1858,3.1858,3.1858,3.1858,3.1858,3.1858,2.9867,3.0121,3.0407,3.0905,3.0846,3.095,3.1956,3.1677,3.1436,3.2372,3.2555,3.2666,3.3072,3.3417,3.3746,3.4075,3.4509,3.4922,3.5266,3.5637,3.6082,3.667,3.6949,3.7042,3.6984,3.7135,3.7432,3.7821,3.7575,3.7575,3.7964,3.7702,3.7798,3.8322,3.8338,3.8449,3.8688,3.8783,3.8831,3.8846,3.9037,3.9132,3.9132,3.9252,3.9403,3.9632,3.9632,3.9632,3.9632,3.9632,3.9632,3.9625,3.9371,3.9418,3.9625,3.9371,3.8557,3.7566,3.7658,3.7031,3.6161,3.6176,3.6079,3.5798,3.4945,3.4526,3.4203,3.3572,3.3111,3.2873,3.3114,3.3123,3.3045,3.3164,3.326,3.3316,3.3316,3.3366,3.3414,3.3414,3.3414,3.3414,3.3414,3.3414,3.3414,3.3414,3.3307,3.3267,3.34,3.3414,3.3414,3.3414,3.3414,3.332,3.3145,3.3118,3.2998,3.2728,3.2714,3.2581,3.2262,3.2249,3.2249,3.2249,3.2249,3.2356,3.2594,3.2594,3.2594,3.2594,3.2594,3.2594,3.028,3.0296,3.0471,3.1204,3.163,3.2039,3.2797,3.265,3.2471,3.2877,3.2976,3.3088,3.3417,3.3762,3.4091,3.443,3.5081,3.5669,3.6018,3.6352,3.6702,3.7044,3.7092,3.7312,3.7812,3.7746,3.7821,3.8163,3.8179,3.8306,3.864,3.8656,3.8656,3.8672,3.8672,3.8688,3.8688,3.9037,3.9172,3.9188,3.9911,4.0245,4.026,4.0603,4.0746,4.0762,4.0762,4.0762,4.0762,4.0762,4.0762,4.0762,4.0746,4.0746,4.0762,4.0746,3.9775,3.8497,3.8816,3.824,3.7341,3.7347,3.7002,3.6509,3.6227,3.5583,3.5012,3.5233,3.4374,3.3579,3.4418,3.4394,3.4243,3.4558,3.4394,3.4175,3.4175,3.375,3.3414,3.3414,3.3414,3.3414,3.3414,3.3414,3.3414,3.3414,3.3668,3.3748,3.3454,3.3414,3.3414,3.3414,3.3414,3.3414,3.34,3.34,3.328,3.3011,3.2984,3.2864,3.2594,3.2581,3.2581,3.2581,3.2581,3.2581,3.2594,3.2594,3.2594,3.2594,3.2594,3.2594,3.1029,3.1344,3.1824,3.232,3.2718,3.3015,3.3274,3.3226,3.3222,3.3587,3.3651,3.3783,3.4096,3.4445,3.479,3.516,3.5621,3.605,3.6384,3.6733,3.7117,3.7585,3.7833,3.8258,3.9014,3.8518,3.8438,3.9142,3.9198,3.9221,3.9232,3.9224,3.9337,3.9555,3.9468,3.9707,4.0271,4.0282,4.026,4.026,4.0499,4.0626,4.0651,4.0762,4.0912,4.1118,4.088,4.0912,4.1118,4.088,4.0928,4.1118,4.088,4.0928,4.1134,4.1134,4.0812,4.0345,4.0235,3.9964,3.965,3.9666,3.9542,3.9237,3.8433,3.8004,3.7663,3.702,3.6022,3.5274,3.5919,3.5177,3.45,3.536,3.4898,3.4371,3.4726,3.4383,3.3989,3.3989,3.3989,3.3989,3.3989,3.3989,3.3989,3.3989,3.3935,3.3921,3.3976,3.3989,3.3935,3.3748,3.4049,3.4251,3.4263,3.4373,3.4529,3.4651,3.4447,3.4295,3.4185,3.3672,3.3634,3.4185,3.3327,3.313,3.3665,3.3293,3.312,3.312,3.312,3.312,3.2154,3.2624,3.3154,3.3531,3.3881,3.4152,3.4116,3.4111,3.4129,3.4164,3.4075,3.4123,3.4583,3.4758,3.5028,3.5669,3.6161,3.659,3.694,3.7426,3.7911,3.8401,3.8699,3.9211,4.0068,3.967,3.9547,4.005,4.009,4.0163,4.0346,4.0355,4.0518,4.0853,4.0764,4.0909,4.1283,4.1162,4.1112,4.1166,4.1166,4.1293,4.1557,4.1557,4.1659,4.1865,4.1627,4.1659,4.1849,4.1652,4.17,4.1849,4.1627,4.1675,4.1865,4.1865,4.1865,4.1786,4.1182,4.0975,4.096,4.0857,4.081,4.066,3.9984,3.9507,3.9104,3.86,3.7548,3.6714,3.7378,3.6658,3.5988,3.6842,3.6223,3.5514,3.5679,3.5424,3.513,3.4925,3.5233,3.5475,3.5475,3.5475,3.5311,3.4843,3.4951,3.4983,3.4629,3.4771,3.4755,3.4386,3.4817,3.4995,3.4575,3.5055,3.5355,3.5373,3.5344,3.5372,3.5372,3.4851,3.477,3.5179,3.4136,3.3808,3.4214,3.3772,3.3521,3.3389,3.3534,3.3521,3.3608,3.404,3.4462,3.4689,3.5051,3.5331,3.5245,3.5242,3.5095,3.4636,3.4276,3.426,3.4869,3.4763,3.4912,3.5939,3.6724,3.7358,3.7724,3.8453,3.9119,3.9555,3.9717,4.0141,4.104,4.1114,4.1077,4.0969,4.0928,4.1202,4.193,4.1963,4.2104,4.2427,4.2452,4.222,4.1738,4.1746,4.1801,4.1897,4.1897,4.2246,4.2908,4.2908,4.2908,4.2908,4.2908,4.2908,4.2908,4.2908,4.2908,4.2908,4.2908,4.2908,4.2908,4.2908,4.2908,4.2765,4.1738,4.1363,4.1325,4.096,4.0873,4.0889,4.0848,4.0131,3.9443,3.9946,3.8948,3.792,3.8806,3.8693,3.8492,3.8883,3.83,3.752,3.7037,3.6909,3.6731,3.6246,3.6946,3.7632,3.7662,3.7636,3.7138,3.5881,3.6634,3.6805,3.5352,3.567,3.5798,3.5156,3.5656,3.5554,3.4464,3.5386,3.5807,3.5233,3.573,3.6037,3.6088,3.6037,3.5871,3.5602,3.5046,3.4617,3.428,3.4064,3.3773,3.3442,3.3774,3.3748,3.4846,3.5382,3.5819,3.5636,3.582,3.6008,3.5783,3.5627,3.5466,3.5085,3.4951,3.483,3.4647,3.528,3.5891,3.6062,3.754,3.8667,3.8678,3.9408,4.0238,4.0981,4.1073,4.1558,4.2672,4.2788,4.2894,4.3163,4.2623,4.2454,4.2853,4.2862,4.2895,4.2996,4.3131,4.3354,4.3623,4.3757,4.3629,4.3237,4.3237,4.3099,4.2908,4.2908,4.2908,4.2908,4.2908,4.2908,4.2908,4.2908,4.2908,4.2908,4.2908,4.2908,4.2908,4.2908,4.2908,4.2861,4.2606,4.2485,4.2374,4.1744,4.1754,4.1929,4.1633,4.135,4.1171,4.1299,4.0466,3.9661,4.0302,3.9459,3.8693,3.9648,3.9062,3.8343,3.8667,3.8369,3.8033,3.7878,3.7748,3.7843,3.8345,3.7848,3.7273,3.6911,3.7504,3.7457,3.5972,3.6282,3.6199,3.4994,3.5743,3.6027,3.5317,3.6049,3.657,3.6643,3.6573,3.6725,3.7171,3.6368,3.6275,3.7041,3.6153,3.5603,3.5468,3.5017,3.4532,3.407,3.4175,3.4136,3.6275,3.6802,3.7239,3.7168,3.7177,3.7041,3.6498,3.6193,3.5792,3.5054,3.4889,3.4805,3.4551,3.5483,3.6382,3.6634,3.821,3.9508,3.9754,4.0533,4.1326,4.1958,4.2248,4.2733,4.359,4.3666,4.382,4.4197,4.3658,4.3468,4.3759,4.3946,4.4115,4.4293,4.454,4.4732,4.4783,4.4394,4.4126,4.3948,4.3685,4.3475,4.3343,4.3518,4.3608,4.3608,0.0,4.3608,4.3592,4.3406,4.3343,4.3343,4.3343,4.3343,4.3343,4.3343,4.3343,4.3327,4.3168,4.3216,4.3232,4.2506,4.2437,4.2532,4.2183,4.2062,4.2062,4.2062,4.1623,4.1266,4.1728,4.1136,4.0588,4.1229,4.0734,4.0092,4.0171,3.9998,3.9847,3.9944,3.9707,3.9479,3.938,3.9303,3.9054,3.832,3.8923,3.8969,3.7672,3.7565,3.7221,3.6192,3.6815,3.6893,3.5865,3.6841,3.7263,3.6697,3.6982,3.7294,3.7643,3.7037,3.7057,3.7797,3.6991,3.6484,3.6292,3.5856,3.5445,3.5028,3.4946,3.4803,3.7667,3.8069,3.8472,3.882,3.8664,3.8205,3.7348,3.6845,3.6162,3.4858,3.4594,3.4556,3.4445,3.5451,3.6534,3.7292,3.8748,4.0067,4.0869,4.1716,4.2432,4.2805,4.3271,4.37,4.4111,4.4145,4.4282,4.4617,4.4385,4.4351,4.4634,4.5001,4.5378,4.5815,4.6132,4.6095,4.5728,4.4721,4.4377,4.4732,4.4151,4.4018,4.4305,4.4523,4.4639,4.4671,4.4509,0.0,4.4482,4.4063,4.3904,4.3904,4.3904,4.3904,4.3904,4.3904,4.3904,4.3872,4.3554,4.365,4.3793,4.3104,4.294,4.2882,4.2574,4.2479,4.2479,4.2479,4.2479,4.2517,4.2829,4.2908,4.2908,4.2908,4.254,4.2066,4.1477,4.1462,4.1619,4.1832,4.1763,4.1429,4.0568,4.1121,4.1193,3.9782,4.0352,4.062,3.9618,3.9048,3.8451,3.7773,3.8164,3.7866,3.6269,3.7477,3.7714,3.6246,3.7076,3.7641,3.7693,3.7719,3.7852,3.8162,3.7742,3.7366,3.7059,3.673,3.6392,3.6054,3.5774,3.5448,3.8485,3.8733,3.8901,3.9285,3.9236,3.893,3.8176,3.7643,3.6877,3.5378,3.5079,3.4893,3.4206,3.5291,3.6534,3.7292,3.9074,4.0711,4.1728,4.2608,4.3417,4.4099,4.4259,4.4463,4.4882,4.4916,4.507,4.5455,4.5438,4.5421,4.5489,4.5558,4.59,4.6586,4.6671,4.6935,4.7452,4.6995,4.6836,4.7008,4.6643,4.6396,4.6265,4.5563,4.5394,4.5593,4.4497,0.0,4.4482,4.4063,4.3904,4.3904,4.3904,4.3904,4.3904,4.3904,4.3904,4.3904,4.384,4.3856,4.3793,4.3104,4.3073,4.3247,4.2898,4.2813,4.2813,4.2813,4.2813,4.2829,4.2892,4.2908,4.2908,4.2908,4.2829,4.2645,4.2272,4.195,4.1854,4.2221,4.1679,4.1261,4.1629,4.1243,4.0797,4.051,4.0641,4.0586,4.013,3.997,3.9334,3.7852,3.8164,3.8008,3.6832,3.7214,3.7395,3.7104,3.7062,3.7227,3.7682,3.7762,3.8013,3.8503,3.864,3.8599,3.8378,3.7774,3.7096,3.641,3.6073,3.5661,3.9042,3.9351,3.9568,3.9972,3.9742,3.9214,3.843,3.743,3.6344,3.518,3.4887,3.465,3.4101,3.5403,3.6817,3.7642,3.9112,4.0735,4.225,4.3,4.3769,4.4685,4.5253,4.5518,4.5429,4.5864,4.6018,4.572,4.5866,4.596,4.596,4.6363,4.6826,4.7365,4.757,4.7844,4.8221,4.7737,4.7525,4.7592,4.7169,4.6897,4.679,4.6205,4.6016,4.6118,4.5159,0.0,4.4963,4.4439,4.4217,4.4201,4.3983,4.3904,4.3904,4.3904,4.3904,4.3904,4.3904,4.3904,4.3856,4.3507,4.3523,4.3586,4.3263,4.3152,4.3152,4.3152,4.3152,4.32,4.3375,4.3295,4.32,4.339,4.3422,4.3343,4.2993,4.2787,4.2633,4.267,4.2292,4.2094,4.2398,4.211,4.1843,4.1843,4.1843,4.1796,4.1625,4.1594,4.0949,3.9197,3.923,3.9018,3.807,3.8398,3.8331,3.7598,3.7725,3.7873,3.7958,3.8153,3.8287,3.8343,3.8942,3.9056,3.864,3.8631,3.8441,3.8053,3.7605,3.711,3.939,3.9744,4.0099,4.0498,4.0109,3.9399,3.8585,3.7168,3.5822,3.5066,3.4681,3.4467,3.4376,3.5628,3.7035,3.803,3.9165,4.0566,4.2519,4.3192,4.3957,4.5087,4.5887,4.6171,4.5849,4.6475,4.6638,4.5986,4.6251,4.6414,4.6328,4.7073,4.7621,4.7903,4.8289,4.8556,4.8642,4.805,4.7866,4.8018,4.7531,4.7328,4.7389,4.696,4.6815,4.6841,4.5876,0.0,0.0,4.4807,4.4514,4.4482,4.4221,4.4094,4.4031,4.4031,4.3983,4.3904,4.3904,4.3904,4.3904,4.3904,4.3904,4.3856,4.3586,4.3518,4.3518,4.3518,4.3518,4.3554,4.384,4.3697,4.357,4.384,4.3856,4.3713,4.347,4.3343,4.3216,4.2956,4.2908,4.2908,4.2908,4.2908,4.2908,4.2908,4.2908,4.2908,4.2908,4.2908,4.2362,4.0929,4.0599,4.0182,3.9418,3.9638,3.9378,3.8336,3.8529,3.8565,3.8323,3.8685,3.8672,3.8228,3.9136,3.9346,3.8814,3.9274,3.9473,3.9424,3.879,3.8185,3.939,3.9744,4.0099,4.0498,4.0275,3.9748,3.8935,3.7573,3.6283,3.5723,3.5034,3.4694,3.5402,3.5989,3.6834,3.8304,3.9309,4.0558,4.2432,4.3414,4.4376,4.5506,4.5712,4.5866,4.6123,4.6226,4.6406,4.6671,4.7065,4.7134,4.6748,4.7467,4.7869,4.7903,4.8289,4.8676,4.9053,4.8639,4.8748,4.9405,4.907,4.9042,4.9311,4.8436,4.8193,4.8378,4.6309,0.0,0.0,4.4887,4.4514,4.453,4.4789,4.4709,4.4423,4.4423,4.4217,4.3904,4.3904,4.3904,4.3904,4.3904,4.3904,4.3877,4.3872,4.3856,4.3856,4.3856,4.3856,4.3872,4.3904,4.3888,4.3872,4.3904,4.3666,4.3454,4.3422,4.3152,4.294,4.2908,4.2908,4.2908,4.2908,4.2908,4.2908,4.2908,4.2908,4.2908,4.2908,4.2908,4.2824,4.2656,4.1901,4.1156,4.0602,3.9925,3.9597,3.9797,3.9109,3.8704,3.8662,3.9224,3.9224,3.8662,3.9511,3.9824,3.9513,3.9492,3.9415,3.9219,3.8285,3.7568,3.939,3.9921,4.0395,4.0572,4.0161,3.962,3.9289,3.7797,3.6375,3.6183,3.5648,3.5322,3.5638,3.6263,3.7156,3.8502,3.901,3.9914,4.1835,4.2768,4.3795,4.5173,4.6044,4.6553,4.6551,4.7053,4.7415,4.7477,4.795,4.8124,4.7836,4.8101,4.8348,4.8543,4.893,4.9241,4.9402,4.9241,4.9317,4.9608,4.9454,4.9454,4.9563,4.8635,4.8365,4.8623,4.7176,0.0,0.0,4.6024,4.5626,4.5599,4.516,4.4812,4.4514,4.4514,4.4248,4.3904,4.3904,4.3904,4.3904,4.3904,4.3904,4.3904,4.3904,4.3904,4.3904,4.3904,4.3904,4.3904,4.3904,4.3904,4.3856,4.365,4.365,4.3697,4.3697,4.3586,4.3491,4.3491,4.3491,4.3491,4.3491,4.3491,4.3491,4.3491,4.3491,4.3491,4.3491,4.3491,4.3411,4.3216,4.2698,4.2178,4.1816,4.1477,4.1155,4.0811,4.0469,4.0033,3.9503,3.9909,3.9594,3.8426,3.9288,3.9347,3.8514,3.885,3.8971,3.8907,3.8521,3.8015,3.9157,3.9843,4.0446,4.0572,4.0041,3.9515,3.9515,3.7888,3.6472,3.6721,3.6185,3.5815,3.6207,3.6863,3.7658,3.8623,3.9188,4.0028,4.1463,4.2417,4.3602,4.536,4.6357,4.7077,4.7461,4.8333,4.8675,4.8207,4.8819,4.9045,4.8659,4.8649,4.8769,4.8988,4.9375,4.9608,4.9608,4.9608,4.9608,4.9608,4.9608,4.9608,4.9563,4.8909,4.8743,4.8924,4.7972,0.0,0.0,4.7007,4.6687,4.6588,4.5844,4.5378,4.5031,4.4759,4.4407,4.4063,4.3951,4.3904,4.3904,4.3904,4.3904,4.3904,4.3904,4.3904,4.3904,4.3904,4.3904,4.3904,4.3904,4.3904,4.384,4.3602,4.3729,4.3904,4.3904,4.3904,4.3904,4.3904,4.3904,4.3904,4.3904,4.3904,4.3904,4.3904,4.3904,4.3958,4.4146,4.4011,4.3862,4.3837,4.3449,4.3088,4.2778,4.2607,4.2334,4.1861,4.1659,4.1201,4.0409,4.0603,4.0085,3.8643,3.9252,3.9091,3.8087,3.8486,3.8692,3.8692,3.8514,3.8115,3.861,3.9388,4.0099,4.0498,4.0041,3.9515,3.9515,3.7888,3.6624,3.7423,3.6585,3.6089,3.7359,3.7917,3.8304,3.8651,4.0096,4.1266,4.1545,4.2641,4.4211,4.6409,4.6594,4.7215,4.8999,4.9954,5.0,4.8875,4.9653,4.9852,4.9053,4.8988,4.9005,4.9005,4.9375,4.9608,4.9608,4.9608,4.9608,4.9608,4.9608,4.9608,4.9608,4.9608,4.9608,4.9535,4.8608,0.0,0.0,4.7546,4.728,4.7258,4.6995,4.6674,4.6273,4.5355,4.4784,4.445,4.4031,4.3904,4.3904,4.3904,4.3904,4.3904,4.3904,4.3904,4.3904,4.3904,4.3904,4.3904,4.3904,4.3904,4.3904,4.3904,4.3904,4.3904,4.3904,4.3904,4.3904,4.3904,4.3904,4.3904,4.3904,4.3904,4.3904,4.3904,4.3904,4.4119,4.471,4.4269,4.4119,4.471,4.4253,4.3761,4.3411,4.2916,4.2752,4.3068,4.2527,4.1931,4.1305,4.1278,4.0746,3.9612,3.9585,3.9311,3.8692,3.8692,3.8692,3.8692,3.8087,3.7494,3.7982,3.8998,3.9979,3.9887,3.9475,3.9094,3.9094,3.8122,3.7292,3.7559,3.7277,3.712,3.7516,3.7974,3.8564,3.9444,4.0021,4.0772,4.1919,4.3481,4.5065,4.6577,4.8245,4.9345,4.9666,5.0052,4.9983,4.9196,4.968,4.9802,4.9447,4.9426,4.9426,4.9426,4.9529,4.9608,4.9608,4.9608,4.9608,4.9608,4.9608,4.9608,4.9608,4.9323,4.9323,4.9563,4.9049,0.0,0.0,4.8078,4.766,4.7516,4.6397,4.575,4.5382,4.4839,4.4407,4.4063,4.3951,4.3904,4.3904,4.3904,4.3904,4.3904,4.3904,4.3904,4.3904,4.3904,4.3904,4.3904,4.3904,4.3904,4.3904,4.3904,4.3904,4.3904,4.3904,4.3904,4.3904,4.3904,4.3904,4.3904,4.3904,4.3904,4.4038,4.4441,4.4538,4.471,4.5272,4.5192,4.4978,4.4817,4.4645,4.4329,4.3788,4.3584,4.3363,4.3111,4.2527,4.1931,4.1333,4.0939,4.0393,3.9627,3.9585,3.9091,3.8087,3.8087,3.7867,3.7466,3.7286,3.7093,3.7547,3.8477,3.9347,3.9465,3.9196,3.8901,3.8901,3.823,3.7658,3.783,3.7722,3.7658,3.783,3.8228,3.8815,3.9676,4.003,4.072,4.209,4.3505,4.5171,4.7261,4.9888,5.1246,5.05,5.1023,5.0876,4.9606,5.031,5.0434,4.9657,4.983,4.983,4.9608,4.9608,4.9608,4.9608,4.9608,4.9608,4.9608,4.9608,4.9608,4.9608,4.9323,4.9375,4.9608,4.9396,0.0,0.0,4.8802,4.8484,4.8334,4.704,4.6248,4.5796,4.5055,4.4534,4.4094,4.3951,4.3904,4.3904,4.3904,4.3904,4.3904,4.3904,4.3904,4.3904,4.3904,4.3904,4.3904,4.3904,4.3904,4.3904,4.3904,4.3904,4.3904,4.3904,4.3904,4.3904,4.3904,4.3904,4.3904,4.3904,4.4092,4.4361,4.4753,4.4978,4.5325,4.5859,4.5753,4.5486,4.5165,4.494,4.4565,4.3931,4.3904,4.3758,4.3408,4.3041,4.2473,4.1686,4.1305,4.0763,3.9955,3.9709,3.9214,3.8486,3.8018,3.7494,3.6913,3.6913,3.6913,0.0,3.7838,3.8351,3.9133,3.9089,3.8849,3.8849,3.8234,0.0,3.8216,3.7958,3.7787,3.825,3.8644,3.9059,3.9493,4.0178,4.1052,4.221,4.3228,4.5105,4.8527,5.1481,5.2759,5.159,5.2658,5.2477,5.0255,5.14,5.1477,4.983,5.0245,5.029,4.968,4.9663,4.9635,4.9608,4.9608,4.9608,4.9608,4.9608,4.9608,4.9608,4.9608,4.9608,0.0,0.0,0.0,0.0,4.9535,4.9535,4.9435,4.8508,4.7794,4.7154,4.5845,4.5015,4.4521,4.4085,4.3931,4.3904,4.3904,4.3904,4.3904,4.3904,4.3904,4.3904,4.3904,4.3904,4.3904,4.3904,4.3904,4.3904,4.3904,4.3904,4.3904,4.3904,4.3904,4.3904,4.3904,4.3904,4.3904,4.3958,4.4414,4.4833,4.4913,4.5395,4.5956,4.6472,4.6073,4.5726,4.5743,4.5235,4.4602,4.4011,4.3904,4.3904,4.3904,4.385,4.3365,4.231,4.2214,4.1713,4.0639,3.9997,3.9654,3.9585,3.8418,3.759,3.7037,3.7037,3.7009,3.6681,0.0,3.7802,3.7685,3.8066,3.8439,0.0,3.8284,3.8173,3.828,3.8216,3.8258,3.8674,3.8832,3.9231,4.0195,4.0743,4.1549,4.2947,4.6034,4.8855,5.0762,5.2557,5.3543,5.3256,5.3277,5.2934,5.1955,5.2082,5.1834,5.1018,5.1118,5.0925,5.0317,5.029,5.0051,4.9608,4.9608,4.9608,4.9608,4.9608,4.9608,4.9608,4.9608,4.9608,0.0,0.0,0.0,4.9563,4.9119,4.8924,4.8824,4.7872,4.7402,4.7198,4.6308,4.5639,4.5129,4.4731,4.428,4.3904,4.3904,4.3904,4.3904,4.3904,4.3904,4.3904,4.3904,4.3904,4.3904,4.3904,4.3904,4.3904,4.3904,4.3904,4.3904,4.3904,4.3904,4.3904,4.3904,4.3904,4.4038,4.4495,4.471,4.5085,4.5966,4.6206,4.6515,4.71,4.7073,4.6808,4.6365,4.5779,4.5192,4.4629,4.4173,4.3904,4.3904,4.3515,4.3165,4.2894,4.2446,4.2066,4.1822,4.0815,4.005,3.9585,3.8858,3.8417,3.8266,3.8266,3.8018,3.5984,3.671,3.7414,3.7424,3.7858,3.8302,3.8302,3.8302,3.8302,3.8302,3.8302,3.8422,3.8815,3.8901,3.926,4.0395,4.0932,4.2096,4.4599,4.8037,5.0714,5.1876,5.3486,5.4284,5.375,5.3878,5.3643,5.2851,5.2926,5.2536,5.1458,5.1623,5.1238,5.0124,5.0096,4.993,4.9608,4.9608,4.9608,4.9608,4.9608,4.9608,4.9608,4.9608,4.9608,0.0,0.0,0.0,4.9563,4.9247,4.9119,4.9046,4.8387,4.796,4.7645,4.7062,4.6509,4.6014,4.5791,4.5206,4.4504,4.4048,4.3904,4.3935,4.411,4.4185,4.4153,4.3951,4.3904,4.3904,4.3904,4.3904,4.3904,4.3904,4.3904,4.4,4.4253,4.4307,4.4388,4.4629,4.4683,4.479,4.5154,4.5406,4.5846,4.6654,4.6856,4.7088,4.7578,4.7621,4.734,4.6568,4.6116,4.5586,4.486,4.4495,4.4173,4.3904,4.3623,4.3354,4.3111,4.2786,4.2473,4.2229,4.159,4.0964,4.0393,3.9804,3.945,3.9358,3.9068,3.8848,3.5581,3.634,3.7204,3.7525,3.7955,3.8302,3.8302,3.8302,3.8302,3.8302,3.8353,3.8524,3.8922,3.9072,3.9522,4.0583,4.143,4.3166,4.6644,4.9477,5.1517,5.2301,5.406,5.4842,5.3937,5.4535,5.4579,5.3571,5.3978,5.349,5.1742,5.2098,5.155,4.9785,4.9729,4.9708,4.9608,4.9608,4.9608,4.9608,4.9608,4.9608,4.9608,4.9608,4.9608,4.9608,0.0,0.0,4.9608,4.9608,4.9608,4.9556,4.9293,4.8819,4.8301,4.7936,4.7424,4.691,4.6818,4.6265,4.5455,4.4633,4.4278,4.4288,4.47,4.4796,4.465,4.4401,4.4166,4.3983,4.392,4.3958,4.4038,4.4038,4.4092,4.4307,4.4817,4.4924,4.5058,4.5512,4.5593,4.5646,4.5796,4.6256,4.671,4.7087,4.7328,4.7553,4.7783,4.7869,4.7596,4.682,4.6516,4.6077,4.5307,4.5091,4.4807,4.4295,4.4124,4.3785,4.3246,4.3219,4.2948,4.2365,4.2337,4.2039,4.1442,4.0964,4.0634,4.0415,3.9959,3.9838,3.6334,3.6795,3.7108,3.6857,3.7551,3.8302,3.8302,3.8302,3.8302,3.8302,3.8576,3.894,3.9338,3.9921,4.0583,4.1405,4.3726,4.6152,4.8266,5.0364,5.1865,5.2339,5.3809,5.487,5.5038,5.5452,5.5614,5.531,5.5402,5.4682,5.2918,5.2918,5.2153,5.0411,5.0345,5.0124,4.9608,4.9608,4.9608,4.9608,4.9608,4.9608,4.9608,4.9608,4.9608,4.9608,0.0,4.9608,4.9608,4.9608,4.9608,4.9608,4.9556,4.9296,4.896,4.881,4.8233,4.7418,4.6954,4.6719,4.6544,4.6396,4.6009,4.5713,4.6254,4.6107,4.5789,4.6249,4.5405,4.4328,4.3999,4.428,4.4656,4.4656,4.5004,4.5352,4.5459,4.5512,4.5582,4.5593,4.5593,4.5779,4.6286,4.6731,4.709,4.7316,4.7619,4.7758,4.7511,4.7715,4.7832,4.77,4.7495,4.7328,4.7169,4.6425,4.5963,4.5855,4.5103,4.4388,4.3812,4.3785,4.3515,4.2975,4.2948,4.2678,4.2051,4.197,4.1919,4.187,4.2075,4.1924,3.6285,3.6765,3.722,3.7257,3.7781,3.8302,3.8302,3.8302,3.837,3.8576,3.8764,3.9298,4.0651,4.0727,4.1235,4.3179,4.6126,4.8638,4.9922,5.1752,5.3147,5.3577,5.463,5.543,5.5599,5.6035,5.6261,5.6188,5.6181,5.5544,5.4095,5.4014,5.3363,5.1934,5.131,5.0852,5.0586,4.9923,4.9608,4.9608,4.9608,4.9608,4.9608,4.9608,4.9608,4.9608,0.0,4.9608,4.9608,4.9608,4.9608,4.9608,4.9608,4.9505,4.9368,4.9323,4.9049,4.8576,4.783,4.7555,4.7483,4.6966,4.6599,4.6478,4.6928,4.6879,4.6702,4.6978,4.6429,4.5693,4.553,4.5498,4.5556,4.5556,4.558,4.5699,4.6019,4.6099,4.6206,4.6515,4.672,4.6884,4.6974,4.7469,4.7805,4.7697,4.7998,4.8169,4.8025,4.8118,4.8238,4.8238,4.786,4.7608,4.7608,4.6731,4.599,4.547,4.5021,4.4522,4.3904,4.3904,4.3785,4.3542,4.3542,4.3408,4.3122,4.3011,4.3033,4.3218,4.3042,4.3012,3.62,3.6713,3.7296,3.7693,3.8049,3.8353,3.8541,3.8507,3.8576,3.9055,3.9226,3.9834,4.1571,4.1749,4.258,4.5514,4.8359,5.0517,5.1503,5.3003,5.4154,5.4629,5.5332,5.5794,5.5891,5.6328,5.6609,5.6609,5.6609,5.6054,5.4879,5.4798,5.4285,5.3136,5.2245,5.165,5.1403,5.0466,4.9902,4.9608,4.9608,4.9608,4.9608,4.9608,4.9608,4.9608,4.9608,4.9608,4.9608,4.9608,4.9608,4.9608,4.9608,4.9608,4.9608,4.9505,4.9529,4.9484,4.8786,4.8536,4.843,4.7687,4.734,4.7318,4.7717,4.7728,4.7651,4.78,4.7639,4.7362,4.6911,4.6607,4.6396,4.6396,4.6261,4.6259,4.674,4.6887,4.7115,4.7568,4.7861,4.792,4.757,4.8145,4.847,4.7851,4.8186,4.8488,4.8358,4.8358,4.8426,4.8597,4.8234,4.7961,4.7961,4.7165,4.6333,4.5496,4.513,4.4618,4.3947,4.3904,4.3951,4.4031,4.4031,4.4078,4.4158,4.3924,4.3984,4.4301,4.3754,4.3872,3.647,3.6881,3.7296,3.7693,3.8049,3.849,3.9253,3.9111,3.9055,3.9768,4.0224,4.0646,4.1161,4.3134,4.5628,4.8509,5.013,5.1522,5.3016,5.368,5.4154,5.4629,5.5078,5.5481,5.5872,5.6328,5.6609,5.6609,5.6609,5.6054,5.4879,5.4798,5.4285,5.3136,5.3027,5.2481,5.1403,5.133,5.0707,4.9608,4.9608,4.9608,4.9608,4.9608,4.9608,4.9608,4.9608,4.9608,4.9608,4.9608,4.9608,4.9608,4.9608,4.9608,4.9556,4.9241,4.9344,4.9608,4.9535,4.9484,4.9484,4.9411,4.9023,4.8673,4.9262,4.9046,4.8723,4.929,4.9411,4.9009,4.7257,4.6922,4.7033,4.7033,4.7376,4.7761,4.7788,4.8089,4.8382,4.8409,4.8453,4.8323,4.7937,4.8529,4.8693,4.7597,4.8042,4.8358,4.7988,4.7954,4.8211,4.8902,4.8981,4.8981,4.8981,4.8426,4.7873,4.7432,4.6041,4.4849,4.3947,4.3904,4.4063,4.4439,4.4466,4.4614,4.4911,4.4586,4.4618,4.4936,4.4564,4.4762,3.6251,3.6922,3.7608,3.7766,3.843,3.9042,3.9111,3.9346,3.9808,4.0583,4.1365,4.2353,4.3845,4.6387,4.855,4.9509,5.1045,5.2401,5.3275,5.4199,5.4857,5.5058,5.5683,5.6172,5.6328,5.6484,5.6609,5.6609,5.6609,5.6395,5.5947,5.592,5.5705,5.5275,5.4528,5.396,5.3526,5.2818,5.2226,5.1769,5.1045,5.1092,5.1742,5.1045,5.0724,5.0659,4.9923,4.9608,4.9608,4.9608,4.9608,4.9608,4.9608,4.9608,4.9563,4.9454,4.9505,4.9608,4.9608,4.9608,4.9608,4.9608,4.9441,4.9313,4.9535,4.9441,4.9313,4.9535,4.9608,4.9456,4.8735,4.8254,4.8043,4.8281,4.7966,4.7656,4.7851,4.8023,4.8125,4.8125,4.8529,4.8762,4.8341,4.8717,4.882,4.8196,4.8333,4.847,4.8289,4.8272,4.845,4.8954,4.906,4.8854,4.8209,4.7964,4.7495,4.6775,4.5813,4.5168,4.4849,4.422,4.3967,4.411,4.436,4.4562,4.4689,4.4963,4.5186,4.5309,4.5186,4.5376,3.6268,3.7008,3.7835,3.7933,3.8739,3.9493,3.9453,3.9933,4.0726,4.1949,4.3197,4.4632,4.6439,4.8586,5.0142,5.0355,5.1821,5.3033,5.3345,5.4258,5.4974,5.5273,5.582,5.6289,5.6589,5.6609,5.6609,5.6609,5.6609,5.6609,5.6609,5.6609,5.6609,5.6609,5.5813,5.5095,5.4555,5.3933,5.3544,5.3381,5.2773,5.27,5.3054,5.229,5.1842,5.1623,5.0779,5.0411,5.0411,5.0245,5.0272,5.0411,5.0245,5.0172,5.0117,4.9729,4.9608,4.9608,4.9608,4.9608,4.9608,4.9608,4.9608,4.9608,4.9608,4.9608,4.9608,4.9608,4.9608,4.9608,4.9608,4.906,4.8607,4.9002,4.8402,4.7854,4.8177,4.8348,4.8433,4.8433,4.8871,4.9111,4.8734,4.893,4.8981,4.8409,4.8512,4.8615,4.8495,4.8505,4.8632,4.8981,4.9163,4.894,4.8138,4.8014,4.7629,4.687,4.6003,4.5454,4.5411,4.4623,4.4156,4.4078,4.4455,4.4709,4.4816,4.5281,4.5551,4.565,4.5428,4.5583,3.659,3.7176,3.7865,3.8199,3.8905,3.972,4.0435,4.0937,4.1839,4.4004,4.5862,4.7437,4.8513,4.9368,5.0236,5.1251,5.2519,5.3384,5.3384,5.375,5.433,5.5215,5.5312,5.5644,5.653,5.6609,5.6609,5.6609,5.6609,5.6609,5.6609,5.6609,5.6609,5.6609,5.6609,5.5778,5.4033,5.4555,5.4555,5.4033,5.4555,5.4231,5.3136,5.3109,5.2791,5.2217,5.2217,5.2217,5.2144,5.1623,5.1715,5.2144,5.1623,5.143,5.1265,5.0051,4.9635,4.9635,4.9635,4.9608,4.9608,4.9608,4.9608,4.9608,4.9608,4.9608,4.9608,4.9608,4.9608,4.9608,4.9608,4.906,4.8607,4.9002,4.8796,4.858,4.893,4.9323,4.9608,4.9608,4.9608,4.9477,4.9084,4.9323,4.9214,4.8091,4.8526,4.8878,4.8529,4.8522,4.8676,4.9053,4.9402,4.9454,4.9111,4.886,4.855,4.8208,4.6752,4.5768,4.5427,4.5028,4.4715,4.4514,4.4816,4.5182,4.5504,4.5504,4.5678,4.5971,4.5329,4.5376,3.632,3.7008,3.7835,3.7916,3.9116,4.0581,4.1809,4.2601,4.3908,4.6827,4.8046,4.8904,4.9983,5.0596,5.1255,5.2177,5.2585,5.3021,5.3713,5.384,5.4228,5.5182,5.5312,5.5644,5.653,5.6308,5.625,5.6589,5.6609,5.6609,5.6609,5.6609,5.6609,5.6609,5.6609,5.6154,5.5194,5.5759,5.5759,5.5194,5.5786,5.5893,5.5517,5.4663,5.4204,5.3941,5.2718,5.2217,5.2172,5.2026,5.2053,5.2217,5.2481,5.2609,5.2536,5.2198,5.155,5.0852,5.0852,5.0293,4.9608,4.9608,4.9608,4.9608,4.9608,4.9608,4.9608,4.9608,4.9608,4.9608,4.9608,4.9265,4.9002,4.9368,4.8974,4.8597,4.9002,4.9135,4.9186,4.9241,4.9447,4.9556,4.9454,4.9344,4.9214,4.9111,4.8844,4.87,4.8827,4.8899,4.9053,4.9402,4.9077,4.8796,4.8693,4.8349,4.8223,4.8404,4.7594,4.6791,4.6141,4.5148,4.4677,4.4836,4.5182,4.5408,4.5504,4.573,4.5904,4.6,4.5805,4.5805,3.6559,3.7162,3.8039,3.9027,4.0122,4.1649,4.4264,4.533,4.6448,4.8729,4.9653,5.0324,5.1148,5.166,5.2085,5.2592,5.2921,5.3246,5.3699,5.3814,5.4164,5.4974,5.5195,5.5566,5.6269,5.6223,5.6308,5.6562,5.6609,5.6609,5.6609,5.6609,5.6609,5.6609,5.6609,5.6207,5.5375,5.5939,5.5939,5.5375,5.5966,5.6368,5.6582,5.5839,5.5383,5.5095,5.3816,5.3136,5.2945,5.3163,5.3272,5.3272,5.3408,5.3599,5.3734,5.3272,5.2673,5.208,5.208,5.1595,5.0972,5.0972,5.0972,5.0972,5.0972,5.0659,5.0338,5.0338,4.9978,4.9608,4.9608,4.9454,4.9344,4.9556,4.9163,4.8847,4.9214,4.9265,4.9265,4.9293,4.9454,4.968,4.993,4.9575,4.9393,4.9689,4.9173,4.8871,4.9214,4.9265,4.9396,4.9563,4.9214,4.8871,4.8762,4.8649,4.8523,4.84,4.8035,4.749,4.6644,4.5578,4.5003,4.5007,4.5329,4.5504,4.5504,4.5825,4.6,4.6,4.6,4.6,3.7149,3.7648,3.8617,4.0966,4.1795,4.3077,4.7215,4.8515,4.9052,4.9869,5.0768,5.1538,5.1992,5.2422,5.2715,5.2754,5.3426,5.381,5.3502,5.3719,5.4122,5.4629,5.5019,5.543,5.5872,5.6289,5.6543,5.6609,5.6609,5.6609,5.6609,5.6609,5.6609,5.6609,5.6609,5.6073,5.499,5.5456,5.5456,5.499,5.5456,5.602,5.6609,5.6609,5.6261,5.5671,5.516,5.4612,5.4043,5.4693,5.4936,5.4855,5.4412,5.4528,5.4852,5.3816,5.3354,5.3245,5.3245,5.3191,5.3082,5.3082,5.3082,5.3082,5.3082,5.2317,5.1403,5.1403,5.0531,4.9635,4.9729,4.968,4.9635,4.9729,4.9444,4.9241,4.9529,4.9608,4.9608,4.9608,4.9608,4.9757,5.0317,5.0023,4.9747,4.9931,4.9495,4.9241,4.9556,4.9635,4.968,4.968,4.9657,4.9502,4.9204,4.9423,4.9181,4.8335,4.828,4.7878,4.7097,4.6292,4.5621,4.5086,4.5404,4.5551,4.5551,4.5853,4.6,4.6,4.6,4.6,3.7736,3.8782,4.021,4.174,4.3923,4.617,4.8116,4.9243,5.01,5.0911,5.1256,5.1538,5.1992,5.2422,5.2812,5.3189,5.3316,5.3499,5.383,5.3582,5.3693,5.4603,5.4791,5.5117,5.5833,5.5989,5.6184,5.6562,5.6609,5.6609,5.6609,5.6609,5.6609,5.6609,5.6609,5.6234,5.5536,5.5644,5.5644,5.5536,5.5644,5.602,5.6609,5.6609,5.6261,5.5698,5.559,5.4963,5.407,5.5106,5.5267,5.499,5.5751,5.6127,5.6161,5.5939,5.5248,5.442,5.442,5.3851,5.3082,5.3082,5.3082,5.3082,5.3082,5.2317,5.1403,5.1403,5.0531,4.983,5.0779,5.0293,4.983,5.0779,5.0213,4.9505,4.9563,4.9608,4.9608,4.9608,4.9608,4.9635,4.9757,5.0079,5.0338,5.0361,4.9892,4.9505,4.9608,5.0023,5.0317,5.0317,5.0022,4.9814,4.9727,4.9403,4.9135,4.8912,4.8709,4.8506,4.8311,4.6991,4.612,4.5777,4.5873,4.5901,4.5901,4.5952,4.6,4.6,4.6,4.6,3.8153,3.927,4.0962,4.3309,4.5853,4.8092,4.9189,4.982,5.041,5.1226,5.1577,5.1816,5.2031,5.2622,5.3111,5.3345,5.3502,5.3691,5.3947,5.3768,5.3847,5.4603,5.4863,5.5234,5.5852,5.6087,5.6348,5.6562,5.6609,5.6609,5.6609,5.6609,5.6609,5.6609,5.6609,5.6314,5.5698,5.5456,5.5456,5.5698,5.5429,5.5751,5.6609,5.6609,5.6421,5.61,5.5832,5.5348,5.4836,5.516,5.5294,5.5321,5.5939,5.6341,5.6609,5.6609,5.6188,5.5678,5.5678,5.5275,5.4763,5.4763,5.4763,5.4763,5.4763,5.3978,5.3036,5.3036,5.2172,5.143,5.2034,5.1742,5.143,5.2053,5.088,4.9608,4.9608,4.9608,4.9708,4.9978,4.9802,4.9785,5.0366,5.0466,5.0511,5.0511,4.9978,4.9708,4.9978,5.0051,5.0051,5.0051,4.9889,4.9757,4.9757,4.9492,4.9344,4.9344,4.8945,4.8701,4.8701,4.766,4.6874,4.645,4.6422,4.6422,4.6422,4.672,4.672,4.645,4.6627,4.6469,3.8564,3.9831,4.1858,4.5132,4.7369,4.9027,4.9984,5.0199,5.041,5.1226,5.1719,5.2036,5.2192,5.2798,5.3326,5.3482,5.3789,5.3998,5.3998,5.4076,5.4213,5.4531,5.5,5.5384,5.5657,5.6172,5.6465,5.6465,5.6543,5.6609,5.6609,5.6609,5.6609,5.6609,5.6609,5.6368,5.5859,5.5313,5.524,5.5698,5.524,5.559,5.6609,5.6609,5.6609,5.6555,5.6073,5.5805,5.5671,5.534,5.5375,5.5725,5.5805,5.61,5.6448,5.6555,5.6528,5.6448,5.6555,5.6609,5.6609,5.6609,5.6609,5.6609,5.6609,5.5759,5.4798,5.4798,5.3987,5.3136,5.3327,5.3245,5.3136,5.3354,5.1742,5.0144,4.9951,4.9923,5.0023,5.0411,5.0096,5.0051,5.1073,5.0732,5.0411,5.0631,5.0051,4.983,5.0411,5.0051,4.9757,4.9757,4.9757,4.9757,4.9757,4.9663,4.9608,4.9608,4.9119,4.8852,4.8852,4.8283,4.7669,4.7069,4.7069,4.7001,4.69,4.7517,4.7545,4.7069,4.7297,4.6953,3.9084,4.1392,4.4355,4.6728,4.7823,4.8633,4.9906,5.0199,5.041,5.1226,5.146,5.1714,5.248,5.2715,5.3047,5.3783,5.3959,5.3998,5.3998,5.4355,5.4473,5.4134,5.4824,5.5195,5.4883,5.5566,5.5989,5.5989,5.6367,5.6609,5.6609,5.6609,5.6609,5.6609,5.6609,5.6555,5.6475,5.5886,5.5644,5.5698,5.5617,5.5939,5.6609,5.6609,5.6609,5.6609,5.6502,5.6181,5.5725,5.6181,5.61,5.5751,5.6288,5.6207,5.5886,5.6395,5.6261,5.5886,5.6421,5.6609,5.6609,5.6609,5.6609,5.6609,5.6609,5.5759,5.4798,5.4798,5.3987,5.3327,5.4312,5.3824,5.3354,5.4339,5.358,5.2345,5.1358,5.1165,5.1045,5.0584,5.0438,5.0438,5.0586,5.0124,5.0079,5.1138,5.0338,4.983,5.0411,5.0438,5.039,5.039,5.039,5.039,5.039,4.9902,4.9608,4.9608,4.9535,4.9486,4.9486,4.8896,4.8311,4.7697,4.769,4.7422,4.69,4.7517,4.7769,4.769,4.7202,4.6921,4.0932,4.298,4.5128,4.71,4.7891,4.8555,4.9906,5.0199,5.041,5.1226,5.1401,5.1597,5.2246,5.2754,5.3228,5.3594,5.3842,5.3998,5.3998,5.4173,5.4336,5.4394,5.4726,5.498,5.5019,5.556,5.5911,5.5911,5.6328,5.6609,5.6609,5.6609,5.6609,5.6609,5.6609,5.6609,5.6609,5.5993,5.5698,5.5698,5.6047,5.6341,5.6609,5.6609,5.6609,5.6609,5.6609,5.6448,5.6207,5.6475,5.6448,5.6234,5.6502,5.6448,5.6234,5.6502,5.6421,5.6234,5.6502,5.6609,5.6609,5.6609,5.6609,5.6609,5.6609,5.6234,5.5813,5.5813,5.5437,5.5167,5.5678,5.5437,5.5194,5.5678,5.5437,5.4547,5.2727,5.1842,5.1138,5.0172,5.0272,5.0393,5.0051,4.9785,4.9902,5.0752,5.0438,5.0217,5.0466,5.0511,5.0373,5.0023,4.9996,4.9996,4.9996,4.9757,4.9608,4.9608,4.9268,4.9247,4.9608,4.9024,4.8579,4.8311,4.7965,4.769,4.7422,4.8009,4.8311,4.8283,4.7871,4.7573,4.2235,4.3686,4.4766,4.677,4.7656,4.8398,4.9707,5.0098,5.041,5.1226,5.1401,5.1577,5.2148,5.2674,5.3027,5.3027,5.3469,5.3755,5.3657,5.396,5.4277,5.4492,5.4635,5.4765,5.4935,5.5442,5.5755,5.5755,5.6289,5.6609,5.6609,5.6609,5.6609,5.6609,5.6609,5.6528,5.6368,5.5778,5.5644,5.5939,5.6234,5.6368,5.6368,5.6368,5.6368,5.6368,5.6528,5.6609,5.6609,5.6609,5.6609,5.6609,5.6609,5.6502,5.6395,5.6528,5.6502,5.6395,5.6555,5.6609,5.6609,5.6609,5.6609,5.6609,5.6609,5.6609,5.6609,5.6609,5.6609,5.6609,5.6609,5.6609,5.6648,5.6719,5.666,5.5966,5.3599,5.208,5.0897,4.9939,5.0234,5.0501,4.9976,4.9796,4.9967,5.055,5.0425,5.0366,5.0704,5.0466,5.0151,4.9857,4.9708,4.9608,4.9608,4.9608,4.9608,4.9608,4.9191,4.9119,4.9563,4.9174,4.8852,4.8701,4.8255,4.8037,4.8037,4.8635,4.8924,4.8924,4.8567,4.8319,4.2173,4.2874,4.3229,4.5742,4.6992,4.7972,4.9234,4.9883,5.041,5.1226,5.1401,5.1655,5.2495,5.2291,5.1979,5.1979,5.2698,5.3102,5.2742,5.3814,5.4512,5.4095,5.4433,5.4531,5.4115,5.4818,5.5332,5.5332,5.6113,5.6609,5.6609,5.6609,5.6609,5.6609,5.6609,5.6341,5.5751,5.5206,5.5483,5.6555,5.602,5.5751,5.5751,5.5751,5.5751,5.5778,5.6341,5.6609,5.6609,5.6609,5.6609,5.6609,5.6609,5.6261,5.5832,5.6395,5.6234,5.5832,5.6395,5.6609,5.6609,5.6609,5.6609,5.6609,5.6609,5.6609,5.6609,5.6609,5.6609,5.6609,5.6609,5.6609,5.668,5.709,5.6875,5.5966,5.3599,5.1742,5.0477,5.021,5.066,5.0988,5.0686,5.0378,5.0363,5.0978,5.0265,5.0051,5.121,5.0338,4.9857,5.0411,4.9951,4.9608,4.9608,4.9608,4.9608,4.9608,4.9563,4.9563,4.9608,4.9563,4.9268,4.8701,4.8674,4.8657,4.8657,4.9247,4.9535,4.9535,4.8952,4.8864,4.1701,4.2754,4.3699,4.5476,4.6543,4.75,4.8808,4.9433,5.0,5.0835,5.1011,5.1187,5.1753,5.1937,5.228,5.3089,5.3295,5.3354,5.3464,5.3935,5.4173,5.4017,5.4134,5.4173,5.4017,5.4779,5.5312,5.5312,5.6094,5.6609,5.6609,5.6609,5.6609,5.6609,5.6609,5.6314,5.5698,5.5886,5.5993,5.602,5.6207,5.6073,5.5698,5.5698,5.5698,5.5725,5.5939,5.6234,5.6609,5.6609,5.6609,5.6609,5.6609,5.6475,5.6314,5.6528,5.6448,5.6314,5.6528,5.6609,5.6609,5.6609,5.6609,5.6609,5.6609,5.6609,5.6609,5.6609,5.6609,5.6609,5.6609,5.6609,5.6699,5.7109,5.6542,5.5668,5.4825,5.2944,5.1483,5.1691,5.1248,5.0804,5.0715,5.059,5.0589,5.0809,5.0981,5.111,5.1203,5.1277,5.1118,5.0566,5.0659,5.0438,4.9663,4.9951,5.0023,4.9635,4.9608,4.9608,4.9608,4.9608,4.9507,4.9268,4.9268,4.9091,4.8701,4.8924,4.9219,4.9608,4.8997,4.8981,4.1619,4.2728,4.381,4.5127,4.6094,4.7028,4.8363,4.8984,4.9551,5.041,5.0703,5.0913,5.1323,5.1636,5.2099,5.2782,5.3029,5.314,5.327,5.3695,5.3998,5.3998,5.3998,5.3998,5.3998,5.4687,5.5098,5.5098,5.5762,5.6152,5.6152,5.6152,5.6211,5.6367,5.6317,5.6207,5.5993,5.6207,5.6207,5.602,5.6395,5.6288,5.5698,5.5698,5.5698,5.5698,5.5698,5.6047,5.6609,5.6609,5.6609,5.6609,5.6609,5.6609,5.6609,5.6609,5.6609,5.6609,5.6609,5.6609,5.6609,5.6609,5.6609,5.6609,5.6609,5.6609,5.6609,5.6609,5.6609,5.6621,5.6758,5.7012,5.7226,5.7226,5.6843,5.6462,5.6336,5.4283,5.2623,5.3084,5.2331,5.164,5.169,5.1367,5.1059,5.0903,5.1326,5.1522,5.131,5.1624,5.1598,5.0796,5.1125,5.0972,4.9978,5.0272,5.0397,5.0113,4.9918,4.9796,4.9796,4.9796,4.9745,4.9608,4.9608,4.9413,4.8997,4.8997,4.9219,4.9608,4.9191,4.9219,0.0,0.0,0.0,4.4658,4.5623,4.6621,4.7871,4.8519,4.9109,4.9984,5.0469,5.0898,5.1323,5.1401,5.1256,5.0793,5.1729,5.2352,5.1993,5.3122,5.3998,5.3998,5.3998,5.3998,5.3998,5.4433,5.4713,5.4713,5.5078,5.5312,5.5312,5.5312,5.5501,5.5911,5.5807,5.5993,5.6555,5.602,5.602,5.6582,5.6582,5.6288,5.5698,5.5698,5.5698,5.5698,5.5698,5.6047,5.6609,5.6609,5.6609,5.6609,5.6609,5.6609,5.6609,5.6609,5.6609,5.6609,5.6609,5.6609,5.6609,5.6609,5.6609,5.6609,5.6609,5.6628,5.6628,5.6628,5.6648,5.6719,5.7129,5.7851,5.8273,5.7461,5.7883,5.839,5.7996,5.5772,5.3953,5.4301,5.3873,5.3509,5.3735,5.2769,5.1888,5.1446,5.1264,5.131,5.1609,5.1369,5.1124,5.1124,5.1312,5.121,5.0566,5.0538,5.0695,5.1051,5.0537,5.019,5.0218,5.0218,5.003,4.9614,4.9635,4.9608,4.9608,4.9608,4.9608,4.9608,4.9608,4.9608,4.1852,0.0,0.0,0.0,0.0,0.0,4.668,4.7148,4.7891,4.9371,4.9531,4.9828,5.1148,5.1148,5.1026,5.1192,5.1771,5.2393,5.2905,5.3323,5.3672,5.3959,5.3998,5.3998,5.3998,5.4433,5.4713,5.4713,5.5351,5.5599,5.5332,5.5579,5.593,5.6387,5.6363,5.6207,5.5939,5.6207,5.6207,5.5939,5.6395,5.6288,5.5698,5.5698,5.5698,5.5698,5.5698,5.6047,5.6609,5.6609,5.6609,5.6609,5.6609,5.6609,5.6609,5.6609,5.6609,5.6609,5.6609,5.6609,5.6609,5.6609,5.6609,5.6609,5.6609,5.6797,5.7031,5.7031,5.7293,5.7566,5.7683,5.7879,5.8086,5.8144,5.8332,5.8476,5.8359,5.7719,5.7047,5.6553,5.5393,5.4606,5.4936,5.4715,5.4325,5.3779,5.3397,5.3073,5.2737,5.2463,5.2147,5.1738,5.225,5.2169,5.1033,5.1284,5.132,5.0832,5.0422,5.0321,5.0538,5.0327,5.0139,5.0036,5.0036,4.9899,4.9608,4.9608,4.9608,4.9608,4.9608,4.9745,0.0,0.0,0.0,4.4512,0.0,0.0,4.6621,4.6853,4.7341,4.8926,4.9203,4.9453,5.0425,5.0586,5.0683,5.1069,5.1387,5.1855,5.274,5.315,5.3482,5.3711,5.39,5.3998,5.3998,5.4258,5.4414,5.4414,5.4837,5.5091,5.5058,5.5423,5.5852,5.6308,5.6484,5.6421,5.6073,5.6421,5.6421,5.6073,5.6421,5.6421,5.6073,5.6073,5.6073,5.6073,5.6073,5.6288,5.6609,5.6609,5.6609,5.6609,5.6609,5.6609,5.6609,5.6609,5.6609,5.6609,5.6609,5.6609,5.6609,5.6609,5.6699,5.6816,5.664,5.6875,5.7207,5.7207,5.7656,5.8144,5.8144,5.8289,5.8465,5.8507,5.8652,5.8742,5.8538,5.8507,5.8372,5.7889,5.687,5.6113,5.6214,5.5971,5.5559,5.5058,5.4851,5.4489,5.3811,5.3686,5.3345,5.2495,5.3113,5.307,5.1782,5.1978,5.1919,5.1353,5.0897,5.0744,5.0932,5.0772,5.0504,5.0218,5.019,5.0002,4.9608,4.9773,4.9847,4.9847,4.9666,4.9717,0.0,0.0,0.0,0.0,4.5351,0.0,4.6973,4.7109,4.7243,4.8499,4.9023,4.9313,4.941,4.9766,5.0199,5.0586,5.0742,5.1094,5.1919,5.274,5.3273,5.3273,5.3613,5.3881,5.392,5.3939,5.3939,5.3998,5.3998,5.4213,5.4752,5.5058,5.543,5.5813,5.6289,5.6504,5.6504,5.6562,5.6609,5.6609,5.6609,5.6609,5.6609,5.6609,5.6609,5.6609,5.6609,5.6609,5.6609,5.6609,5.6609,5.6609,5.6609,5.6609,5.6609,5.6609,5.6648,5.664,5.6628,5.664,5.6745,5.668,5.6933,5.7207,5.6777,5.6953,5.7285,5.7317,5.7863,5.8449,5.8566,5.8828,5.9032,5.8655,5.8887,5.909,5.8683,5.8566,5.8566,5.8566,5.8148,5.7736,5.7559,5.6914,5.6297,5.5874,5.5896,5.5682,5.4887,5.4926,5.4604,5.35,5.4071,5.3993,5.2778,5.2655,5.2522,5.2179,5.1624,5.1303,5.1354,5.1303,5.0983,5.0327,5.0276,5.0087,4.9796,5.003,5.0139,5.0115,4.9773,4.9608,0.0,0.0,0.0,0.0,0.0,0.0,4.5584,4.6228,4.7067,4.7737,4.7913,4.8187,4.889,4.9086,4.9281,4.9683,5.0328,5.0976,5.146,5.2012,5.2349,5.2349,5.2715,5.3105,5.3482,5.3521,5.3633,5.3978,5.3998,5.4349,5.5137,5.4941,5.5,5.5384,5.5813,5.6028,5.6028,5.6406,5.6609,5.6609,5.6609,5.6609,5.6609,5.6609,5.6609,5.6609,5.6609,5.6609,5.6609,5.6609,5.6609,5.6609,5.6609,5.6609,5.6609,5.6609,5.6797,5.7051,5.6699,5.7058,5.7586,5.7207,5.7383,5.7683,5.7226,5.7383,5.782,5.8156,5.8144,5.8172,5.8887,5.8859,5.8711,5.9004,5.9121,5.918,5.9062,5.9062,5.9062,5.9062,5.8667,5.8458,5.8775,5.8716,5.8398,5.7842,5.7324,5.6779,5.6128,5.5812,5.5534,5.529,5.5553,5.52,5.3802,5.3705,5.3206,5.2049,5.1532,5.1457,5.1777,5.1457,5.1223,5.1086,5.0772,5.0721,5.0961,5.0139,4.9738,4.9738,4.9642,4.9608,0.0,0.0,0.0,4.5605,0.0,0.0,0.0,4.6443,4.6855,4.7715,4.7757,4.7796,4.8441,4.8382,4.846,4.9082,4.9574,4.998,5.0406,5.1187,5.168,5.1465,5.2012,5.248,5.272,5.2935,5.3223,5.3652,5.3691,5.4082,5.4941,5.5,5.5195,5.5579,5.5794,5.6009,5.625,5.625,5.6367,5.6609,5.6609,5.6609,5.6609,5.6609,5.6609,5.6609,5.6609,5.6609,5.6609,5.6609,5.6609,5.6609,5.6609,5.6609,5.6601,5.6816,5.6894,5.6894,5.6894,5.7031,5.7253,5.7207,5.7363,5.75,5.7285,5.7519,5.7937,5.8144,5.8379,5.8641,5.909,5.9032,5.8914,5.9149,5.9207,5.9207,5.9207,5.9207,5.9207,5.9207,5.9004,5.8917,5.9149,5.9207,5.9087,5.8768,5.8479,5.8039,5.7428,5.7182,5.6947,5.6629,5.6702,5.6328,5.5303,5.5199,5.4496,5.2892,5.3177,5.2959,5.1955,5.2274,5.2112,5.1303,5.0881,5.0795,5.1012,5.043,5.0247,5.043,5.0241,5.0139,0.0,0.0,0.0,0.0,0.0,4.6272,0.0,0.0,0.0,4.7656,4.7637,4.7539,4.7793,4.7617,4.7679,4.8284,4.862,4.8832,4.8981,5.0035,5.0718,5.0586,5.125,5.1777,5.1933,5.2344,5.2773,5.3228,5.3267,5.3599,5.4401,5.4824,5.5228,5.5657,5.5677,5.5898,5.6355,5.6048,5.6048,5.6348,5.653,5.6543,5.6465,5.6543,5.6609,5.6609,5.6609,5.6609,5.6609,5.6609,5.6609,5.6609,5.6609,5.664,5.6738,5.709,5.7109,5.6992,5.7148,5.7109,5.6992,5.7148,5.7207,5.7226,5.7305,5.7547,5.7793,5.7984,5.8524,5.909,5.918,5.9207,5.9207,5.9207,5.9207,5.9207,5.9207,5.9207,5.9207,5.9207,5.9207,5.9207,5.9207,5.9207,5.9207,5.9207,5.9207,5.9012,5.8555,5.8479,5.8283,5.7805,5.7748,5.7428,5.6647,5.6571,5.5853,5.4169,5.4741,5.4272,5.2332,5.2967,5.2735,5.1434,5.1115,5.0926,5.0926,5.0926,5.1012,5.1172,5.0846,5.0692,0.0,0.0,0.0,0.0,4.6623,0.0,0.0,0.0,4.7266,4.6641,0.0,4.6872,4.6582,0.0,0.0,4.6641,4.7539,4.8027,4.7302,4.7985,4.8824,4.9566,5.0098,5.0683,5.1401,5.1894,5.2324,5.2754,5.2773,5.2988,5.3502,5.3926,5.4349,5.4805,5.485,5.5019,5.5449,5.5755,5.5735,5.5469,5.623,5.6387,5.5989,5.6406,5.6609,5.6609,5.6609,5.6609,5.6609,5.6609,5.6609,5.6609,5.6609,5.6816,5.7148,5.716,5.7648,5.8183,5.7434,5.7668,5.8156,5.7461,5.7207,5.7285,5.7703,5.7586,5.7441,5.8215,5.8507,5.8683,5.909,5.9207,5.9207,5.9207,5.9207,5.9207,5.9207,5.9207,5.9207,5.9207,5.9207,5.9207,5.9207,5.9207,5.9207,5.9207,5.9207,5.918,5.9115,5.9087,5.9087,5.9012,5.9012,5.8497,5.7306,5.7184,5.6647,5.5387,5.4416,5.3774,5.3497,5.2592,5.2008,5.1829,5.1777,5.1772,5.1772,5.1772,5.1406,5.0772,5.0721,5.0692,0.0,0.0,0.0,0.0,0.0,0.0,0.0,0.0,4.6816,0.0,0.0,0.0,0.0,0.0,0.0,0.0,4.6758,4.6973,4.6599,4.7067,4.777,4.8629,4.8926,4.9473,5.0586,5.0859,5.1367,5.2266,5.2085,5.2383,5.3351,5.3789,5.4238,5.4694,5.4713,5.4883,5.5312,5.5234,5.5345,5.5657,5.6009,5.625,5.6308,5.6504,5.6609,5.6609,5.6609,5.6609,5.6609,5.6609,5.6609,5.6609,5.6609,5.6836,5.7246,5.75,5.784,5.8113,5.7715,5.7676,5.7687,5.7324,5.7383,5.7644,5.784,5.7937,5.8039,5.839,5.8711,5.8945,5.9149,5.9207,5.9207,5.9207,5.9207,5.9207,5.9207,5.9207,5.9207,5.9207,5.9207,5.9207,5.9207,5.9207,5.9207,5.9207,5.9207,5.9207,5.9207,5.9207,5.9207,5.9207,5.9207,5.8984,5.8451,5.8404,5.7888,5.6618,5.5407,5.4741,5.4741,5.3594,5.2615,5.1909,5.1909,5.1909,5.1909,5.1909,5.1726,5.14,5.14,5.14,4.7126,0.0,0.0,0.0,0.0,0.0,0.0,0.0,0.0,0.0,0.0,0.0,0.0,0.0,0.0,0.0,0.0,4.6191,4.582,4.613,4.6755,4.7712,4.8066,4.8672,4.9883,4.9785,5.0215,5.1645,5.1328,5.1699,5.313,5.3594,5.4101,5.4694,5.4596,5.4707,5.5137,5.4941,5.5098,5.556,5.5794,5.6067,5.6406,5.6406,5.6465,5.6609,5.6609,5.6609,5.6609,5.6609,5.6609,5.6628,5.6719,5.6933,5.7246,5.7586,5.7808,5.7879,5.7762,5.7402,5.7051,5.7168,5.7422,5.7762,5.7996,5.8262,5.8535,5.8652,5.8945,5.9207,5.9207,5.9207,5.9207,5.9207,5.9207,5.9207,5.9207,5.9207,5.9207,5.9207,5.9207,5.9207,5.9207,5.9207,5.9207,5.9207,5.9207,5.9207,5.9207,5.9207,5.9207,5.9207,5.9207,5.9207,5.9207,5.9207,5.8648,5.7381,5.6477,5.5834,5.5511,5.4645,5.3796,5.2892,5.2563,5.2389,5.2389,5.2054,5.1909,5.1909,5.1909,5.1909,0.0,0.0,0.0,4.7243,0.0,0.0,0.0,0.0,4.6775,0.0,0.0,0.0,0.0,0.0,0.0,0.0,0.0,0.0,0.0,4.4803,4.5525,4.6794,4.7673,4.8532,4.943,4.8746,4.8984,5.0723,5.0449,5.0981,5.2637,5.317,5.3795,5.4674,5.4277,5.4258,5.4713,5.5098,5.5098,5.4752,5.5521,5.5911,5.593,5.593,5.6165,5.6609,5.6609,5.6609,5.6609,5.6609,5.6609,5.6648,5.7031,5.7207,5.7207,5.7226,5.75,5.784,5.7383,5.6953,5.668,5.707,5.7226,5.7383,5.8215,5.8507,5.8594,5.9062,5.918,5.9207,5.9207,5.9207,5.9207,5.9207,5.9207,5.9207,5.9207,5.9207,5.9207,5.9207,5.9207,5.9207,5.9207,5.9207,5.9207,5.9207,5.9207,5.9207,5.9207,5.9207,5.9207,5.9207,5.9207,5.9207,5.9207,5.9207,5.8648,5.7381,5.7249,5.6713,5.554,5.5464,5.5436,5.5387,5.4244,5.3641,5.3641,5.2459,5.1909,5.1909,5.1909,5.1909,0.0,0.0,4.9867,4.8558,0.0,0.0,0.0,0.0,0.0,0.0,0.0,0.0,0.0,0.0,0.0,0.0,0.0,0.0,0.0,4.4766,4.5271,4.6016,4.7344,4.8223,4.8242,4.8499,4.9144,5.0336,5.0278,5.0825,5.2226,5.2695,5.3228,5.3814,5.3945,5.4076,5.4258,5.4668,5.4824,5.4713,5.5254,5.5638,5.5911,5.5911,5.6172,5.6609,5.6609,5.6609,5.6609,5.6609,5.6609,5.6648,5.7051,5.7051,5.6894,5.7746,5.8156,5.8242,5.7793,5.7363,5.707,5.7527,5.7851,5.8156,5.8769,5.8945,5.9004,5.9149,5.9207,5.9207,5.9207,5.9207,5.9207,5.9207,5.9207,5.9207,5.9207,5.9207,5.9207,5.9207,5.9207,5.9207,5.9207,5.9207,5.9207,5.9207,5.9207,5.9207,5.9207,5.9207,5.9207,5.9207,5.9207,5.9207,5.9207,5.9207,5.9012,5.8572,5.8572,5.7991,5.6741,5.6713,5.6298,5.5511,5.5112,5.4894,5.4894,5.367,5.3094,5.3065,5.2285,5.1909,4.9997,5.0515,0.0,4.991,4.9683,0.0,4.7664,0.0,0.0,0.0,0.0,0.0,0.0,0.0,0.0,0.0,0.0,0.0,0.0,4.4766,4.5115,4.541,4.668,4.7598,4.7793,4.7776,4.8363,4.9824,4.9648,5.0176,5.1758,5.2402,5.291,5.339,5.3789,5.4076,5.4258,5.4687,5.498,5.5117,5.5254,5.5605,5.6126,5.5833,5.6035,5.6609,5.6609,5.6609,5.6609,5.6609,5.6609,5.6667,5.7226,5.7187,5.6933,5.791,5.8273,5.8215,5.7793,5.7539,5.748,5.7808,5.8172,5.8594,5.9062,5.9207,5.9255,5.9644,5.9613,5.959,5.9963,5.992,5.9754,5.9543,5.9467,5.9439,5.9255,5.9207,5.9207,5.9207,5.9207,5.9207,5.9207,5.9207,5.9207,5.9207,5.9207,5.9207,5.9207,5.9207,5.9207,5.9207,5.9207,5.9207,5.9207,5.9207,5.9207,5.9207,5.9207,5.8844,5.7991,5.7991,5.7597,5.6816,5.6373,5.6146,5.6146,5.4941,5.434,5.4319,5.3519,5.3192]}]]